Date StartTime U_cm/s V_cm/s W_cm/s Ustd_cm/s Vstd_cm/s Wstd_cm/s Uvar_(cm/s)^2 Vvar_(cm/s)^2 Wvar_(cm/s)^2 KE_(m/s)^2 TurbulentKE_(m/s)^2 HorizWindSpeed_cm/s FrictionSpeec_cm/s DragCoef SpeedOfSound_m/s SonicTemperature_C Pressure_mb 
01/03/2015  00:00:00      -44.725      -28.020       -9.043       11.155       16.992       11.608      124.438      288.742      134.750        0.171        0.027       52.777        6.341        0.014      329.227       -4.174      864.655
01/03/2015  00:01:00      -45.445      -31.479      -11.538       12.166       19.134        7.879      148.022      366.118       62.071        0.188        0.029       55.283        7.603        0.019      329.322       -4.016      864.662
01/03/2015  00:02:00      -48.441      -25.099       -1.940       12.544       13.770        9.944      157.343      189.604       98.874        0.171        0.022       54.557        5.694        0.011      329.320       -4.020      864.673
01/03/2015  00:03:00      -85.405       -9.842      -15.118        8.959        8.342        9.044       80.264       69.596       81.793        0.393        0.012       85.970        3.568        0.002      329.386       -3.910      864.677
01/03/2015  00:04:00      -65.172      -14.423      -16.096       17.899       12.974       12.852      320.374      168.318      165.173        0.268        0.033       66.749       11.377        0.029      329.285       -4.076      864.681
01/03/2015  00:05:00      -75.526      -29.618      -14.819       16.847       17.497       11.827      283.834      306.148      139.881        0.377        0.036       81.126       10.558        0.017      329.229       -4.170      864.670
01/03/2015  00:06:00      -86.344      -29.104      -19.748       21.781       12.684       10.131      474.429      160.887      102.644        0.472        0.037       91.117        3.812        0.002      329.223       -4.177      864.662
01/03/2015  00:07:00      -44.447      -30.909       -6.170       16.233       20.762       15.883      263.500      431.066      252.259        0.196        0.047       54.138        7.066        0.017      329.172       -4.262      864.660
01/03/2015  00:08:00      -57.271      -20.004       -6.954       25.556       17.556       10.744      653.110      308.210      115.430        0.240        0.054       60.664        7.308        0.015      329.119       -4.348      864.655
01/03/2015  00:09:00      -88.127       -9.408       -9.355       35.689       21.705       14.831     1273.671      471.100      219.966        0.495        0.098       88.628       14.682        0.027      329.122       -4.343      864.666
01/03/2015  00:10:00      -65.719      -18.684       -7.684       42.190       31.335       24.649     1779.959      981.912      607.584        0.405        0.168       68.323       21.819        0.102      329.095       -4.388      864.686
01/03/2015  00:11:00      -48.310        0.279       -2.486       37.219       31.616       19.763     1385.248      999.591      390.593        0.256        0.139       48.311       15.968        0.109      329.096       -4.384      864.698
01/03/2015  00:12:00      -95.438      -20.307       -9.902       31.065       22.397       16.147      965.031      501.621      260.741        0.567        0.086       97.575       14.144        0.021      329.163       -4.276      864.713
01/03/2015  00:13:00     -103.256      -47.897       -3.080       31.907       39.301       22.248     1018.045     1544.563      494.986        0.801        0.153      113.824       14.930        0.017      329.119       -4.347      864.720
01/03/2015  00:14:00      -95.992      -19.890      -10.715       33.277       33.978       18.843     1107.361     1154.497      355.066        0.617        0.131       98.031       14.308        0.021      329.046       -4.467      864.727
01/03/2015  00:15:00      -90.833      -28.275      -14.956       39.815       37.476       24.224     1585.225     1404.451      586.825        0.642        0.179       95.132       21.282        0.050      329.042       -4.473      864.730
01/03/2015  00:16:00     -124.507      -21.866      -17.918       35.888       42.590       25.014     1287.928     1813.950      625.715        1.001        0.186      126.413       21.319        0.028      329.057       -4.449      864.723
01/03/2015  00:17:00     -121.707       -0.819      -21.230       60.735       48.306       26.927     3688.773     2333.499      725.076        1.100        0.337      121.710       29.713        0.060      329.009       -4.529      864.719
01/03/2015  00:18:00     -176.322       35.822      -15.583       36.489       31.596       24.042     1331.433      998.305      578.011        1.776        0.145      179.924       20.012        0.012      329.063       -4.440      864.705
01/03/2015  00:19:00     -163.858       47.969      -21.709       46.056       30.456       25.726     2121.130      927.598      661.845        1.667        0.186      170.735       15.972        0.009      329.026       -4.501      864.672
01/03/2015  00:20:00     -151.637       37.482      -13.602       46.515       29.711       24.820     2163.644      882.722      616.025        1.412        0.183      156.200       19.904        0.016      329.052       -4.457      864.646
01/03/2015  00:21:00     -175.326       65.086      -18.133       50.586       29.283       23.482     2558.990      857.471      551.405        1.964        0.198      187.017        9.670        0.003      329.140       -4.314      864.636
01/03/2015  00:22:00     -184.840       66.506      -19.976       46.001       31.642       26.746     2116.070     1001.233      715.370        2.141        0.192      196.440       19.165        0.010      329.157       -4.287      864.624
01/03/2015  00:23:00     -149.251       69.236      -15.813       55.955       34.310       22.704     3131.013     1177.175      515.485        1.607        0.241      164.528       19.038        0.013      329.113       -4.359      864.612
01/03/2015  00:24:00     -155.608       53.466      -17.089       46.802       31.716       27.385     2190.427     1005.920      749.928        1.565        0.197      164.537       17.674        0.012      329.122       -4.344      864.589
01/03/2015  00:25:00     -143.677       45.347       -8.251       39.251       29.788       24.333     1540.653      887.330      592.081        1.289        0.151      150.664       17.649        0.014      329.080       -4.412      864.573
01/03/2015  00:26:00     -132.269       42.922      -10.041       40.673       29.968       23.884     1654.258      898.080      570.443        1.128        0.156      139.059       16.990        0.015      329.062       -4.441      864.562
01/03/2015  00:27:00     -129.516       32.051      -15.331       31.976       27.323       20.340     1022.475      746.555      413.707        1.011        0.109      133.422       14.157        0.011      329.095       -4.387      864.537
01/03/2015  00:28:00     -135.962        2.864      -18.271       33.709       19.397       17.635     1136.276      376.251      310.997        1.033        0.091      135.992       14.217        0.011      329.101       -4.376      864.519
01/03/2015  00:29:00     -137.008       -1.525      -16.900       37.043       34.859       19.620     1372.165     1215.121      384.941        1.102        0.149      137.016       17.085        0.016      329.112       -4.359      864.519
01/03/2015  00:30:00     -130.966       13.692      -19.841       35.020       24.918       18.510     1226.380      620.883      342.615        0.996        0.109      131.680       13.015        0.010      329.133       -4.326      864.502
01/03/2015  00:31:00     -115.687       -8.107      -15.075       28.611       26.198       17.852      818.566      686.346      318.689        0.775        0.091      115.971       11.623        0.010      329.081       -4.410      864.476
01/03/2015  00:32:00      -99.410      -28.399      -10.310       34.338       32.506       20.248     1179.101     1056.614      409.984        0.672        0.132      103.387       15.361        0.022      329.016       -4.518      864.467
01/03/2015  00:33:00     -145.192      -27.911      -17.114       25.308       22.691       19.293      640.495      514.866      372.221        1.184        0.076      147.850       17.181        0.014      329.085       -4.404      864.464
01/03/2015  00:34:00     -139.428       -4.820      -12.769       30.691       29.651       24.870      941.929      879.180      618.492        1.103        0.122      139.512       17.663        0.016      329.197       -4.220      864.470
01/03/2015  00:35:00     -123.796       14.007       -6.762       49.868       29.083       25.743     2486.823      845.825      662.713        0.978        0.200      124.586       29.452        0.056      329.299       -4.053      864.488
01/03/2015  00:36:00     -107.134       27.303       -4.607       49.471       25.679       23.697     2447.387      659.403      561.537        0.796        0.183      110.559       16.503        0.022      329.403       -3.884      864.498
01/03/2015  00:37:00      -48.977       29.665        1.000       28.101       26.047       22.056      789.676      678.457      486.461        0.262        0.098       57.260       12.460        0.047      329.545       -3.652      864.500
01/03/2015  00:38:00      -13.986      -32.600       -5.144       19.658       29.762       11.941      386.445      885.766      142.596        0.135        0.071       35.473        6.142        0.030      329.524       -3.685      864.507
01/03/2015  00:39:00      -28.090      -27.940        7.845       47.092       23.755       18.620     2217.687      564.293      346.720        0.238        0.156       39.619       16.062        0.164      329.327       -4.009      864.527
01/03/2015  00:40:00      -21.952      -33.464        5.757       23.680       20.241       16.815      560.760      409.705      282.744        0.144        0.063       40.022       13.140        0.108      329.338       -3.992      864.537
01/03/2015  00:41:00       -4.215      -33.529       -2.707       17.618       11.833       16.202      310.388      140.018      262.513        0.093        0.036       33.793        9.483        0.079      329.449       -3.809      864.534
01/03/2015  00:42:00        3.561      -17.816       -4.617        9.754       19.581       11.433       95.150      383.432      130.725        0.048        0.030       18.169       13.486        0.551      329.519       -3.694      864.519
01/03/2015  00:43:00      -17.981        8.726       -1.137        8.583        7.267        9.790       73.671       52.815       95.845        0.031        0.011       19.986        6.075        0.092      329.576       -3.603      864.505
01/03/2015  00:44:00      -23.567        6.074        3.566        8.135        8.527        7.673       66.182       72.702       58.877        0.040        0.010       24.337        4.673        0.037      329.590       -3.577      864.492
01/03/2015  00:45:00       -9.611       10.524        9.317       16.745       10.563       11.485      280.411      111.576      131.896        0.041        0.026       14.252        7.811        0.300      329.438       -3.827      864.484
01/03/2015  00:46:00      -20.998      -14.659        7.017       31.417       32.961       12.108      987.051     1086.402      146.594        0.146        0.111       25.609       16.047        0.393      329.404       -3.883      864.491
01/03/2015  00:47:00      -82.082      -41.820        1.637       33.712       32.441       25.339     1136.468     1052.434      642.048        0.566        0.142       92.121       12.476        0.018      329.343       -3.982      864.503
01/03/2015  00:48:00      -55.620      -52.844        1.838       41.245       25.636       21.608     1701.115      657.190      466.927        0.436        0.141       76.721       15.671        0.042      329.345       -3.980      864.496
01/03/2015  00:49:00      -80.319      -71.572       -8.388       45.243       34.618       22.431     2046.965     1198.430      503.159        0.770        0.187      107.581       26.424        0.060      329.302       -4.051      864.479
01/03/2015  00:50:00      -52.083      -63.631        2.640       40.810       37.475       22.029     1665.478     1404.349      485.272        0.516        0.178       82.229       19.738        0.058      329.259       -4.119      864.464
01/03/2015  00:51:00      -75.021      -65.492       -0.089       40.803       44.610       26.136     1664.870     1990.090      683.101        0.713        0.217       99.586       23.059        0.054      329.241       -4.148      864.444
01/03/2015  00:52:00      -67.507      -61.443        0.787       39.674       43.233       26.206     1574.047     1869.103      686.764        0.623        0.206       91.282       29.280        0.103      329.217       -4.190      864.442
01/03/2015  00:53:00      -51.559      -37.588        0.011       39.345       38.037       23.076     1548.023     1446.847      532.513        0.380        0.176       63.806       17.150        0.072      329.265       -4.111      864.448
01/03/2015  00:54:00      -36.390      -30.343        4.931       43.074       31.791       30.399     1855.369     1010.645      924.073        0.303        0.190       47.381       28.915        0.372      329.299       -4.054      864.465
01/03/2015  00:55:00      -27.857      -23.619        5.957       36.448       26.677       15.428     1328.437      711.653      238.026        0.182        0.114       36.522       15.018        0.169      329.337       -3.993      864.473
01/03/2015  00:56:00      -30.384      -40.554        8.368       42.372       47.817       24.032     1795.352     2286.436      577.529        0.365        0.233       50.673       28.894        0.325      329.324       -4.013      864.479
01/03/2015  00:57:00       -2.553       -5.213        7.781       18.553       19.738       14.855      344.229      389.574      220.672        0.052        0.048        5.805        9.441        2.645      329.291       -4.068      864.479
01/03/2015  00:58:00       10.110      -21.593        2.906       21.571       19.246       17.545      465.326      370.427      307.820        0.086        0.057       23.843        8.637        0.131      329.457       -3.797      864.465
01/03/2015  00:59:00      -23.136      -10.098        5.798       30.898       23.641       19.757      954.711      558.874      390.344        0.129        0.095       25.243        6.163        0.060      329.469       -3.777      864.445
01/03/2015  01:00:00      -23.149      -32.148        3.138       23.598       25.689       15.950      556.885      659.924      254.418        0.152        0.074       39.615        4.379        0.012      329.452       -3.803      864.418
01/03/2015  01:01:00       -9.340       -1.926        6.805       25.823       19.788       13.104      666.827      391.569      171.719        0.068        0.062        9.536       10.384        1.186      329.428       -3.844      864.396
01/03/2015  01:02:00       -2.148      -17.329       -5.054       25.313       17.374        9.652      640.736      301.858       93.152        0.068        0.052       17.462       10.143        0.337      329.448       -3.809      864.380
01/03/2015  01:03:00      -18.040       10.258       11.004       26.362       23.067       14.929      694.952      532.106      222.878        0.100        0.072       20.752       14.165        0.466      329.350       -3.970      864.374
01/03/2015  01:04:00       -4.411        0.146        6.639       13.667       12.177       18.788      186.800      148.278      352.990        0.038        0.034        4.413       11.639        6.955      329.346       -3.978      864.381
01/03/2015  01:05:00      -10.595      -13.792       -0.796       16.350       15.523       15.358      267.315      240.969      235.883        0.052        0.037       17.392       10.312        0.352      329.349       -3.972      864.399
01/03/2015  01:06:00      -62.834      -37.780       -1.321       24.938       19.442       16.391      621.909      377.980      268.681        0.332        0.063       73.317       14.672        0.040      329.264       -4.111      864.418
01/03/2015  01:07:00      -72.091      -21.416       -3.749       23.347       17.185       10.140      545.073      295.310      102.815        0.331        0.047       75.205        6.732        0.008      329.292       -4.065      864.449
01/03/2015  01:08:00      -33.404      -12.555        4.178       24.412       18.874        9.965      595.937      356.222       99.301        0.117        0.053       35.685        9.410        0.070      329.155       -4.289      864.485
01/03/2015  01:09:00      -46.336      -30.157        8.780       25.041       18.842       12.986      627.043      355.027      168.634        0.214        0.058       55.286       10.014        0.033      329.168       -4.268      864.516
01/03/2015  01:10:00      -37.459      -33.510        2.684       24.134       13.930       13.499      582.436      194.045      182.212        0.175        0.048       50.260       12.118        0.058      329.149       -4.299      864.537
01/03/2015  01:11:00      -19.667      -15.944       -5.475       11.276       13.944        8.952      127.143      194.434       80.132        0.054        0.020       25.318        6.668        0.069      329.058       -4.448      864.564
01/03/2015  01:12:00      -23.290       -8.463       -6.233        8.091        7.947        7.664       65.469       63.152       58.735        0.042        0.009       24.780        4.637        0.035      329.103       -4.371      864.585
01/03/2015  01:13:00      -19.179       -2.099       -6.942        7.464        5.220        6.892       55.711       27.253       47.499        0.028        0.007       19.294        1.489        0.006      329.058       -4.448      864.605
01/03/2015  01:14:00      -20.719       -3.122       -5.002        5.053        7.978        4.001       25.535       63.655       16.004        0.028        0.005       20.952        2.062        0.010      329.049       -4.465      864.629
01/03/2015  01:15:00      -24.034       -6.599       -6.981       10.052        6.895        4.545      101.042       47.535       20.660        0.042        0.008       24.923        2.629        0.011      329.111       -4.361      864.662
01/03/2015  01:16:00      -53.921      -11.230       -8.601        9.527       11.712        6.593       90.770      137.160       43.466        0.169        0.014       55.078        6.613        0.014      329.067       -4.433      864.689
01/03/2015  01:17:00      -71.350      -26.581      -12.762        9.853       12.265        9.452       97.088      150.440       89.333        0.315        0.017       76.140        5.297        0.005      328.961       -4.606      864.696
01/03/2015  01:18:00      -84.883      -15.640      -12.953       10.767        9.710       10.259      115.932       94.287      105.240        0.397        0.016       86.312        4.769        0.003      328.859       -4.771      864.705
01/03/2015  01:19:00      -75.578      -13.798      -14.637        8.849       11.688        9.524       78.301      136.619       90.708        0.321        0.015       76.827        5.586        0.005      328.820       -4.836      864.715
01/03/2015  01:20:00      -85.254      -13.882      -15.097       12.440       11.867        8.434      154.756      140.830       71.134        0.403        0.018       86.377        4.390        0.003      328.828       -4.823      864.738
01/03/2015  01:21:00      -90.077       -9.355      -16.837       15.419       15.404       10.489      237.738      237.293      110.014        0.453        0.029       90.561        8.912        0.010      328.725       -4.991      864.758
01/03/2015  01:22:00      -45.615       -5.200       -1.055       17.098       18.659       12.001      292.344      348.175      144.016        0.145        0.039       45.910       10.370        0.051      328.746       -4.958      864.772
01/03/2015  01:23:00      -74.264       16.397      -18.461       30.053       29.745       16.799      903.195      884.752      282.207        0.410        0.104       76.053       16.135        0.045      328.824       -4.830      864.790
01/03/2015  01:24:00      -64.512       -7.945       -6.938       38.638       26.554       19.757     1492.883      705.108      390.347        0.343        0.129       64.999       21.167        0.106      328.838       -4.806      864.790
01/03/2015  01:25:00      -64.069      -18.097       -7.713       28.013       25.620       13.935      784.745      656.393      194.180        0.306        0.082       66.576       12.406        0.035      328.862       -4.768      864.774
01/03/2015  01:26:00      -39.992       -8.446       -9.571       22.207       22.412       15.852      493.151      502.301      251.279        0.150        0.062       40.874       13.492        0.109      328.800       -4.869      864.752
01/03/2015  01:27:00      -57.065      -21.077      -12.685       17.029       13.704        8.737      289.978      187.795       76.343        0.221        0.028       60.833        7.171        0.014      328.850       -4.787      864.763
01/03/2015  01:28:00      -31.034      -12.346       -8.511       14.282       18.236        9.797      203.964      332.536       95.973        0.091        0.032       33.399       10.731        0.103      329.011       -4.523      864.775
01/03/2015  01:29:00      -60.939      -30.814      -13.795       23.224       25.306       15.205      539.377      640.393      231.181        0.313        0.071       68.286        9.010        0.017      328.894       -4.715      864.790
01/03/2015  01:30:00      -80.844      -12.292      -17.200       16.641       21.902       12.364      276.939      479.705      152.858        0.395        0.045       81.774        4.057        0.002      328.763       -4.930      864.803
01/03/2015  01:31:00      -68.432       -2.932      -12.574       25.191       16.828       13.364      634.599      283.166      178.603        0.297        0.055       68.494       11.976        0.031      328.731       -4.982      864.800
01/03/2015  01:32:00      -43.909      -19.236       -7.091       20.558       16.045       10.809      422.616      257.440      116.840        0.157        0.040       47.937       10.416        0.047      328.802       -4.866      864.787
01/03/2015  01:33:00      -16.979      -31.616       11.920       27.770       12.814       15.213      771.160      164.192      231.425        0.130        0.058       35.886       17.461        0.237      328.818       -4.839      864.781
01/03/2015  01:34:00      -50.196      -14.987      -16.616       20.714       10.744       13.676      429.062      115.430      187.026        0.188        0.037       52.385        9.899        0.036      328.762       -4.932      864.786
01/03/2015  01:35:00      -86.038      -35.277      -17.663       18.339       18.552       10.815      336.317      344.184      116.962        0.488        0.040       92.989        9.232        0.010      328.692       -5.043      864.769
01/03/2015  01:36:00      -85.475      -41.913       -6.399       21.099       20.064       16.121      445.177      402.550      259.884        0.511        0.055       95.198       11.306        0.014      328.626       -5.153      864.756
01/03/2015  01:37:00      -63.195      -33.490       -7.733       18.754       14.455       11.542      351.711      208.939      133.212        0.293        0.035       71.521        7.359        0.011      328.679       -5.066      864.746
01/03/2015  01:38:00      -52.397      -26.059       -8.942       19.627       11.820       11.606      385.213      139.717      134.708        0.208        0.033       58.520        4.769        0.007      328.735       -4.974      864.742
01/03/2015  01:39:00      -80.696      -29.449      -15.584       10.600       16.679       11.472      112.360      278.179      131.606        0.407        0.026       85.901        8.218        0.009      328.768       -4.920      864.749
01/03/2015  01:40:00      -75.734      -19.097      -11.170       13.305       15.163       12.948      177.029      229.930      167.642        0.340        0.029       78.105        7.664        0.010      328.745       -4.958      864.751
01/03/2015  01:41:00      -68.019        1.563      -13.120       17.133       12.950       11.198      293.534      167.699      125.390        0.269        0.029       68.037        8.240        0.015      328.709       -5.017      864.748
01/03/2015  01:42:00      -55.137        1.910       -7.980       17.775       16.295       10.473      315.934      265.526      109.678        0.190        0.035       55.170        6.684        0.015      328.777       -4.907      864.740
01/03/2015  01:43:00      -57.866       -9.211      -11.315       25.106       29.593       12.603      630.325      875.755      158.847        0.261        0.083       58.595       10.883        0.034      328.804       -4.862      864.727
01/03/2015  01:44:00      -57.000      -26.457       -8.117       23.997       20.771       12.421      575.872      431.433      154.288        0.259        0.058       62.841        9.184        0.021      328.807       -4.856      864.703
01/03/2015  01:45:00      -83.230      -14.207      -11.452       13.994       12.336       11.916      195.820      152.167      141.996        0.388        0.024       84.434        5.206        0.004      328.766       -4.925      864.677
01/03/2015  01:46:00      -70.096      -14.970      -14.975       15.300       17.040       10.272      234.099      290.375      105.522        0.300        0.031       71.677        6.771        0.009      328.759       -4.937      864.655
01/03/2015  01:47:00      -65.267      -29.451       -9.904       15.591       22.010       14.676      243.088      484.454      215.392        0.308        0.047       71.604        6.530        0.008      328.736       -4.974      864.646
01/03/2015  01:48:00      -86.730      -16.754      -10.902       13.657       17.086       13.345      186.516      291.945      178.101        0.429        0.033       88.333        9.316        0.011      328.706       -5.021      864.642
01/03/2015  01:49:00      -98.612      -11.333      -16.544        8.449        9.379        8.471       71.393       87.962       71.755        0.518        0.012       99.262        3.989        0.002      328.674       -5.075      864.647
01/03/2015  01:50:00     -121.944      -10.809      -20.445       16.509       14.377       13.203      272.541      206.701      174.307        0.803        0.033      122.422        6.318        0.003      328.626       -5.152      864.660
01/03/2015  01:51:00     -111.628       -1.332      -18.504       18.956       14.818       15.195      359.343      219.562      230.882        0.681        0.040      111.635        8.254        0.005      328.608       -5.182      864.674
01/03/2015  01:52:00      -81.088       -6.032      -13.081       20.521        9.912       10.726      421.115       98.241      115.040        0.371        0.032       81.312        5.868        0.005      328.567       -5.249      864.665
01/03/2015  01:53:00      -31.092      -15.129       -7.631       16.286       10.550        7.227      265.236      111.292       52.236        0.084        0.021       34.577        7.440        0.046      328.817       -4.840      864.644
01/03/2015  01:54:00       13.261        1.557        0.807       11.387        7.148        4.946      129.668       51.093       24.461        0.019        0.010       13.352        3.426        0.066      329.262       -4.115      864.633
01/03/2015  01:55:00      -15.377       -5.889       -2.913       20.865       12.160        6.405      435.328      147.873       41.029        0.045        0.031       16.466       10.442        0.402      329.121       -4.346      864.646
01/03/2015  01:56:00      -49.020      -21.016       -8.533       10.634        8.736       10.132      113.076       76.318      102.653        0.160        0.015       53.336        3.408        0.004      328.708       -5.019      864.655
01/03/2015  01:57:00      -35.008      -13.609       -6.509       12.728       12.369        5.843      161.994      152.996       34.138        0.090        0.017       37.560        4.740        0.016      328.964       -4.601      864.651
01/03/2015  01:58:00       -9.758      -11.066       -4.633       19.781       12.761        6.124      391.277      162.834       37.500        0.042        0.030       14.754        9.020        0.374      329.211       -4.198      864.639
01/03/2015  01:59:00       17.892        3.959       -0.083       11.420        8.654        6.325      130.410       74.893       40.001        0.029        0.012       18.324        6.083        0.110      329.263       -4.112      864.618
01/03/2015  02:00:00        7.636       18.427       24.501       12.656       12.935       11.979      160.162      167.326      143.506        0.073        0.024       19.946       10.107        0.257      328.961       -4.607      864.609
01/03/2015  02:01:00        0.775       17.446       27.529       13.894       10.978        8.093      193.037      120.507       65.495        0.072        0.019       17.463        8.162        0.218      328.911       -4.688      864.604
01/03/2015  02:02:00       36.208       24.032       10.464        7.936        8.892        9.365       62.981       79.071       87.700        0.111        0.011       43.458        4.009        0.009      328.871       -4.754      864.612
01/03/2015  02:03:00       15.371        6.351        1.620       14.298        9.841        8.452      204.442       96.836       71.428        0.033        0.019       16.631        8.272        0.247      328.890       -4.723      864.620
01/03/2015  02:04:00        6.346      -24.435        6.698       10.222       10.139       11.169      104.488      102.809      124.739        0.051        0.017       25.245        8.051        0.102      328.956       -4.615      864.646
01/03/2015  02:05:00        3.764       -8.869        1.760       11.415       11.488        8.029      130.305      131.965       64.469        0.021        0.016        9.635        3.297        0.117      328.888       -4.727      864.690
01/03/2015  02:06:00      -10.949       -9.806        3.492       14.356       10.343        6.885      206.092      106.973       47.405        0.029        0.018       14.698        4.305        0.086      328.799       -4.869      864.743
01/03/2015  02:07:00      -12.481      -17.712        3.680       14.752        9.957       13.029      217.632       99.149      169.760        0.048        0.024       21.668        8.113        0.140      328.709       -5.016      864.796
01/03/2015  02:08:00      -14.616      -22.907        7.788       16.150       10.884       12.838      260.811      118.451      164.826        0.067        0.027       27.173       11.631        0.183      328.741       -4.965      864.840
01/03/2015  02:09:00      -10.602       -4.584        0.135        7.978        6.399        9.352       63.643       40.953       87.454        0.016        0.010       11.550        3.945        0.117      328.657       -5.100      864.866
01/03/2015  02:10:00      -11.092       -3.093       -0.157        3.835        4.018        5.449       14.709       16.148       29.692        0.010        0.003       11.515        3.152        0.075      328.765       -4.927      864.890
01/03/2015  02:11:00       -7.922       -5.493       -9.009       20.659       21.040       16.296      426.776      442.697      265.548        0.065        0.057        9.641       14.220        2.176      328.792       -4.880      864.910
01/03/2015  02:12:00      -29.669       -2.838       12.450       12.055       16.303       16.442      145.311      265.778      270.341        0.086        0.034       29.805       11.987        0.162      328.938       -4.643      864.913
01/03/2015  02:13:00       -7.840       -0.641        3.710       16.398       13.117       12.581      268.903      172.048      158.275        0.034        0.030        7.866        8.795        1.250      328.864       -4.764      864.929
01/03/2015  02:14:00      -13.104        5.076       -2.342       15.854       10.252        8.680      251.356      105.105       75.346        0.032        0.022       14.053        8.835        0.395      328.795       -4.876      864.945
01/03/2015  02:15:00      -48.351        5.377       -7.310       16.136       24.272       10.271      260.361      589.113      105.494        0.169        0.048       48.649        8.966        0.034      328.751       -4.949      864.961
01/03/2015  02:16:00      -10.603       -0.976        4.167       10.084       16.944        9.763      101.692      287.108       95.318        0.031        0.024       10.647        5.914        0.308      328.750       -4.951      864.977
01/03/2015  02:17:00      -40.981       20.560      -12.881       15.632       10.788        7.582      244.347      116.391       57.480        0.134        0.021       45.849        6.859        0.022      328.809       -4.854      864.972
01/03/2015  02:18:00      -47.154        1.319      -10.669        7.652        8.631        9.370       58.554       74.502       87.804        0.128        0.011       47.173        5.720        0.015      328.864       -4.765      864.978
01/03/2015  02:19:00      -48.683        9.646       -7.224       11.761       10.473        9.658      138.310      109.684       93.283        0.143        0.017       49.630        5.090        0.011      328.858       -4.774      864.986
01/03/2015  02:20:00      -52.252       -4.033       -4.511       14.772        6.979        7.908      218.199       48.704       62.539        0.155        0.016       52.407        8.218        0.025      328.884       -4.730      865.000
01/03/2015  02:21:00      -56.945      -16.767       -0.990       11.472       15.257       12.514      131.610      232.766      156.609        0.202        0.026       59.362        6.201        0.011      328.822       -4.834      865.011
01/03/2015  02:22:00      -53.661      -16.703       -5.591       13.587       12.265       10.560      184.614      150.425      111.514        0.182        0.022       56.201        7.881        0.020      328.729       -4.984      865.020
01/03/2015  02:23:00      -53.158       -2.304       -4.164       15.176       11.368        8.646      230.325      129.224       74.757        0.164        0.022       53.208        6.106        0.013      328.726       -4.989      865.038
01/03/2015  02:24:00      -66.260        1.534       -6.254       20.655       13.509        9.405      426.610      182.505       88.455        0.256        0.035       66.278        9.897        0.022      328.695       -5.039      865.064
01/03/2015  02:25:00      -29.625        5.631       -5.303       15.031        9.200        8.562      225.933       84.642       73.314        0.066        0.019       30.155        9.300        0.095      328.649       -5.115      865.082
01/03/2015  02:26:00      -38.936       11.808       -8.845        9.090        7.109        5.653       82.637       50.532       31.955        0.095        0.008       40.687        6.088        0.022      328.752       -4.946      865.077
01/03/2015  02:27:00      -39.358        7.775       -5.060        7.682        9.438        7.657       59.008       89.081       58.625        0.092        0.010       40.119        4.769        0.014      328.827       -4.824      865.064
01/03/2015  02:28:00      -43.299       12.036       -2.689       13.807        7.196        8.032      190.621       51.781       64.510        0.117        0.015       44.941        7.248        0.026      328.839       -4.805      865.053
01/03/2015  02:29:00      -32.042       12.609       -4.146       12.186        7.889        8.249      148.493       62.237       68.050        0.074        0.014       34.434        6.579        0.037      328.879       -4.740      865.047
01/03/2015  02:30:00      -17.575        1.704       -1.707       10.571        8.317        7.060      111.754       69.167       49.851        0.027        0.012       17.657        2.808        0.025      328.829       -4.822      865.038
01/03/2015  02:31:00       -2.031       -2.315        6.290        9.780        8.308        9.525       95.644       69.024       90.721        0.015        0.013        3.080        8.403        7.445      328.840       -4.802      865.032
01/03/2015  02:32:00        7.461       -2.049        6.786       11.141       10.503       10.104      124.132      110.304      102.095        0.022        0.017        7.737        5.606        0.525      328.967       -4.597      865.008
01/03/2015  02:33:00        5.087       19.769        5.642        7.168       11.185        8.815       51.377      125.101       77.709        0.035        0.013       20.413        6.456        0.100      328.985       -4.566      864.993
01/03/2015  02:34:00       15.760        9.019       -0.218        9.124       11.532        8.443       83.256      132.994       71.291        0.031        0.014       18.158        4.182        0.053      328.962       -4.605      864.993
01/03/2015  02:35:00       16.244        4.352        9.891       10.899       14.091        9.244      118.784      198.543       85.444        0.039        0.020       16.817        5.950        0.125      328.902       -4.703      864.976
01/03/2015  02:36:00       19.641       15.540        1.536        6.277        7.669        4.942       39.399       58.815       24.427        0.038        0.006       25.045        3.837        0.023      328.844       -4.797      864.976
01/03/2015  02:37:00       16.458       25.874       -0.454       12.442       14.910        7.189      154.814      222.321       51.684        0.068        0.021       30.665        9.111        0.088      328.851       -4.784      864.987
01/03/2015  02:38:00       13.914       31.236       -6.825        9.809       11.867        7.784       96.208      140.825       60.584        0.076        0.015       34.195        6.358        0.035      328.801       -4.866      864.988
01/03/2015  02:39:00       -3.637       17.337        1.316       10.010       12.092        8.756      100.205      146.216       76.675        0.032        0.016       17.714        8.912        0.253      328.816       -4.841      864.973
01/03/2015  02:40:00      -17.936        6.895       -1.849       15.618       13.876        9.534      243.927      192.551       90.905        0.045        0.026       19.216       10.068        0.274      328.808       -4.856      864.941
01/03/2015  02:41:00        5.797       39.683       -8.248        9.483       17.097        7.982       89.932      292.294       63.712        0.106        0.022       40.104        9.814        0.060      328.916       -4.680      864.916
01/03/2015  02:42:00       -3.080       38.994       -0.442       12.335       17.556        8.047      152.161      308.221       64.750        0.103        0.026       39.115        9.811        0.063      328.893       -4.715      864.916
01/03/2015  02:43:00       -1.578       63.862       -6.767        8.708       12.330        8.055       75.821      152.031       64.879        0.221        0.015       63.882        6.189        0.009      328.908       -4.692      864.933
01/03/2015  02:44:00      -12.794       65.571       -6.051       20.300       20.229       13.955      412.104      409.202      194.743        0.276        0.051       66.808        6.179        0.009      329.006       -4.532      864.935
01/03/2015  02:45:00      -37.477       37.352       -6.559       29.918       26.447       10.716      895.073      699.451      114.829        0.228        0.085       52.913        9.544        0.033      328.767       -4.925      864.931
01/03/2015  02:46:00      -66.386       -7.421       -9.194       16.512       16.827        9.306      272.647      283.151       86.607        0.259        0.032       66.800        7.139        0.011      328.395       -5.530      864.917
01/03/2015  02:47:00      -75.255      -21.609      -13.790       20.279       19.322        9.636      411.248      373.334       92.849        0.360        0.044       78.295        6.606        0.007      328.298       -5.688      864.907
01/03/2015  02:48:00      -71.895      -34.504      -13.520       13.957       18.092       11.508      194.809      327.305      132.434        0.360        0.033       79.746        5.856        0.005      328.310       -5.667      864.896
01/03/2015  02:49:00      -89.684      -33.312      -19.021       14.633       19.212       12.521      214.110      369.118      156.775        0.513        0.037       95.671        3.270        0.001      328.247       -5.770      864.886
01/03/2015  02:50:00      -74.054      -25.545      -11.650       37.578       29.204       21.300     1412.112      852.865      453.702        0.449        0.136       78.336       15.598        0.040      328.219       -5.817      864.883
01/03/2015  02:51:00      -54.771      -27.632        2.505       38.981       31.938       18.338     1519.553     1020.041      336.283        0.332        0.144       61.347       11.400        0.035      328.235       -5.789      864.887
01/03/2015  02:52:00      -77.778        3.776      -14.228       49.657       31.430       23.775     2465.801      987.859      565.232        0.514        0.201       77.870       21.451        0.076      328.214       -5.825      864.892
01/03/2015  02:53:00     -125.539       27.693      -18.472       44.814       36.617       21.219     2008.303     1340.784      450.244        1.033        0.190      128.557       13.148        0.010      328.211       -5.828      864.892
01/03/2015  02:54:00     -104.181       13.071       -5.037       40.056       32.314       24.425     1604.485     1044.217      596.584        0.715        0.162      104.997       15.308        0.021      328.236       -5.788      864.904
01/03/2015  02:55:00     -119.703        9.166      -13.610       50.245       27.550       20.995     2524.536      758.981      440.800        0.916        0.186      120.053       15.693        0.017      328.277       -5.720      864.909
01/03/2015  02:56:00      -95.355       -0.286       -6.420       37.070       35.999       22.702     1374.168     1295.893      515.380        0.616        0.159       95.355       17.764        0.035      328.300       -5.682      864.910
01/03/2015  02:57:00      -88.070       -7.665      -10.077       35.486       33.482       20.261     1259.243     1121.044      410.491        0.535        0.140       88.403       15.814        0.032      328.294       -5.693      864.906
01/03/2015  02:58:00     -103.961      -13.914      -12.119       45.974       24.996       21.013     2113.633      624.801      441.556        0.716        0.159      104.888       21.485        0.042      328.316       -5.658      864.895
01/03/2015  02:59:00     -103.962      -19.891       -9.634       31.860       24.475       15.368     1015.085      599.044      236.160        0.657        0.093      105.848       13.326        0.016      328.240       -5.783      864.872
01/03/2015  03:00:00     -107.097      -10.130      -11.416       45.848       28.376       20.200     2102.051      805.181      408.043        0.751        0.166      107.575       20.472        0.036      328.297       -5.688      864.860
01/03/2015  03:01:00     -130.372       -7.685      -15.381       18.849       19.531       14.654      355.304      381.479      214.732        0.912        0.048      130.599       11.745        0.008      328.312       -5.665      864.863
01/03/2015  03:02:00     -141.910        3.868      -11.677       25.085       18.509       18.339      629.259      342.568      336.301        1.080        0.065      141.963       14.437        0.010      328.350       -5.602      864.862
01/03/2015  03:03:00     -126.685       -2.383      -13.724       24.175       23.499       18.237      584.422      552.214      332.594        0.886        0.073      126.708       13.714        0.012      328.377       -5.559      864.857
01/03/2015  03:04:00     -132.036        2.837      -15.179       20.138       20.870       15.580      405.525      435.554      242.740        0.938        0.054      132.066       10.466        0.006      328.435       -5.464      864.859
01/03/2015  03:05:00     -146.566      -13.576      -21.644       20.332       20.791       16.612      413.397      432.259      275.956        1.163        0.056      147.194       10.497        0.005      328.424       -5.482      864.857
01/03/2015  03:06:00     -137.063      -13.700      -15.127       15.886       21.120       15.010      252.375      446.053      225.305        1.006        0.046      137.746        9.870        0.005      328.443       -5.450      864.858
01/03/2015  03:07:00     -121.769      -17.232      -10.495       33.422       28.397       20.316     1117.056      806.418      412.756        0.879        0.117      122.983       20.070        0.027      328.519       -5.329      864.843
01/03/2015  03:08:00     -143.050      -17.242      -15.301       24.156       17.224       15.417      583.495      296.675      237.684        1.106        0.056      144.086       11.621        0.007      328.596       -5.200      864.834
01/03/2015  03:09:00     -135.281      -18.893      -17.055       16.300       13.848       11.204      265.696      191.780      125.533        0.977        0.029      136.594        7.600        0.003      328.594       -5.205      864.824
01/03/2015  03:10:00     -137.208      -20.338      -17.733       21.872       15.228       14.568      478.363      231.892      212.217        1.024        0.046      138.707       13.528        0.010      328.648       -5.116      864.807
01/03/2015  03:11:00     -128.499       -8.783      -11.798       34.533       21.894       21.579     1192.496      479.363      465.634        0.943        0.107      128.799       21.986        0.029      328.569       -5.246      864.811
01/03/2015  03:12:00     -131.849       -7.449       -9.010       39.356       26.637       22.556     1548.882      709.507      508.762        1.014        0.138      132.059       22.689        0.030      328.605       -5.187      864.819
01/03/2015  03:13:00     -141.105       -4.240      -13.360       30.484       22.001       20.406      929.292      484.046      416.404        1.097        0.091      141.168       18.368        0.017      328.501       -5.357      864.835
01/03/2015  03:14:00     -158.918      -21.164      -12.581       27.101       17.120       14.732      734.451      293.095      217.026        1.355        0.062      160.321       14.342        0.008      328.435       -5.464      864.856
01/03/2015  03:15:00     -140.872      -41.978       -1.040       28.597       23.752       16.544      817.761      564.147      273.695        1.163        0.083      146.994       14.459        0.010      328.498       -5.362      864.870
01/03/2015  03:16:00     -130.954      -50.007       -0.636       35.700       22.973       20.360     1274.513      527.751      414.526        1.093        0.111      140.177       16.570        0.014      328.543       -5.288      864.879
01/03/2015  03:17:00     -136.886      -30.983       -1.686       39.952       27.273       19.904     1596.125      743.798      396.186        1.122        0.137      140.349       20.874        0.022      328.613       -5.175      864.885
01/03/2015  03:18:00     -144.012      -43.239       -5.242       31.530       22.991       16.418      994.143      528.604      269.565        1.221        0.090      150.363       13.397        0.008      328.611       -5.177      864.883
01/03/2015  03:19:00     -142.545      -28.113      -12.948       27.345       26.161       15.064      747.746      684.386      226.933        1.147        0.083      145.291       11.809        0.007      328.675       -5.072      864.863
01/03/2015  03:20:00     -134.649      -29.516      -10.814       24.573       24.296       15.004      603.845      590.315      225.113        1.027        0.071      137.846       11.346        0.007      328.707       -5.021      864.847
01/03/2015  03:21:00     -115.407      -34.844       -8.093       28.856       24.999       14.764      832.679      624.926      217.984        0.814        0.084      120.552       11.105        0.008      328.682       -5.062      864.839
01/03/2015  03:22:00     -122.507      -33.610       -4.922       25.544       21.483       19.615      652.513      461.526      384.739        0.883        0.075      127.034       14.977        0.014      328.683       -5.058      864.853
01/03/2015  03:23:00     -114.555      -30.545      -10.666       34.156       23.312       18.584     1166.662      543.472      345.348        0.811        0.103      118.558       18.112        0.023      328.666       -5.087      864.875
01/03/2015  03:24:00     -130.217      -23.391       -8.051       35.200       26.487       18.916     1239.024      701.579      357.819        0.993        0.115      132.301       19.980        0.023      328.570       -5.244      864.907
01/03/2015  03:25:00     -118.310      -13.541       -2.332       38.524       29.028       21.903     1484.061      842.615      479.745        0.850        0.140      119.083       23.654        0.039      328.535       -5.301      864.941
01/03/2015  03:26:00     -106.967      -25.534       -0.733       43.359       31.837       20.111     1879.994     1013.616      404.468        0.770        0.165      109.972       18.212        0.027      328.655       -5.105      864.966
01/03/2015  03:27:00     -122.505      -32.808        0.327       35.452       28.802       17.983     1256.872      829.549      323.377        0.925        0.120      126.822       16.106        0.016      328.608       -5.182      864.980
01/03/2015  03:28:00     -122.083      -32.593       -3.912       40.302       24.679       20.335     1624.233      609.043      413.503        0.931        0.132      126.359       16.129        0.016      328.645       -5.121      864.982
01/03/2015  03:29:00      -81.167      -27.391        3.643       38.403       33.255       17.015     1474.789     1105.914      289.519        0.511        0.144       85.664       13.837        0.026      328.632       -5.143      864.981
01/03/2015  03:30:00      -90.685      -29.515       -0.166       26.537       24.112       15.588      704.193      581.381      242.996        0.531        0.076       95.367       13.121        0.019      328.665       -5.089      864.975
01/03/2015  03:31:00      -95.359      -16.051       -0.089       36.413       27.349       20.004     1325.889      747.993      400.144        0.591        0.124       96.701       19.191        0.039      328.730       -4.982      864.974
01/03/2015  03:32:00      -72.451      -24.880        6.367       37.517       25.975       15.951     1407.527      674.714      254.426        0.412        0.117       76.604       14.996        0.038      328.842       -4.799      864.972
01/03/2015  03:33:00      -78.087      -10.298        4.387       35.693       28.579       17.467     1274.003      816.736      305.088        0.431        0.120       78.763       18.309        0.054      328.893       -4.717      864.980
01/03/2015  03:34:00      -86.549      -26.080        2.890       30.644       24.675       18.797      939.026      608.877      353.316        0.504        0.095       90.393       18.603        0.042      328.930       -4.656      864.987
01/03/2015  03:35:00      -47.372      -21.894        4.825       26.705       24.628       15.298      713.133      606.535      234.035        0.215        0.078       52.186       14.875        0.081      328.923       -4.669      865.003
01/03/2015  03:36:00      -64.027      -10.159       -0.691       27.554       17.225       14.420      759.216      296.693      207.930        0.273        0.063       64.828       15.380        0.056      328.886       -4.728      865.019
01/03/2015  03:37:00      -61.745      -16.102        1.978       33.870       20.102       16.972     1147.209      404.082      288.055        0.296        0.092       63.810       18.706        0.086      328.854       -4.781      865.026
01/03/2015  03:38:00     -125.095       -6.234      -11.836       26.068       19.379       18.483      679.520      375.550      341.607        0.861        0.070      125.251       16.728        0.018      328.853       -4.783      865.035
01/03/2015  03:39:00     -109.472      -26.388       -2.716       36.011       24.153       17.819     1296.797      583.367      317.507        0.744        0.110      112.607       16.416        0.021      328.777       -4.906      865.040
01/03/2015  03:40:00      -87.217      -17.480       -1.882       33.935       31.274       20.929     1151.558      978.069      438.017        0.524        0.128       88.952       19.075        0.046      328.720       -5.000      865.049
01/03/2015  03:41:00      -87.580      -13.755       -6.255       31.030       26.224       16.227      962.867      687.706      263.311        0.491        0.096       88.654       17.300        0.038      328.666       -5.088      865.051
01/03/2015  03:42:00      -68.458      -31.360        1.785       45.887       20.157       18.920     2105.649      406.297      357.951        0.427        0.143       75.299       24.178        0.103      328.731       -4.981      865.046
01/03/2015  03:43:00      -89.929      -36.621       -0.512       35.406       22.356       16.729     1253.583      499.806      279.864        0.573        0.102       97.100       20.738        0.046      328.714       -5.008      865.039
01/03/2015  03:44:00       -0.751      -25.395       15.784       22.830       20.447       14.121      521.193      418.062      199.411        0.102        0.057       25.406       11.397        0.201      328.805       -4.860      865.022
01/03/2015  03:45:00      -59.377      -22.134      -11.996       22.798       11.957        9.462      519.740      142.973       89.535        0.246        0.038       63.368        6.984        0.012      328.796       -4.875      865.010
01/03/2015  03:46:00      -79.363      -11.157      -11.896       13.373       15.260       12.458      178.829      232.858      155.200        0.357        0.028       80.144        9.780        0.015      328.809       -4.853      865.015
01/03/2015  03:47:00      -90.652       -9.825      -16.451       14.091        8.522        7.126      198.555       72.622       50.784        0.445        0.016       91.183        6.654        0.005      328.827       -4.823      865.024
01/03/2015  03:48:00      -86.597       -1.444      -12.787        8.974        6.612        6.852       80.526       43.716       46.946        0.392        0.009       86.609        4.406        0.003      328.818       -4.840      865.044
01/03/2015  03:49:00      -68.444       -5.856      -11.463       12.095        9.945        8.178      146.301       98.904       66.873        0.258        0.016       68.694        5.471        0.006      328.773       -4.914      865.061
01/03/2015  03:50:00      -63.957      -20.290      -12.829       12.381        9.765        8.436      153.290       95.354       71.168        0.249        0.016       67.098        3.724        0.003      328.772       -4.914      865.074
01/03/2015  03:51:00      -75.276      -32.745      -12.136       12.698       10.154        7.986      161.238      103.105       63.779        0.361        0.016       82.090        2.878        0.001      328.698       -5.035      865.082
01/03/2015  03:52:00      -32.321       -4.778        2.524       25.156       17.573       10.697      632.837      308.822      114.419        0.106        0.053       32.672       11.648        0.127      328.657       -5.101      865.068
01/03/2015  03:53:00      -26.522      -24.176       -1.926       11.236       11.307        9.048      126.257      127.853       81.860        0.081        0.017       35.887        5.398        0.023      328.832       -4.816      865.047
01/03/2015  03:54:00      -23.263      -14.429       -1.736       11.765        9.037        8.988      138.414       81.662       80.779        0.053        0.015       27.374        6.630        0.059      328.889       -4.723      865.035
01/03/2015  03:55:00      -10.820      -20.315        0.273        7.422       12.980        7.513       55.092      168.489       56.442        0.040        0.014       23.017        7.474        0.105      328.907       -4.695      865.022
01/03/2015  03:56:00        4.398        0.896        1.683        4.815        6.114        5.325       23.189       37.380       28.351        0.006        0.004        4.488        3.990        0.791      328.819       -4.837      865.005
01/03/2015  03:57:00        5.904       12.931       12.749       20.261       13.783       15.166      410.505      189.971      229.999        0.060        0.042       14.215       14.727        1.073      328.779       -4.904      864.998
01/03/2015  03:58:00      -19.035        6.087        9.247       10.770       11.771       16.413      116.001      138.560      269.381        0.050        0.026       19.985       11.360        0.323      328.837       -4.807      864.998
01/03/2015  03:59:00      -16.486       11.719        2.120       20.343        9.499       11.482      413.853       90.227      131.843        0.052        0.032       20.226       13.067        0.417      328.794       -4.879      865.008
01/03/2015  04:00:00        1.164        8.222        7.866        7.985        8.868        5.401       63.762       78.649       29.167        0.015        0.009        8.304        2.815        0.115      328.794       -4.879      865.013
01/03/2015  04:01:00       18.345       37.270        3.456        8.418       15.599       12.312       70.869      243.336      151.589        0.110        0.023       41.540       11.309        0.074      328.753       -4.946      865.019
01/03/2015  04:02:00       -9.757       21.907       -5.156       17.657       21.898        9.492      311.760      479.511       90.089        0.074        0.044       23.981       13.007        0.294      328.690       -5.048      865.026
01/03/2015  04:03:00      -33.115      -16.248       -4.632       18.988       17.463       10.801      360.526      304.958      116.661        0.108        0.039       36.887        7.798        0.045      328.773       -4.911      865.029
01/03/2015  04:04:00      -24.743      -19.985       10.133       31.266       22.016       15.939      977.535      484.689      254.045        0.141        0.086       31.806       14.010        0.194      328.681       -5.063      865.021
01/03/2015  04:05:00       11.110        0.978        3.034       10.430       10.506       11.953      108.792      110.383      142.882        0.025        0.018       11.153        7.100        0.405      328.725       -4.990      865.012
01/03/2015  04:06:00       14.287       24.383       13.958       11.082        9.809       11.166      122.809       96.224      124.690        0.067        0.017       28.260        2.619        0.009      328.771       -4.912      865.018
01/03/2015  04:07:00       24.471       43.765        5.300       11.284       16.851       11.208      127.331      283.960      125.613        0.154        0.027       50.142        9.158        0.033      328.787       -4.889      865.036
01/03/2015  04:08:00       14.797       55.945       -6.906       20.212       18.013       14.039      408.528      324.451      197.096        0.216        0.047       57.869       12.160        0.044      328.710       -5.015      865.049
01/03/2015  04:09:00       18.095       60.122      -16.083       12.150       11.487        7.461      147.629      131.948       55.665        0.227        0.017       62.787        2.705        0.002      328.578       -5.232      865.060
01/03/2015  04:10:00       24.476       42.674       -4.602       17.446       16.241       10.605      304.354      263.761      112.468        0.156        0.034       49.195        9.233        0.035      328.500       -5.359      865.073
01/03/2015  04:11:00       20.704       59.021      -14.891       13.278        7.013        6.751      176.297       49.179       45.577        0.220        0.014       62.547        2.947        0.002      328.534       -5.302      865.072
01/03/2015  04:12:00        6.307       85.471      -12.915       10.654       25.071        6.330      113.513      628.543       40.069        0.415        0.039       85.704        2.584        0.001      328.563       -5.255      865.087
01/03/2015  04:13:00       15.126      133.742      -24.039       15.286       31.817       12.751      233.647     1012.323      162.590        1.005        0.070      134.594       11.769        0.008      328.335       -5.626      865.099
01/03/2015  04:14:00       20.806      140.954      -21.441       19.370       26.741       15.359      375.211      715.067      235.913        1.104        0.066      142.481       13.177        0.009      328.268       -5.734      865.100
01/03/2015  04:15:00       38.136       58.980       -6.974       21.158       41.491       19.336      447.671     1721.493      373.869        0.376        0.127       70.236       19.878        0.080      328.272       -5.729      865.101
01/03/2015  04:16:00      100.151       54.576        4.884       28.289       18.170       13.437      800.264      330.138      180.553        0.717        0.066      114.056       11.215        0.010      328.364       -5.581      865.102
01/03/2015  04:17:00       93.068       38.637       15.085       26.064       24.734       22.733      679.341      611.767      516.788        0.609        0.090      100.769       16.520        0.027      328.369       -5.571      865.105
01/03/2015  04:18:00       90.122       52.621       11.363       22.103       20.497       15.943      488.523      420.144      254.195        0.609        0.058      104.360       11.729        0.013      328.261       -5.747      865.099
01/03/2015  04:19:00      100.576       58.269        2.177       23.775       20.218       20.958      565.232      408.774      439.239        0.746        0.071      116.236       10.616        0.008      328.249       -5.766      865.099
01/03/2015  04:20:00       74.079       38.277       -0.043       22.019       20.024       17.781      484.825      400.966      316.157        0.408        0.060       83.383       10.642        0.016      328.228       -5.802      865.117
01/03/2015  04:21:00       84.542       60.341        4.367       25.968       17.629       15.163      674.352      310.774      229.908        0.601        0.061      103.867       10.625        0.010      328.291       -5.699      865.133
01/03/2015  04:22:00       89.204       51.584        6.899       22.476       17.807       14.195      505.166      317.100      201.496        0.584        0.051      103.046        9.878        0.009      328.335       -5.627      865.146
01/03/2015  04:23:00       63.861       35.192       11.460       23.266       16.745       17.804      541.292      280.399      316.984        0.329        0.057       72.916       12.297        0.028      328.384       -5.548      865.152
01/03/2015  04:24:00       62.213       21.087       11.585       26.243       25.500       18.714      688.702      650.264      350.203        0.307        0.084       65.689       15.239        0.054      328.394       -5.531      865.139
01/03/2015  04:25:00       86.279       52.392       20.004       17.259       16.283       16.623      297.876      265.150      276.313        0.571        0.042      100.941        9.953        0.010      328.455       -5.431      865.116
01/03/2015  04:26:00       86.234       44.246       20.496       22.659       16.704       20.235      513.420      279.015      409.447        0.551        0.060       96.923       12.194        0.016      328.407       -5.510      865.112
01/03/2015  04:27:00      102.308       49.539       24.583       33.109       24.025       25.416     1096.208      577.194      645.949        0.792        0.116      113.671       18.509        0.027      328.373       -5.565      865.106
01/03/2015  04:28:00      102.993       54.191       25.153       28.925       18.704       23.617      836.683      349.834      557.745        0.796        0.087      116.380       13.021        0.013      328.371       -5.569      865.103
01/03/2015  04:29:00       71.551       50.983       18.850       25.739       25.631       21.813      662.504      656.958      475.799        0.493        0.090       87.856       11.287        0.017      328.332       -5.632      865.106
01/03/2015  04:30:00       56.314       38.318       21.837       25.350       12.384       13.671      642.641      153.356      186.883        0.305        0.049       68.114        9.778        0.021      328.331       -5.633      865.096
01/03/2015  04:31:00       13.420        3.123       30.960       19.200       27.135       13.648      368.655      736.324      186.271        0.122        0.065       13.779       11.963        0.754      328.359       -5.586      865.078
01/03/2015  04:32:00       34.638       -4.966       28.501       27.677       34.522       20.518      766.006     1191.782      420.994        0.221        0.119       34.992       14.314        0.167      328.463       -5.418      865.070
01/03/2015  04:33:00       46.918       43.221        7.438       19.494       19.843       19.292      380.033      393.745      372.168        0.264        0.057       63.792       10.976        0.030      328.298       -5.686      865.077
01/03/2015  04:34:00       38.565       28.721        9.527       30.524       27.209       16.070      931.715      740.340      258.241        0.217        0.097       48.085       13.012        0.073      328.292       -5.697      865.095
01/03/2015  04:35:00       44.770       36.883        3.250       39.588       26.814       22.535     1567.205      718.993      507.838        0.308        0.140       58.006       11.908        0.042      328.222       -5.810      865.111
01/03/2015  04:36:00       49.282       62.043       -3.618       30.668       29.809       27.515      940.506      888.556      757.051        0.444        0.129       79.234       20.469        0.067      328.193       -5.860      865.132
01/03/2015  04:37:00       40.930       65.538       -1.901       33.124       48.399       33.423     1097.180     2342.489     1117.114        0.526        0.228       77.269       33.922        0.193      328.166       -5.903      865.131
01/03/2015  04:38:00       42.917       55.380       -6.735       39.279       32.960       30.094     1542.816     1086.336      905.666        0.424        0.177       70.063       24.953        0.127      328.156       -5.919      865.137
01/03/2015  04:39:00       30.323       77.906       -1.220       22.242       47.280       30.284      494.699     2235.403      917.119        0.532        0.182       83.599       26.650        0.102      328.179       -5.882      865.147
01/03/2015  04:40:00       32.775       78.888       -9.100       25.038       42.057       24.268      626.914     1768.809      588.957        0.518        0.149       85.426       22.310        0.068      328.177       -5.885      865.165
01/03/2015  04:41:00        8.978      103.238      -16.495       14.460       24.890       13.546      209.094      619.494      183.489        0.601        0.051      103.628       10.641        0.011      328.205       -5.840      865.192
01/03/2015  04:42:00       10.004      132.922      -23.604       17.395       19.490       10.452      302.580      379.856      109.243        0.956        0.040      133.298        8.818        0.004      328.254       -5.758      865.205
01/03/2015  04:43:00       18.446      136.505      -22.256       16.765       19.376       15.749      281.080      375.422      248.026        1.019        0.045      137.746        6.153        0.002      328.327       -5.642      865.202
01/03/2015  04:44:00       21.017      134.519      -21.530       18.116       26.428       12.154      328.200      698.460      147.727        1.009        0.059      136.151       10.804        0.006      328.371       -5.568      865.196
01/03/2015  04:45:00       12.842      130.085      -21.551       17.318       18.458       10.410      299.922      340.700      108.362        0.915        0.037      130.717        7.110        0.003      328.397       -5.526      865.195
01/03/2015  04:46:00        3.288      117.032      -19.202       13.354       22.547        9.320      178.334      508.374       86.868        0.742        0.039      117.078        8.617        0.005      328.502       -5.353      865.192
01/03/2015  04:47:00       -5.998       89.774       -9.037       25.396       23.544       16.184      644.965      554.318      261.937        0.482        0.073       89.975        7.602        0.007      328.481       -5.388      865.187
01/03/2015  04:48:00      -24.593       33.964       -4.548       35.098       28.480       12.771     1231.861      811.093      163.103        0.199        0.110       41.933       11.689        0.078      328.406       -5.512      865.192
01/03/2015  04:49:00      -37.985       19.829       -6.049       21.505       17.885       11.767      462.446      319.858      138.461        0.140        0.046       42.849       13.248        0.096      328.471       -5.406      865.201
01/03/2015  04:50:00      -52.510        2.194       -9.253       15.684       13.320        8.956      245.973      177.417       80.206        0.168        0.025       52.556        6.983        0.018      328.490       -5.374      865.208
01/03/2015  04:51:00      -69.753      -17.014      -10.716       16.336       14.996       10.600      266.868      224.874      112.353        0.294        0.030       71.798        9.275        0.017      328.347       -5.609      865.221
01/03/2015  04:52:00     -108.931      -27.044       -8.724       19.495       13.216       12.375      380.070      174.659      153.140        0.669        0.035      112.238        9.878        0.008      328.349       -5.603      865.226
01/03/2015  04:53:00      -86.370      -22.416       -7.011       21.603       18.993       14.173      466.700      360.717      200.870        0.452        0.051       89.231       11.636        0.017      328.289       -5.702      865.223
01/03/2015  04:54:00      -88.442      -28.488       -4.800       19.633       18.886       10.667      385.458      356.666      113.791        0.476        0.043       92.917        8.611        0.009      328.293       -5.695      865.208
01/03/2015  04:55:00      -85.854      -44.867       -4.399       19.014       17.654       13.118      361.517      311.650      172.092        0.512        0.042       96.871        6.962        0.005      328.385       -5.545      865.186
01/03/2015  04:56:00     -114.613      -34.239       -2.327       19.182       16.611       11.799      367.942      275.939      139.218        0.755        0.039      119.618        8.470        0.005      328.416       -5.495      865.183
01/03/2015  04:57:00     -103.136      -18.549       -5.765       28.100       25.461       14.679      789.614      648.256      215.474        0.633        0.083      104.790       14.732        0.020      328.412       -5.502      865.199
01/03/2015  04:58:00     -103.629      -30.848       -7.208       24.823       20.224       16.326      616.177      409.030      266.553        0.652        0.065      108.123       14.197        0.017      328.416       -5.495      865.215
01/03/2015  04:59:00     -104.369      -39.308       -1.140       24.510       21.833       14.694      600.718      476.670      215.912        0.687        0.065      111.526       13.491        0.015      328.370       -5.570      865.217
01/03/2015  05:00:00      -89.695      -26.397       -0.791       26.466       24.575       14.166      700.454      603.934      200.670        0.512        0.075       93.499       10.983        0.014      328.404       -5.515      865.210
01/03/2015  05:01:00      -35.542       -5.091       -0.156       24.901       13.069        9.867      620.062      170.792       97.365        0.109        0.044       35.905        9.480        0.070      328.361       -5.584      865.209
01/03/2015  05:02:00      -52.282        0.865       -3.889        8.093        9.812        6.358       65.492       96.275       40.424        0.148        0.010       52.289        4.745        0.008      328.426       -5.479      865.209
01/03/2015  05:03:00      -60.804        6.065      -10.785        9.262       12.920        7.240       85.776      166.933       52.422        0.208        0.015       61.106        4.627        0.006      328.346       -5.610      865.201
01/03/2015  05:04:00      -94.478       -7.331      -10.115       25.569       15.213       11.452      653.793      231.426      131.149        0.505        0.051       94.762        8.369        0.008      328.522       -5.321      865.198
01/03/2015  05:05:00     -111.158       -3.781       -8.525       37.059       24.082       22.050     1373.361      579.951      486.195        0.744        0.122      111.222       24.195        0.047      328.469       -5.409      865.203
01/03/2015  05:06:00      -95.065        2.582      -12.772       25.014       18.450       10.884      625.716      340.405      118.467        0.515        0.054       95.100       12.121        0.016      328.409       -5.506      865.210
01/03/2015  05:07:00      -95.752      -22.408       -9.605       20.864       18.569       11.507      435.291      344.811      132.407        0.534        0.046       98.339        8.523        0.008      328.362       -5.584      865.218
01/03/2015  05:08:00     -120.030      -37.817       -9.692       17.066       24.081       13.552      291.257      579.911      183.655        0.849        0.053      125.847       11.727        0.009      328.306       -5.674      865.217
01/03/2015  05:09:00      -99.681      -21.712       -6.241       30.798       22.278       16.005      948.538      496.325      256.155        0.607        0.085      102.018       16.430        0.026      328.267       -5.739      865.216
01/03/2015  05:10:00     -124.835      -39.272       -6.265       22.705       30.201       13.697      515.508      912.125      187.610        0.939        0.081      130.867        9.737        0.006      328.223       -5.810      865.219
01/03/2015  05:11:00     -126.756      -25.895      -14.010       26.696       19.923       17.499      712.694      396.933      306.199        0.917        0.071      129.374       14.819        0.013      328.144       -5.938      865.215
01/03/2015  05:12:00     -113.668      -26.104       -4.070       31.085       23.246       19.163      966.258      540.382      367.211        0.775        0.094      116.627       17.674        0.023      328.153       -5.924      865.199
01/03/2015  05:13:00     -119.525      -38.315       -2.699       24.818       26.208       14.081      615.943      686.846      198.287        0.863        0.075      125.516       11.098        0.008      328.192       -5.860      865.177
01/03/2015  05:14:00     -108.263      -17.852      -11.685       22.976       21.187       17.047      527.903      448.880      290.611        0.672        0.063      109.725       10.625        0.009      328.154       -5.922      865.158
01/03/2015  05:15:00     -108.312      -37.321       -5.323       28.844       22.791       15.276      831.975      519.411      233.354        0.737        0.079      114.562       10.897        0.009      328.183       -5.875      865.146
01/03/2015  05:16:00     -121.962      -47.455       -3.375       25.677       22.800       14.149      659.325      519.850      200.181        0.926        0.069      130.869       10.782        0.007      328.277       -5.720      865.138
01/03/2015  05:17:00     -109.436      -50.904       -1.361       46.010       30.878       20.959     2116.875      953.449      439.269        0.904        0.175      120.696       22.571        0.035      328.295       -5.693      865.123
01/03/2015  05:18:00      -88.582      -27.749       -0.758       34.665       24.349       22.043     1201.667      592.850      485.875        0.545        0.114       92.827       18.511        0.040      328.292       -5.697      865.113
01/03/2015  05:19:00     -132.963      -39.235       -8.348       31.139       31.379       17.740      969.610      984.632      314.706        1.078        0.113      138.630       14.476        0.011      328.316       -5.658      865.118
01/03/2015  05:20:00     -129.343      -27.550      -12.238       31.132       24.489       17.205      969.191      599.731      296.013        0.975        0.093      132.244       15.442        0.014      328.165       -5.905      865.123
01/03/2015  05:21:00      -98.464      -24.090        3.582       29.326       22.409       16.967      860.033      502.159      287.893        0.597        0.083      101.368       17.137        0.029      328.114       -5.986      865.119
01/03/2015  05:22:00     -121.557      -27.419       -5.610       33.923       20.260       19.221     1150.744      410.481      369.459        0.874        0.097      124.611       18.456        0.022      328.146       -5.935      865.119
01/03/2015  05:23:00     -148.695      -38.266      -10.470       20.783       15.101       15.789      431.946      228.027      249.293        1.230        0.045      153.540        9.447        0.004      328.144       -5.938      865.124
01/03/2015  05:24:00     -116.269      -35.365       -5.008       32.634       26.339       18.091     1064.960      693.720      327.269        0.844        0.104      121.529       15.602        0.016      328.095       -6.019      865.120
01/03/2015  05:25:00     -132.781        1.926       -9.715       43.324       17.165       23.002     1876.961      294.624      529.111        1.021        0.135      132.795       23.808        0.032      328.102       -6.006      865.109
01/03/2015  05:26:00     -127.838       -9.253      -10.224       25.537       18.936       18.158      652.162      358.585      329.724        0.894        0.067      128.172       14.863        0.013      328.139       -5.948      865.104
01/03/2015  05:27:00     -116.098      -19.323       -7.800       41.380       24.426       24.968     1712.338      596.643      623.390        0.842        0.147      117.695       28.380        0.058      328.168       -5.900      865.099
01/03/2015  05:28:00      -91.059      -15.944       -6.768       33.707       22.709       22.068     1136.139      515.687      486.979        0.536        0.107       92.445       20.698        0.050      328.172       -5.893      865.087
01/03/2015  05:29:00      -98.855      -36.657       -4.714       35.682       24.426       19.050     1273.208      596.622      362.915        0.669        0.112      105.432       19.234        0.033      328.245       -5.774      865.074
01/03/2015  05:30:00      -99.886      -46.373       -8.512       39.897       23.167       23.493     1591.774      536.707      551.930        0.744        0.134      110.126       26.047        0.056      328.241       -5.779      865.074
01/03/2015  05:31:00     -117.753      -11.357       -9.049       41.787       26.601       18.809     1746.142      707.615      353.779        0.844        0.140      118.300       21.765        0.034      328.295       -5.693      865.085
01/03/2015  05:32:00     -116.824       -8.204       -9.467       38.819       20.981       12.973     1506.911      440.223      168.310        0.796        0.106      117.112       15.566        0.018      328.264       -5.743      865.092
01/03/2015  05:33:00     -105.947      -20.266      -11.473       24.124       19.918       20.125      581.949      396.742      405.029        0.658        0.069      107.868       14.136        0.017      328.283       -5.711      865.103
01/03/2015  05:34:00     -109.630      -13.137      -19.018       17.369       19.488       11.371      301.681      379.800      129.308        0.668        0.041      110.414        8.286        0.006      328.275       -5.725      865.126
01/03/2015  05:35:00      -86.823       -3.864       -8.994       28.879       18.907       17.313      833.975      357.479      299.731        0.456        0.075       86.909       16.886        0.038      328.261       -5.748      865.138
01/03/2015  05:36:00     -112.360      -18.212      -10.573       20.723       22.091       14.491      429.442      488.004      210.003        0.710        0.056      113.827       12.810        0.013      328.275       -5.723      865.144
01/03/2015  05:37:00     -106.937      -28.994       -4.071       38.923       26.142       19.140     1514.983      683.409      366.322        0.743        0.128      110.798       19.327        0.030      328.266       -5.739      865.155
01/03/2015  05:38:00     -135.438      -17.032       -6.991       26.215       27.371       15.940      687.210      749.169      254.092        1.019        0.085      136.505       15.118        0.012      328.281       -5.715      865.172
01/03/2015  05:39:00     -112.109      -29.958       -6.624       33.780       26.348       22.492     1141.058      694.210      505.872        0.793        0.117      116.043       22.319        0.037      328.227       -5.802      865.181
01/03/2015  05:40:00     -113.750      -29.652       -2.188       33.782       24.264       21.871     1141.253      588.723      478.355        0.802        0.110      117.551       19.561        0.028      328.249       -5.767      865.197
01/03/2015  05:41:00     -115.510      -21.835       -2.683       37.567       23.529       18.755     1411.269      553.607      351.759        0.807        0.116      117.556       18.692        0.025      328.291       -5.698      865.211
01/03/2015  05:42:00     -103.027      -12.953       -8.063       42.466       28.787       17.138     1803.361      828.666      293.708        0.689        0.146      103.838       18.314        0.031      328.281       -5.715      865.223
01/03/2015  05:43:00      -96.217       -2.990       -4.374       35.607       32.511       20.179     1267.825     1056.935      407.186        0.601        0.137       96.264       19.301        0.040      328.375       -5.562      865.230
01/03/2015  05:44:00      -96.706        2.584      -10.119       34.017       25.911       17.394     1157.183      671.386      302.534        0.580        0.107       96.740       13.058        0.018      328.390       -5.537      865.229
01/03/2015  05:45:00      -98.214      -11.091       -9.261       36.045       23.123       18.783     1299.252      534.693      352.797        0.602        0.109       98.839       20.173        0.042      328.408       -5.508      865.218
01/03/2015  05:46:00      -98.620      -33.595       -3.265       25.947       20.885       15.113      673.265      436.193      228.404        0.610        0.067      104.185       10.747        0.011      328.417       -5.494      865.198
01/03/2015  05:47:00      -96.455      -51.700      -13.097       16.836       18.218       12.192      283.461      331.907      148.633        0.646        0.038      109.437        4.814        0.002      328.420       -5.489      865.177
01/03/2015  05:48:00     -103.997      -17.691       -5.789       23.085       18.339       13.869      532.901      336.305      192.363        0.611        0.053      105.491       11.459        0.012      328.414       -5.500      865.158
01/03/2015  05:49:00      -85.809      -23.657       -2.761       20.223       18.150       13.877      408.967      329.414      192.564        0.443        0.047       89.010       12.521        0.020      328.417       -5.494      865.142
01/03/2015  05:50:00     -106.941      -24.053       -9.777       19.260       16.925       11.248      370.947      286.440      126.513        0.645        0.039      109.612       10.286        0.009      328.416       -5.495      865.131
01/03/2015  05:51:00     -121.186      -40.897       -9.564       10.465       11.792        8.823      109.517      139.053       77.852        0.839        0.016      127.901        2.877        0.001      328.410       -5.505      865.125
01/03/2015  05:52:00      -86.905      -31.835       -0.002       24.750       18.425       12.623      612.561      339.484      159.349        0.484        0.056       92.553       12.694        0.019      328.451       -5.437      865.114
01/03/2015  05:53:00      -97.765      -37.065       -5.449       18.683       18.634       11.764      349.044      347.240      138.397        0.590        0.042      104.555        6.860        0.004      328.485       -5.382      865.094
01/03/2015  05:54:00     -108.055      -39.771       -5.998       10.645       15.579        8.911      113.316      242.696       79.408        0.686        0.022      115.142        7.092        0.004      328.482       -5.388      865.076
01/03/2015  05:55:00      -96.734      -34.031       -2.415       19.501       18.501        9.977      380.282      342.284       99.547        0.567        0.041      102.546        7.949        0.006      328.485       -5.383      865.062
01/03/2015  05:56:00      -99.184      -33.278        2.407       23.648       16.180       13.307      559.226      261.801      177.088        0.597        0.050      104.618       11.126        0.011      328.460       -5.423      865.045
01/03/2015  05:57:00     -116.664      -53.369       -5.712       18.759       16.182       12.880      351.914      261.843      165.898        0.864        0.039      128.292        4.735        0.001      328.462       -5.421      865.035
01/03/2015  05:58:00      -90.638      -47.309        2.644       35.272       20.309       17.082     1244.105      412.467      291.788        0.620        0.097      102.242       18.653        0.033      328.441       -5.455      865.025
01/03/2015  05:59:00      -66.895      -40.369        2.261       32.018       20.185       19.443     1025.132      407.415      378.022        0.396        0.091       78.132       15.191        0.038      328.386       -5.543      865.022
01/03/2015  06:00:00      -90.220      -46.583       -0.846       27.211       19.744       13.292      740.452      389.832      176.684        0.581        0.065      101.537        7.828        0.006      328.344       -5.612      865.024
01/03/2015  06:01:00      -72.194      -41.227       -0.824       34.240       19.852       16.854     1172.377      394.106      284.047        0.438        0.093       83.137       14.837        0.032      328.275       -5.725      865.044
01/03/2015  06:02:00      -43.858      -42.537        5.988       33.502       28.917       19.585     1122.360      836.176      383.573        0.305        0.117       61.098       15.790        0.067      328.407       -5.510      865.080
01/03/2015  06:03:00      -24.794      -20.581        3.466       24.885       18.866       15.719      619.240      355.927      247.087        0.114        0.061       32.223       13.140        0.166      328.411       -5.502      865.132
01/03/2015  06:04:00      -47.111      -10.439       -0.294       35.610       21.247       13.173     1268.080      451.430      173.527        0.211        0.095       48.254       10.957        0.052      328.298       -5.687      865.194
01/03/2015  06:05:00      -87.247      -10.196       -6.453       25.020       17.909       12.500      626.011      320.720      156.240        0.443        0.055       87.841       13.672        0.024      328.246       -5.771      865.246
01/03/2015  06:06:00      -68.006      -12.633       -3.036       32.173       18.698       15.723     1035.121      349.604      247.220        0.321        0.082       69.169       18.970        0.075      328.209       -5.832      865.277
01/03/2015  06:07:00      -57.914      -27.479       -0.234       23.238       17.054       10.900      540.001      290.838      118.818        0.253        0.047       64.103        9.536        0.022      328.258       -5.751      865.298
01/03/2015  06:08:00      -45.565      -17.563        2.084       30.206       19.999       18.051      912.417      399.980      325.842        0.201        0.082       48.833       18.874        0.149      328.239       -5.783      865.299
01/03/2015  06:09:00      -73.921      -31.084        0.760       34.131       18.239       11.431     1164.942      332.669      130.662        0.403        0.081       80.191       12.405        0.024      328.317       -5.656      865.292
01/03/2015  06:10:00      -75.536      -37.347       -0.794       35.147       18.869       14.604     1235.285      356.047      213.272        0.445        0.090       84.265       12.967        0.024      328.269       -5.734      865.289
01/03/2015  06:11:00      -61.222      -26.550       -5.291       25.577       19.225       12.697      654.207      369.620      161.212        0.283        0.059       66.731        8.592        0.017      328.247       -5.771      865.295
01/03/2015  06:12:00      -38.878      -14.439        1.129       23.037       13.438        8.534      530.709      180.583       72.832        0.125        0.039       41.473       10.905        0.069      328.259       -5.749      865.299
01/03/2015  06:13:00      -14.386        0.023        2.762       11.382        6.003        6.155      129.543       36.039       37.886        0.021        0.010       14.386        3.277        0.052      328.281       -5.713      865.317
01/03/2015  06:14:00       -0.083       -2.597        1.192        5.930        4.537        4.392       35.165       20.581       19.287        0.004        0.004        2.598        2.915        1.258      328.253       -5.758      865.331
01/03/2015  06:15:00       11.237       13.679        1.862        8.349        8.569        5.792       69.710       73.435       33.543        0.025        0.009       17.702        4.002        0.051      328.332       -5.632      865.342
01/03/2015  06:16:00       10.663       25.457       -7.000        7.588        8.566        7.717       57.580       73.370       59.546        0.050        0.010       27.599        5.579        0.041      328.243       -5.776      865.352
01/03/2015  06:17:00        5.340       23.454       -9.775        7.121        8.545        5.324       50.702       73.017       28.342        0.041        0.008       24.054        4.325        0.032      328.308       -5.672      865.357
01/03/2015  06:18:00       21.419       30.922        6.272       13.730       11.327       10.431      188.522      128.298      108.796        0.094        0.021       37.616        9.312        0.061      328.244       -5.776      865.363
01/03/2015  06:19:00       53.894       36.328        2.493        6.125        5.859        8.847       37.515       34.324       78.278        0.219        0.008       64.994        5.204        0.006      328.231       -5.795      865.375
01/03/2015  06:20:00       33.340       16.141       -2.553       18.910       20.582       15.144      357.578      423.610      229.345        0.119        0.051       37.042       13.035        0.124      328.190       -5.865      865.399
01/03/2015  06:21:00       41.996       29.207        7.192       15.810       11.807       13.586      249.941      139.404      184.573        0.162        0.029       51.154       11.293        0.049      328.168       -5.900      865.407
01/03/2015  06:22:00       43.772       24.316        4.136       11.737       10.748        9.889      137.749      115.512       97.789        0.144        0.018       50.073        6.574        0.017      328.190       -5.863      865.391
01/03/2015  06:23:00       55.241       30.135       18.065       18.762       12.766       19.628      352.029      162.973      385.244        0.259        0.045       62.925       11.779        0.035      328.229       -5.800      865.375
01/03/2015  06:24:00       68.082       47.466       20.176       22.609       16.370       22.837      511.172      267.982      521.525        0.430        0.065       82.995       13.564        0.027      328.123       -5.972      865.363
01/03/2015  06:25:00      102.856       54.225        5.942       20.776       15.169       14.904      431.639      230.085      222.119        0.722        0.044      116.274        8.928        0.006      328.031       -6.122      865.354
01/03/2015  06:26:00       96.761       60.816        0.008       19.203       24.535       16.696      368.739      601.944      278.759        0.716        0.062      114.286       11.893        0.011      327.993       -6.186      865.352
01/03/2015  06:27:00       59.257       42.804       -0.099       26.162       26.224       18.559      684.474      687.681      344.448        0.353        0.086       73.099       17.921        0.060      327.939       -6.272      865.353
01/03/2015  06:28:00       47.955       42.916       14.851       19.211       16.654       20.637      369.057      277.347      425.893        0.272        0.054       64.354       10.476        0.027      327.909       -6.322      865.375
01/03/2015  06:29:00       58.798       43.953       11.440       11.647        8.420       10.725      135.664       70.895      115.029        0.292        0.016       73.410        5.143        0.005      327.971       -6.221      865.399
01/03/2015  06:30:00       65.184       46.338       15.317        9.050       10.761        9.418       81.904      115.792       88.697        0.346        0.014       79.976        4.497        0.003      328.055       -6.082      865.413
01/03/2015  06:31:00       45.111       25.092        2.213       15.394       14.971       11.434      236.976      224.142      130.727        0.163        0.030       51.619        9.058        0.031      328.064       -6.067      865.427
01/03/2015  06:32:00       43.219        9.613        2.731       18.716       15.173       12.721      350.295      230.205      161.814        0.135        0.037       44.275        7.676        0.030      328.076       -6.047      865.429
01/03/2015  06:33:00       23.829        9.452        1.007       10.505        8.169        8.598      110.359       66.734       73.929        0.045        0.013       25.635        6.067        0.056      328.102       -6.008      865.435
01/03/2015  06:34:00        7.226        8.859       -2.163        6.447        4.815        2.867       41.569       23.189        8.222        0.010        0.004       11.432        2.863        0.063      328.173       -5.893      865.458
01/03/2015  06:35:00      -21.607        4.755       -5.356       10.254        4.932        7.713      105.140       24.328       59.491        0.035        0.009       22.124        6.514        0.087      328.071       -6.058      865.485
01/03/2015  06:36:00       -1.429        2.728       -3.981       12.489        3.658        5.801      155.986       13.381       33.654        0.011        0.010        3.080        7.041        5.227      328.149       -5.931      865.497
01/03/2015  06:37:00       17.304       26.108       -4.150       13.376        8.335        9.614      178.908       69.474       92.420        0.067        0.017       31.322        9.400        0.090      328.246       -5.773      865.508
01/03/2015  06:38:00        8.280       29.342       -2.618        6.926        6.056        4.106       47.971       36.672       16.861        0.052        0.005       30.487        3.242        0.011      328.322       -5.650      865.511
01/03/2015  06:39:00        2.775        7.684       -1.956        5.905       10.790        2.884       34.866      116.427        8.315        0.012        0.008        8.170        2.857        0.122      328.309       -5.670      865.514
01/03/2015  06:40:00      -23.210      -15.880       -3.245       16.817        7.257        5.388      282.826       52.658       29.027        0.058        0.018       28.123        7.714        0.075      328.244       -5.777      865.524
01/03/2015  06:41:00      -27.681       -7.359       -8.063       13.044        6.031        6.980      170.141       36.374       48.716        0.057        0.013       28.642        6.241        0.047      328.139       -5.948      865.531
01/03/2015  06:42:00       -6.686       -9.701       -2.588        8.876        6.273        5.844       78.781       39.354       34.154        0.015        0.008       11.782        5.534        0.221      328.264       -5.741      865.537
01/03/2015  06:43:00        1.538       -8.192        5.772        7.265       10.551        7.863       52.773      111.324       61.832        0.016        0.011        8.335        5.776        0.480      328.298       -5.688      865.540
01/03/2015  06:44:00       14.078        5.566        3.068        5.637        6.150        4.473       31.781       37.822       20.009        0.016        0.004       15.138        2.736        0.033      328.302       -5.681      865.551
01/03/2015  06:45:00       26.910       10.773        2.529        8.496        5.667        5.146       72.186       32.118       26.480        0.049        0.007       28.986        3.330        0.013      328.335       -5.627      865.568
01/03/2015  06:46:00       41.239       21.179        4.463       10.208        7.703        7.434      104.198       59.338       55.271        0.119        0.011       46.360        6.197        0.018      328.361       -5.585      865.594
01/03/2015  06:47:00       43.768       17.707        6.000        9.270        9.509        7.366       85.929       90.420       54.252        0.125        0.012       47.214        4.007        0.007      328.304       -5.677      865.633
01/03/2015  06:48:00       77.280       35.221        6.576       16.579       13.303       12.567      274.869      176.967      157.929        0.393        0.030       84.928        9.143        0.012      328.245       -5.772      865.661
01/03/2015  06:49:00      126.378       57.866       17.338       23.584       20.468       15.374      556.211      418.921      236.346        1.042        0.061      138.996        5.934        0.002      328.139       -5.946      865.668
01/03/2015  06:50:00      126.303       72.337       22.601       22.208       23.340       23.737      493.196      544.762      563.434        1.165        0.080      145.551       15.511        0.011      328.103       -6.006      865.679
01/03/2015  06:51:00       88.653       51.680       37.428       37.846       36.460       30.240     1432.288     1329.357      914.465        0.780        0.184      102.617       18.191        0.031      328.064       -6.068      865.711
01/03/2015  06:52:00       82.773       41.711       33.603       43.187       32.103       29.507     1865.116     1030.609      870.678        0.674        0.188       92.689       22.598        0.059      328.101       -6.008      865.731
01/03/2015  06:53:00       84.416       58.479       54.049       45.671       38.760       32.711     2085.807     1502.337     1069.994        0.906        0.233      102.693       22.481        0.048      328.032       -6.121      865.737
01/03/2015  06:54:00       72.033       54.466       38.170       29.167       26.673       26.484      850.732      711.445      701.427        0.594        0.113       90.307       18.679        0.043      327.995       -6.181      865.744
01/03/2015  06:55:00       41.337       18.365       39.402       31.346       24.784       17.871      982.575      614.251      319.381        0.276        0.096       45.233       14.902        0.109      327.955       -6.246      865.764
01/03/2015  06:56:00       68.915        0.116       13.902       24.003       17.093       24.905      576.158      292.167      620.248        0.322        0.074       68.915        7.143        0.011      328.023       -6.135      865.776
01/03/2015  06:57:00       45.413        4.531       24.162       34.809       35.174       25.027     1211.678     1237.221      626.354        0.287        0.154       45.639       28.286        0.384      328.036       -6.112      865.797
01/03/2015  06:58:00       14.419       49.236       60.629       28.450       30.394       29.338      809.388      923.805      860.726        0.445        0.130       51.304       23.532        0.210      328.113       -5.989      865.829
01/03/2015  06:59:00       16.974       48.721       61.754       22.762       26.036       14.454      518.092      677.891      208.928        0.394        0.070       51.593       14.101        0.075      328.132       -5.958      865.868
01/03/2015  07:00:00       12.662       21.354       36.194       14.879       20.159       13.771      221.398      406.402      189.630        0.137        0.041       24.826       15.051        0.368      328.058       -6.078      865.905
01/03/2015  07:01:00       10.294       25.734       36.317       14.775       18.137       11.373      218.298      328.959      129.353        0.138        0.034       27.716        7.971        0.083      328.068       -6.061      865.936
01/03/2015  07:02:00       33.026       25.881       27.489       34.540       19.495       16.563     1192.985      380.056      274.327        0.218        0.092       41.959       12.664        0.091      328.116       -5.985      865.965
01/03/2015  07:03:00       63.727       18.586       25.649       41.105       25.339       28.106     1689.595      642.055      789.926        0.409        0.156       66.382       24.145        0.132      328.197       -5.853      865.992
01/03/2015  07:04:00       45.027       20.552        4.481       11.302       11.705       11.196      127.736      137.011      125.340        0.143        0.020       49.495        6.633        0.018      328.152       -5.926      865.996
01/03/2015  07:05:00       41.400       19.018       13.182       11.946       11.259       11.952      142.713      126.770      142.855        0.133        0.021       45.559        7.941        0.030      328.134       -5.955      866.000
01/03/2015  07:06:00       44.326       14.363        2.667       19.607       13.894       10.008      384.443      193.044      100.163        0.143        0.034       46.595        8.755        0.035      328.349       -5.604      866.002
01/03/2015  07:07:00       26.269       19.263        6.925       10.956        7.881       12.937      120.038       62.115      167.376        0.073        0.017       32.575        9.450        0.084      328.333       -5.629      865.996
01/03/2015  07:08:00        3.291       13.460        2.056        6.976        5.599        8.916       48.671       31.351       79.501        0.018        0.008       13.857        2.046        0.022      328.379       -5.557      865.996
01/03/2015  07:09:00       17.284       26.182        0.683        5.862        7.861        3.526       34.361       61.796       12.433        0.055        0.005       31.372        2.847        0.008      328.465       -5.414      866.002
01/03/2015  07:10:00       45.742       36.970       -0.288       14.912       12.040       11.747      222.375      144.963      137.994        0.198        0.025       58.814        5.237        0.008      328.401       -5.520      865.991
01/03/2015  07:11:00       49.013       21.505        1.408       13.521       13.239       11.489      182.813      175.277      131.995        0.168        0.025       53.523        7.258        0.018      328.350       -5.601      865.985
01/03/2015  07:12:00       38.275       18.657       -1.927       12.225       13.595        8.789      149.451      184.823       77.250        0.111        0.021       42.580        6.925        0.026      328.398       -5.525      865.985
01/03/2015  07:13:00       13.516       14.840       -1.377       10.780       18.612        8.092      116.205      346.411       65.481        0.047        0.026       20.072        8.202        0.167      328.370       -5.571      865.991
01/03/2015  07:14:00       12.040       29.405       -9.205        8.323        5.917        3.541       69.264       35.015       12.537        0.061        0.006       31.775        2.840        0.008      328.399       -5.523      865.989
01/03/2015  07:15:00       12.279       16.619        3.603        6.922        9.203        6.703       47.914       84.696       44.937        0.031        0.009       20.663        3.509        0.029      328.340       -5.618      865.975
01/03/2015  07:16:00       -2.301       21.952       -4.892        9.349       10.206        3.878       87.407      104.160       15.038        0.036        0.010       22.073        4.875        0.049      328.391       -5.536      865.980
01/03/2015  07:17:00      -11.394        3.805       -2.836        9.768        5.552        6.150       95.418       30.830       37.817        0.016        0.008       12.013        4.151        0.119      328.299       -5.686      865.980
01/03/2015  07:18:00      -36.511        1.707       -5.701       12.050        5.300        5.342      145.198       28.088       28.535        0.079        0.010       36.551        3.616        0.010      328.075       -6.050      865.987
01/03/2015  07:19:00      -66.252        2.401       -8.496       12.864        9.928        9.824      165.493       98.562       96.517        0.241        0.018       66.295        7.386        0.012      327.955       -6.245      866.006
01/03/2015  07:20:00      -86.505        3.207       -9.821       24.891       16.657       17.500      619.562      277.439      306.263        0.440        0.060       86.564       12.649        0.021      327.873       -6.379      866.028
01/03/2015  07:21:00      -51.435        2.030      -11.290       24.549       10.576       14.233      602.667      111.859      202.590        0.185        0.046       51.475        9.899        0.037      327.873       -6.378      866.032
01/03/2015  07:22:00      -61.892       10.299       -6.660       19.443       14.794       13.147      378.026      218.863      172.847        0.238        0.038       62.743        8.550        0.019      327.921       -6.302      866.038
01/03/2015  07:23:00      -60.062       -2.182       -9.436       26.916       16.386       11.832      724.495      268.509      140.002        0.242        0.057       60.101       12.773        0.045      327.930       -6.287      866.056
01/03/2015  07:24:00      -63.932      -13.393      -11.620       14.535       10.935        9.628      211.265      119.575       92.702        0.241        0.021       65.319        4.803        0.005      327.964       -6.231      866.064
01/03/2015  07:25:00      -63.477      -13.345       -3.628       19.958       15.482        9.798      398.337      239.701       96.002        0.248        0.037       64.865        6.295        0.009      327.969       -6.224      866.063
01/03/2015  07:26:00      -59.948      -13.435       -9.540       11.245       16.258        8.285      126.454      264.335       68.638        0.216        0.023       61.435        7.744        0.016      328.000       -6.172      866.060
01/03/2015  07:27:00      -49.120        5.544      -11.049        7.639        5.008        6.221       58.354       25.085       38.701        0.134        0.006       49.432        4.916        0.010      328.056       -6.082      866.057
01/03/2015  07:28:00      -43.975        4.562      -11.829       11.116        8.410        7.536      123.575       70.721       56.788        0.117        0.013       44.211        5.799        0.017      328.174       -5.889      866.054
01/03/2015  07:29:00      -41.360        0.767      -13.042       10.033        7.961        4.357      100.656       63.379       18.983        0.103        0.009       41.367        4.108        0.010      328.135       -5.953      866.056
01/03/2015  07:30:00      -66.890       -2.625      -11.234        6.918       11.954        9.005       47.865      142.904       81.087        0.244        0.014       66.942        4.801        0.005      328.157       -5.919      866.069
01/03/2015  07:31:00      -63.383       -4.936      -11.754       11.993        8.915        9.824      143.831       79.485       96.521        0.225        0.016       63.574        7.017        0.012      328.088       -6.028      866.074
01/03/2015  07:32:00      -54.628      -21.819       -9.224        9.870        9.334        7.838       97.410       87.129       61.437        0.190        0.012       58.824        2.748        0.002      328.100       -6.009      866.087
01/03/2015  07:33:00      -66.326      -22.259       -7.712       11.466       16.057       12.151      131.465      257.838      147.658        0.275        0.027       69.962        8.183        0.014      328.061       -6.073      866.098
01/03/2015  07:34:00      -77.354      -40.521      -12.866        9.211        8.903        7.890       84.849       79.272       62.253        0.401        0.011       87.324        2.861        0.001      328.080       -6.041      866.098
01/03/2015  07:35:00      -95.557      -22.130      -18.675       10.426       12.453       10.193      108.701      155.088      103.903        0.517        0.018       98.086        5.312        0.003      328.070       -6.058      866.105
01/03/2015  07:36:00     -115.603      -14.802      -12.710       19.116       12.694       12.438      365.403      161.129      154.711        0.721        0.034      116.547        5.481        0.002      328.141       -5.943      866.115
01/03/2015  07:37:00      -78.763      -30.794       -3.674       16.654       14.172       11.220      277.364      200.838      125.880        0.388        0.030       84.569        8.132        0.009      328.122       -5.974      866.122
01/03/2015  07:38:00      -63.719      -24.440       -2.032       17.768       10.901        9.449      315.715      118.831       89.289        0.259        0.026       68.246        6.974        0.010      328.103       -6.006      866.124
01/03/2015  07:39:00      -76.472      -15.466       -8.925       10.691       12.917        8.815      114.294      166.840       77.696        0.326        0.018       78.020        3.924        0.003      328.149       -5.931      866.118
01/03/2015  07:40:00      -91.077      -15.195      -12.154       12.643       13.825        8.982      159.856      191.126       80.675        0.455        0.022       92.336        4.097        0.002      328.210       -5.831      866.111
01/03/2015  07:41:00      -96.263      -19.389      -10.577       14.129       12.953       12.474      199.621      167.780      155.602        0.514        0.026       98.197        9.572        0.010      328.182       -5.876      866.106
01/03/2015  07:42:00      -84.219      -27.628      -13.555       14.611       16.149        9.188      213.477      260.800       84.417        0.430        0.028       88.635        7.850        0.008      328.186       -5.870      866.111
01/03/2015  07:43:00      -87.085      -25.099      -11.497       15.989       16.341       14.193      255.645      267.025      201.428        0.453        0.036       90.630       10.291        0.013      328.180       -5.880      866.141
01/03/2015  07:44:00     -117.277      -23.881      -14.013       18.771       12.625       15.103      352.343      159.383      228.099        0.763        0.037      119.683        6.729        0.003      328.119       -5.979      866.177
01/03/2015  07:45:00      -92.361      -15.984       -5.993       23.197       24.293       17.843      538.089      590.149      318.376        0.513        0.072       93.734       15.271        0.027      328.139       -5.947      866.197
01/03/2015  07:46:00      -61.092      -24.016       -0.939       13.888       17.882       14.699      192.871      319.773      216.060        0.252        0.036       65.643        7.933        0.015      328.206       -5.836      866.188
01/03/2015  07:47:00      -79.708      -12.232       -6.437       22.607       18.687       10.221      511.058      349.203      104.477        0.375        0.048       80.641        8.164        0.010      328.223       -5.810      866.196
01/03/2015  07:48:00      -78.152       -9.395       -8.596       26.951       19.073       14.107      726.342      363.795      198.996        0.378        0.064       78.714       10.014        0.016      328.198       -5.851      866.202
01/03/2015  07:49:00      -53.463       -4.375       -9.994       14.332       11.415       11.889      205.401      130.307      141.344        0.173        0.024       53.642       10.169        0.036      328.169       -5.899      866.196
01/03/2015  07:50:00      -55.045       -8.535      -11.703       13.172        9.591        9.042      173.503       91.997       81.762        0.179        0.017       55.703        6.877        0.015      328.451       -5.436      866.212
01/03/2015  07:51:00      -41.192      -23.797       -6.668       14.070       10.874        6.111      197.956      118.245       37.347        0.133        0.018       47.572        6.996        0.022      328.587       -5.218      866.234
01/03/2015  07:52:00      -69.944      -18.665      -10.855       16.686       10.571        9.426      278.433      111.744       88.858        0.292        0.024       72.392        3.970        0.003      328.407       -5.509      866.246
01/03/2015  07:53:00      -67.946      -15.156      -11.565       18.540       13.581        9.137      343.732      184.450       83.478        0.280        0.031       69.616        8.533        0.015      328.285       -5.708      866.259
01/03/2015  07:54:00      -44.493      -26.177       -3.094       17.576       13.043        7.418      308.902      170.122       55.024        0.160        0.027       51.623        6.471        0.016      328.540       -5.293      866.262
01/03/2015  07:55:00      -33.113      -26.315       -2.715       13.674        8.318        7.220      186.987       69.188       52.126        0.105        0.015       42.296        3.734        0.008      328.553       -5.272      866.262
01/03/2015  07:56:00      -52.949      -12.648       -2.870       22.234       13.671        9.321      494.338      186.909       86.882        0.187        0.038       54.439        7.860        0.021      328.482       -5.388      866.257
01/03/2015  07:57:00      -52.714      -35.762       -6.876       24.157       14.681       13.856      583.574      215.519      191.992        0.255        0.050       63.700       13.545        0.045      328.505       -5.350      866.258
01/03/2015  07:58:00      -57.920      -33.793       -1.089       34.877       22.780       18.299     1216.426      518.931      334.842        0.328        0.104       67.058       22.350        0.111      328.555       -5.267      866.263
01/03/2015  07:59:00      -87.243      -24.325      -16.153       16.820       13.378        7.561      282.914      178.967       57.171        0.449        0.026       90.571        7.067        0.006      328.486       -5.383      866.275
01/03/2015  08:00:00      -54.413       -5.290       -0.647       19.286       15.976       13.782      371.965      255.221      189.945        0.190        0.041       54.670       12.313        0.051      328.465       -5.414      866.260
01/03/2015  08:01:00      -46.056       -7.898       -6.218       10.366        8.672        9.409      107.459       75.205       88.537        0.125        0.014       46.728        6.051        0.017      328.577       -5.233      866.251
01/03/2015  08:02:00      -47.519       -5.872       -3.151       10.857        8.726        6.973      117.864       76.135       48.625        0.127        0.012       47.880        4.272        0.008      328.652       -5.111      866.257
01/03/2015  08:03:00      -46.568      -14.994       -5.500        8.179        7.170        5.340       66.890       51.407       28.512        0.129        0.007       48.922        3.484        0.005      328.649       -5.114      866.280
01/03/2015  08:04:00      -30.511      -21.310       -9.017        8.322       11.023        6.310       69.263      121.516       39.815        0.085        0.012       37.216        6.013        0.026      328.662       -5.094      866.274
01/03/2015  08:05:00      -49.016       -5.869       -3.294       17.095       10.452        7.494      292.235      109.254       56.157        0.145        0.023       49.366        5.888        0.014      328.714       -5.009      866.268
01/03/2015  08:06:00      -84.019        0.629       -7.578        9.600        9.247        5.786       92.166       85.506       33.478        0.366        0.011       84.021        3.364        0.002      328.642       -5.125      866.272
01/03/2015  08:07:00      -88.002      -13.992       -5.355       29.696       17.223       12.928      881.859      296.639      167.121        0.466        0.067       89.107       14.462        0.026      328.641       -5.127      866.289
01/03/2015  08:08:00      -79.253      -22.700        0.002       34.520       19.518       16.898     1191.664      380.942      285.558        0.433        0.093       82.440       17.190        0.043      328.625       -5.154      866.301
01/03/2015  08:09:00      -46.028      -23.529        5.134       25.424       17.942       12.819      646.373      321.900      164.324        0.192        0.057       51.694       11.009        0.045      328.761       -4.932      866.295
01/03/2015  08:10:00      -30.576       -7.539        0.146       18.287       12.428        9.835      334.430      154.443       96.734        0.079        0.029       31.491        9.497        0.091      328.895       -4.714      866.285
01/03/2015  08:11:00      -64.062      -12.749       -7.532       10.132        9.644        7.201      102.654       93.011       51.861        0.229        0.012       65.318        3.922        0.004      328.956       -4.613      866.302
01/03/2015  08:12:00      -51.722      -13.321       -6.664       10.097        7.032        5.918      101.954       49.444       35.022        0.154        0.009       53.410        0.913        0.000      328.959       -4.610      866.327
01/03/2015  08:13:00      -29.960       -7.805       -3.172       10.098        9.889        6.068      101.979       97.801       36.818        0.060        0.012       30.960        5.849        0.036      328.975       -4.583      866.361
01/03/2015  08:14:00      -27.909       -4.316       -7.822        7.727        6.939        5.374       59.708       48.156       28.878        0.050        0.007       28.241        3.231        0.013      329.025       -4.503      866.382
01/03/2015  08:15:00      -35.835       -4.866       -1.092       14.574        7.604        5.578      212.400       57.825       31.119        0.081        0.015       36.164        6.542        0.033      329.123       -4.343      866.394
01/03/2015  08:16:00      -39.536      -12.894       -2.737       12.010        7.493        4.643      144.241       56.151       21.559        0.098        0.011       41.585        5.177        0.015      329.199       -4.218      866.400
01/03/2015  08:17:00      -36.789      -27.846       -4.717        5.238       10.303        6.934       27.433      106.146       48.080        0.117        0.009       46.140        4.998        0.012      329.234       -4.160      866.402
01/03/2015  08:18:00      -35.950      -12.355       -5.150        9.845        4.764        6.667       96.931       22.696       44.443        0.082        0.008       38.014        6.128        0.026      329.246       -4.140      866.399
01/03/2015  08:19:00      -27.551      -14.723       -0.943        6.856        5.981        6.545       47.001       35.776       42.841        0.055        0.006       31.238        4.031        0.017      329.319       -4.022      866.419
01/03/2015  08:20:00       -3.908       -4.195        8.225        7.191        5.463        9.372       51.715       29.842       87.843        0.013        0.008        5.733        6.698        1.365      329.850       -3.152      866.441
01/03/2015  08:21:00      -10.178        5.724       16.288        6.554        9.044       10.594       42.956       81.786      112.237        0.032        0.012       11.677        6.060        0.269      329.838       -3.173      866.468
01/03/2015  08:22:00        0.099       15.600       23.736        8.419       11.323        5.019       70.883      128.204       25.187        0.052        0.011       15.600        2.863        0.034      329.789       -3.254      866.490
01/03/2015  08:23:00       -8.505        5.670       19.557        7.028        7.134        8.042       49.396       50.898       64.679        0.033        0.008       10.222        5.674        0.308      329.910       -3.055      866.507
01/03/2015  08:24:00       -9.927       -1.318       10.741        9.786        6.829        7.425       95.758       46.637       55.135        0.021        0.010       10.015        3.282        0.107      329.805       -3.226      866.521
01/03/2015  08:25:00      -11.619       -2.510        7.989        8.192        8.911        9.067       67.112       79.411       82.216        0.022        0.011       11.886        7.565        0.405      329.779       -3.270      866.540
01/03/2015  08:26:00      -32.332       -9.803       -3.316       10.904        9.932        5.722      118.903       98.639       32.739        0.070        0.013       33.786        4.879        0.021      329.461       -3.790      866.578
01/03/2015  08:27:00      -39.432      -22.348       -0.925       13.369       10.520        8.147      178.720      110.661       66.366        0.121        0.018       45.324        5.061        0.012      329.436       -3.830      866.612
01/03/2015  08:28:00      -57.845      -30.766        0.582       25.800       16.244       10.719      665.627      263.868      114.888        0.267        0.052       65.518       10.745        0.027      329.396       -3.896      866.641
01/03/2015  08:29:00      -70.797      -20.312       -4.383       10.652       15.825        7.914      113.460      250.436       62.625        0.294        0.021       73.653        6.721        0.008      329.427       -3.846      866.664
01/03/2015  08:30:00      -42.067      -10.794        0.861        9.215        9.977        5.829       84.913       99.533       33.974        0.105        0.011       43.429        2.083        0.002      329.494       -3.735      866.690
01/03/2015  08:31:00      -34.254       -9.776       -2.945        5.525        6.037        4.328       30.527       36.451       18.734        0.068        0.004       35.622        2.516        0.005      329.545       -3.649      866.711
01/03/2015  08:32:00      -35.986      -19.838       -2.274        9.216       10.059        5.288       84.940      101.191       27.967        0.095        0.011       41.092        4.982        0.015      329.544       -3.655      866.719
01/03/2015  08:33:00      -12.471       -3.825       -2.542       10.223        4.686        4.392      104.519       21.957       19.290        0.016        0.007       13.044        2.971        0.052      329.711       -3.383      866.727
01/03/2015  08:34:00      -25.544       -8.478        0.763       11.689        8.409        5.995      136.623       70.705       35.945        0.048        0.012       26.915        5.731        0.045      329.719       -3.368      866.727
01/03/2015  08:35:00        0.293        0.809        7.008        8.123        6.338        8.104       65.981       40.165       65.671        0.011        0.009        0.861        3.874       20.256      330.213       -2.558      866.732
01/03/2015  08:36:00      -22.411        4.405        8.239       12.492       11.140       10.813      156.038      124.098      116.919        0.049        0.020       22.840       10.035        0.193      329.973       -2.952      866.736
01/03/2015  08:37:00       -7.975       10.985       20.583        7.485       10.618        8.602       56.032      112.740       73.995        0.043        0.012       13.574        7.024        0.268      330.319       -2.385      866.747
01/03/2015  08:38:00        7.165       22.666       26.875       13.320        7.945        6.251      177.431       63.120       39.075        0.078        0.014       23.772        4.946        0.043      330.254       -2.491      866.749
01/03/2015  08:39:00       14.658       19.681        6.052        9.785       10.297       13.085       95.747      106.034      171.212        0.051        0.019       24.539        6.527        0.071      330.151       -2.660      866.739
01/03/2015  08:40:00       19.499       12.470       19.044       13.492        9.888       10.216      182.023       97.775      104.359        0.064        0.019       23.145        5.283        0.052      330.282       -2.445      866.740
01/03/2015  08:41:00        3.035       20.136       30.267       11.939       16.080        8.417      142.530      258.557       70.846        0.090        0.024       20.364        5.429        0.071      330.458       -2.157      866.726
01/03/2015  08:42:00      -40.282       -9.540        7.914       25.351       15.448       17.346      642.685      238.632      300.886        0.148        0.059       41.397       17.882        0.187      330.125       -2.702      866.703
01/03/2015  08:43:00      -46.977      -25.359        0.493       30.752       20.172       15.540      945.681      406.893      241.504        0.222        0.080       53.384       12.822        0.058      329.900       -3.070      866.691
01/03/2015  08:44:00      -94.139      -67.391       -1.317       17.519       20.862       13.024      306.909      435.234      169.624        0.716        0.046      115.774        5.947        0.003      329.856       -3.145      866.690
01/03/2015  08:45:00      -86.933      -60.555       -5.070       29.708       23.376       16.831      882.594      546.442      283.297        0.648        0.086      105.945       15.859        0.022      329.899       -3.074      866.688
01/03/2015  08:46:00      -58.659      -60.423       -6.806       23.837       27.639       12.814      568.215      763.913      164.203        0.432        0.075       84.213       11.184        0.018      329.963       -2.968      866.676
01/03/2015  08:47:00      -15.473      -13.323        7.785       28.615       21.553       13.972      818.793      464.533      195.228        0.098        0.074       20.419       10.900        0.285      330.198       -2.583      866.664
01/03/2015  08:48:00      -61.216      -40.644       -7.867       32.057       24.590       20.885     1027.674      604.678      436.176        0.376        0.103       73.480       15.439        0.044      330.036       -2.848      866.663
01/03/2015  08:49:00      -77.793      -57.379      -10.633       24.922       19.706       16.501      621.116      388.308      272.281        0.537        0.064       96.665        6.658        0.005      329.983       -2.935      866.681
01/03/2015  08:50:00      -49.963      -36.544       -5.616       21.385       11.988        8.565      457.317      143.718       73.356        0.227        0.034       61.901        6.521        0.011      330.068       -2.796      866.676
01/03/2015  08:51:00      -51.133      -45.433       -5.700       18.181       17.874        9.084      330.553      319.497       82.525        0.272        0.037       68.401        6.649        0.009      330.085       -2.769      866.670
01/03/2015  08:52:00      -51.270      -49.401       -4.099       27.476       32.307       15.478      754.907     1043.742      239.561        0.356        0.102       71.197       14.333        0.041      330.213       -2.558      866.670
01/03/2015  08:53:00      -15.965       -6.904        9.368       16.767       16.176       14.901      281.126      261.669      222.044        0.058        0.038       17.394       14.528        0.698      330.670       -1.808      866.684
01/03/2015  08:54:00      -34.522       -6.459       -2.741        8.583        6.275        7.481       73.663       39.370       55.967        0.070        0.008       35.121        3.844        0.012      330.196       -2.587      866.711
01/03/2015  08:55:00      -11.330        6.671        8.448        8.304       11.117       13.781       68.961      123.593      189.904        0.031        0.019       13.148        9.893        0.566      330.580       -1.956      866.730
01/03/2015  08:56:00       -6.914        4.177       24.041       18.793       30.747       18.951      353.170      945.405      359.143        0.115        0.083        8.078       19.098        5.590      330.856       -1.502      866.730
01/03/2015  08:57:00        9.216       -7.605       31.180       22.986       42.028       25.250      528.357     1766.330      637.559        0.202        0.147       11.948       21.009        3.092      330.945       -1.357      866.727
01/03/2015  08:58:00       11.034       12.828       51.070       27.266       35.607       27.105      743.445     1267.842      734.692        0.282        0.137       16.920       23.870        1.990      330.987       -1.288      866.758
01/03/2015  08:59:00       34.750      -32.442       27.635       27.385       51.316       31.523      749.965     2633.331      993.717        0.370        0.219       47.540       31.379        0.436      330.658       -1.828      866.792
01/03/2015  09:00:00       19.263       22.157       47.724       30.873       41.053       25.883      953.151     1685.341      669.911        0.322        0.165       29.360       23.920        0.664      330.828       -1.549      866.805
01/03/2015  09:01:00       20.580       -4.332       53.582       29.631       48.566       29.849      878.025     2358.625      890.972        0.372        0.206       21.031       30.337        2.081      330.821       -1.561      866.794
01/03/2015  09:02:00       56.959      -94.192       -1.298       50.323       53.427       39.564     2532.428     2854.477     1565.286        0.953        0.348      110.075       28.202        0.066      330.655       -1.833      866.773
01/03/2015  09:03:00       45.510       26.873       64.854       43.398       75.083       46.080     1883.428     5637.397     2123.343        0.832        0.482       52.852       49.524        0.878      330.618       -1.893      866.764
01/03/2015  09:04:00        9.263       35.007       56.693       24.924       37.834       34.404      621.223     1431.439     1183.654        0.388        0.162       36.212       32.094        0.786      330.731       -1.708      866.759
01/03/2015  09:05:00       77.533       97.804       68.429       50.088       27.636       32.081     2508.765      763.760     1029.162        1.228        0.215      124.807       16.280        0.017      330.401       -2.250      866.756
01/03/2015  09:06:00       16.054        8.586       44.822       44.428       43.964       25.496     1973.875     1932.864      650.023        0.345        0.228       18.206       23.627        1.684      330.740       -1.694      866.756
01/03/2015  09:07:00       36.418       89.006       82.006       46.524       42.827       35.028     2164.467     1834.110     1226.942        1.060        0.261       96.169       32.279        0.113      330.653       -1.835      866.750
01/03/2015  09:08:00       47.776       84.186       51.202       55.848       32.733       45.156     3118.988     1071.425     2039.037        0.911        0.311       96.798       26.894        0.077      330.467       -2.142      866.756
01/03/2015  09:09:00       61.488      -68.585        6.761       54.828       67.685       42.024     3006.128     4581.249     1766.007        0.894        0.468       92.112       47.886        0.270      330.577       -1.960      866.759
01/03/2015  09:10:00       58.216       -9.956       44.314       55.089       83.183       52.909     3034.822     6919.365     2799.396        0.910        0.638       59.061       63.456        1.154      330.619       -1.891      866.779
01/03/2015  09:11:00       35.669        8.430       40.464       39.807       33.621       31.014     1584.592     1130.341      961.848        0.333        0.184       36.651       33.093        0.815      330.695       -1.768      866.799
01/03/2015  09:12:00       29.387       45.171       57.301       48.446       32.667       25.053     2346.970     1067.125      627.633        0.511        0.202       53.889       25.308        0.221      330.591       -1.937      866.800
01/03/2015  09:13:00       35.122      -36.404        9.825       39.686       56.686       29.436     1574.993     3213.274      866.464        0.415        0.283       50.585       27.522        0.296      330.598       -1.927      866.784
01/03/2015  09:14:00       27.745       23.870       37.434       36.475       49.524       38.826     1330.408     2452.640     1507.465        0.401        0.265       36.600       34.551        0.891      330.845       -1.522      866.773
01/03/2015  09:15:00        2.737       24.922       65.412       24.842       31.904       19.804      617.103     1017.844      392.209        0.347        0.101       25.072       16.319        0.424      330.833       -1.542      866.759
01/03/2015  09:16:00        3.058       19.570       49.754       27.341       32.614       30.155      747.535     1063.653      909.348        0.279        0.136       19.807       24.497        1.530      330.971       -1.313      866.757
01/03/2015  09:17:00       15.590       -3.547       22.842       29.125       51.344       26.121      848.280     2636.222      682.328        0.247        0.208       15.989       29.455        3.394      330.867       -1.486      866.760
01/03/2015  09:18:00       44.503      -29.076       16.129       44.694       61.715       35.286     1997.574     3808.692     1245.116        0.507        0.353       53.159       41.440        0.608      330.855       -1.504      866.760
01/03/2015  09:19:00       63.595     -113.830       -6.857       41.088       41.825       33.175     1688.193     1749.317     1100.559        1.079        0.227      130.391       29.076        0.050      330.740       -1.692      866.758
01/03/2015  09:20:00       49.889       23.840       36.648       46.236       58.721       43.707     2137.763     3448.180     1910.305        0.595        0.375       55.292       39.372        0.507      330.792       -1.608      866.753
01/03/2015  09:21:00       11.390       26.904       53.231       30.541       42.749       34.999      932.726     1827.459     1224.896        0.384        0.199       29.215       27.219        0.868      331.054       -1.177      866.748
01/03/2015  09:22:00       21.034        0.349       37.915       35.736       41.135       29.599     1277.039     1692.125      876.091        0.286        0.192       21.037       12.528        0.355      331.012       -1.248      866.741
01/03/2015  09:23:00       18.268       47.599       63.328       43.327       44.224       28.011     1877.243     1955.724      784.632        0.561        0.231       50.984       22.600        0.196      331.051       -1.183      866.724
01/03/2015  09:24:00       38.410       66.213       70.600       49.217       39.895       38.453     2422.347     1591.591     1478.600        0.817        0.275       76.547       32.076        0.176      330.817       -1.568      866.702
01/03/2015  09:25:00       32.904       30.621       58.613       51.333       58.489       49.525     2635.040     3420.978     2452.696        0.698        0.425       44.948       53.557        1.420      330.852       -1.509      866.699
01/03/2015  09:26:00       51.663       32.907       39.387       54.289       40.037       43.660     2947.260     1602.964     1906.194        0.588        0.323       61.253       35.015        0.327      330.754       -1.670      866.692
01/03/2015  09:27:00      106.622       63.079       46.131       29.909       36.031       40.130      894.541     1298.226     1610.431        1.064        0.190      123.884       27.974        0.051      330.721       -1.726      866.694
01/03/2015  09:28:00       93.942       68.246       69.670       45.547       31.438       40.352     2074.512      988.342     1628.249        1.151        0.235      116.114       24.178        0.043      330.654       -1.834      866.688
01/03/2015  09:29:00       44.614       30.772       50.969       58.186       32.665       25.388     3385.641     1067.016      644.569        0.532        0.255       54.197       28.903        0.284      330.708       -1.745      866.684
01/03/2015  09:30:00       48.352       65.780       57.127       29.612       47.217       29.689      876.872     2229.461      881.417        0.696        0.199       81.640       30.210        0.137      330.715       -1.734      866.684
01/03/2015  09:31:00       38.346       37.147       24.705       18.270       25.839       27.775      333.788      667.646      771.470        0.262        0.089       53.388       15.496        0.084      330.782       -1.626      866.686
01/03/2015  09:32:00       28.368       14.619       30.280       33.661       60.724       21.195     1133.073     3687.380      449.240        0.360        0.263       31.913       15.831        0.246      330.962       -1.329      866.689
01/03/2015  09:33:00       55.908      -44.705       12.086       34.101       47.886       29.898     1162.911     2293.043      893.902        0.481        0.217       71.584       29.347        0.168      330.760       -1.659      866.710
01/03/2015  09:34:00       35.916       25.399       29.081       26.685       28.917       22.588      712.110      836.210      510.217        0.242        0.103       43.989       16.404        0.139      330.928       -1.383      866.724
01/03/2015  09:35:00        4.250       13.395       19.850       22.533       41.372       25.388      507.742     1711.611      644.535        0.173        0.143       14.053       17.907        1.624      331.185       -0.963      866.746
01/03/2015  09:36:00       53.432       48.590       23.107       43.291       36.666       32.022     1874.092     1344.361     1025.433        0.500        0.212       72.222       20.206        0.078      331.200       -0.938      866.747
01/03/2015  09:37:00       92.058       77.566        2.619       33.545       28.740       26.978     1125.242      826.009      727.796        0.859        0.134      120.379       13.208        0.012      330.826       -1.551      866.749
01/03/2015  09:38:00       13.948       55.469       64.833       42.298       36.726       29.793     1789.155     1348.813      887.648        0.575        0.201       57.196       20.980        0.135      331.312       -0.754      866.750
01/03/2015  09:39:00       14.327       10.739       65.145       46.487       76.416       52.300     2160.998     5839.439     2735.271        0.765        0.537       17.905       51.568        8.295      331.294       -0.784      866.744
01/03/2015  09:40:00       31.972       19.711       46.167       34.560       50.799       29.734     1194.403     2580.554      884.110        0.410        0.233       37.559       24.889        0.439      331.165       -0.995      866.744
01/03/2015  09:41:00       85.718       85.357       66.209       54.332       34.263       36.578     2951.980     1173.928     1337.979        1.224        0.273      120.969       31.406        0.067      331.021       -1.232      866.755
01/03/2015  09:42:00       61.038       85.802       45.231       53.124       26.480       34.300     2822.168      701.190     1176.473        0.892        0.235      105.298       28.235        0.072      330.960       -1.333      866.778
01/03/2015  09:43:00       65.444      -17.422       28.643       40.892       81.952       49.758     1672.193     6716.125     2475.817        0.813        0.543       67.723       54.384        0.645      330.951       -1.348      866.816
01/03/2015  09:44:00       36.806       46.147       28.657       32.520       52.188       42.951     1057.520     2723.565     1844.771        0.496        0.281       59.028       34.181        0.335      331.058       -1.171      866.862
01/03/2015  09:45:00       32.006       59.899       62.004       33.870       32.151       26.692     1147.194     1033.669      712.464        0.567        0.145       67.913       19.828        0.085      331.166       -0.994      866.884
01/03/2015  09:46:00       30.696       50.275       54.742       40.563       40.304       27.667     1645.349     1624.430      765.467        0.525        0.202       58.905       22.375        0.144      331.099       -1.104      866.891
01/03/2015  09:47:00       54.811       62.769       49.025       32.735       35.827       22.570     1071.550     1283.565      509.425        0.611        0.143       83.332       17.063        0.042      330.967       -1.321      866.883
01/03/2015  09:48:00       38.306        7.654       14.500       36.735       36.912       29.983     1349.474     1362.504      898.972        0.267        0.181       39.063       23.787        0.371      331.089       -1.122      866.866
01/03/2015  09:49:00       21.582       47.080       59.947       46.895       31.057       39.505     2199.095      964.563     1560.647        0.550        0.236       51.791       36.726        0.503      331.246       -0.861      866.861
01/03/2015  09:50:00       76.176       51.095       23.081       21.360       21.681       26.872      456.262      470.058      722.101        0.530        0.082       91.725        7.280        0.006      331.034       -1.210      866.856
01/03/2015  09:51:00        9.487        5.528       11.161       22.320       12.954       12.910      498.177      167.818      166.673        0.054        0.042       10.981        8.785        0.640      331.364       -0.669      866.850
01/03/2015  09:52:00       41.633        8.032       13.043       26.482       22.727       20.383      701.312      516.524      415.453        0.180        0.082       42.401       12.306        0.084      331.301       -0.771      866.838
01/03/2015  09:53:00        6.713       12.425       30.294       29.110       37.058       24.535      847.417     1373.327      601.960        0.197        0.141       14.123       25.021        3.139      331.589       -0.299      866.803
01/03/2015  09:54:00       16.793       35.115       52.941       46.940       52.043       24.857     2203.357     2708.510      617.851        0.492        0.276       38.924       16.738        0.185      331.453       -0.522      866.774
01/03/2015  09:55:00       45.116       62.722       65.022       38.174       30.420       29.851     1457.289      925.398      891.068        0.673        0.164       77.263       25.022        0.105      331.134       -1.046      866.760
01/03/2015  09:56:00       18.212       11.136       33.843       37.802       38.726       19.154     1428.966     1499.691      366.894        0.245        0.165       21.347       19.115        0.802      331.297       -0.779      866.741
01/03/2015  09:57:00        8.189      -51.175        7.492       27.872       50.355       34.486      776.869     2535.637     1189.268        0.362        0.225       51.826       34.362        0.440      331.388       -0.629      866.720
01/03/2015  09:58:00      -34.152      -27.465       -0.491       21.326       26.105       18.611      454.801      681.477      346.361        0.170        0.074       43.825       16.585        0.143      331.255       -0.847      866.690
01/03/2015  09:59:00      -15.734       29.381       38.553       20.138       23.784       19.450      405.523      565.672      378.296        0.197        0.067       33.329       17.827        0.286      331.432       -0.557      866.668
01/03/2015  10:00:00       10.105       10.719        2.879       13.166       23.430       13.780      173.351      548.945      189.898        0.057        0.046       14.732        9.162        0.387      331.445       -0.537      866.657
01/03/2015  10:01:00      -17.746      -29.051       -0.566       24.202       24.641       22.498      585.738      607.179      506.143        0.143        0.085       34.042       19.546        0.330      331.369       -0.661      866.652
01/03/2015  10:02:00       -8.358       14.704       19.052       19.475       15.866       14.705      379.279      251.733      216.227        0.075        0.042       16.913       13.895        0.675      331.756       -0.024      866.645
01/03/2015  10:03:00      -74.801       21.582       -8.159       18.909       13.081       10.122      357.534      171.123      102.454        0.338        0.032       77.853        7.307        0.009      331.188       -0.959      866.644
01/03/2015  10:04:00      -39.860      -12.552        2.300       41.661       23.184       19.125     1735.619      537.496      365.756        0.219        0.132       41.789       23.163        0.307      331.521       -0.410      866.627
01/03/2015  10:05:00      -91.900       13.801       -6.594       27.517       22.446       17.466      757.211      503.816      305.045        0.512        0.078       92.931       17.059        0.034      331.248       -0.857      866.636
01/03/2015  10:06:00      -45.412      -27.812       -1.931       33.210       37.742       16.175     1102.880     1424.475      261.634        0.281        0.139       53.252       21.030        0.156      331.350       -0.692      866.638
01/03/2015  10:07:00      -23.393      -12.601        2.396       17.050       23.044       14.598      290.693      531.014      213.106        0.087        0.052       26.571       10.373        0.152      331.372       -0.656      866.647
01/03/2015  10:08:00      -44.833        3.217       -6.312       16.994       12.714        7.039      288.790      161.655       49.543        0.128        0.025       44.949        4.989        0.012      331.324       -0.733      866.657
01/03/2015  10:09:00      -19.778      -39.069        3.855       23.513       24.235       16.460      552.839      587.341      270.923        0.167        0.071       43.790       12.432        0.081      331.435       -0.551      866.671
01/03/2015  10:10:00      -12.778      -30.873       -5.454       17.589       24.633       15.533      309.356      606.781      241.266        0.115        0.058       33.413        8.730        0.068      331.622       -0.244      866.677
01/03/2015  10:11:00      -35.983      -35.429       -2.207       22.263       14.821       11.492      495.623      219.661      132.076        0.170        0.042       50.498       10.293        0.042      331.524       -0.404      866.675
01/03/2015  10:12:00      -30.686      -35.748       -2.339       27.312       20.529       14.369      745.949      421.426      206.477        0.180        0.069       47.112        5.525        0.014      331.550       -0.363      866.682
01/03/2015  10:13:00      -59.455      -32.414       -2.996       29.764       23.873       18.287      885.904      569.907      334.416        0.319        0.090       67.717       13.885        0.042      331.526       -0.402      866.688
01/03/2015  10:14:00        2.410      -20.394       -0.541       28.090       20.248       16.373      789.046      409.968      268.072        0.094        0.073       20.536        9.065        0.195      331.739       -0.051      866.702
01/03/2015  10:15:00      -17.158      -12.647       10.986       40.363       13.665       14.631     1629.204      186.745      214.067        0.130        0.102       21.316       14.098        0.437      332.026        0.422      866.687
01/03/2015  10:16:00      -53.300      -36.062       -6.859       14.683       20.925       12.915      215.598      437.852      166.786        0.250        0.041       64.353       10.053        0.024      331.503       -0.442      866.682
01/03/2015  10:17:00      -53.265      -80.859       -3.624       22.965       20.663       17.483      527.408      426.973      305.648        0.532        0.063       96.827        7.901        0.007      331.486       -0.468      866.663
01/03/2015  10:18:00      -62.112      -47.719       -1.006       28.609       23.226       20.688      818.465      539.426      428.004        0.396        0.089       78.326        8.510        0.012      331.620       -0.247      866.651
01/03/2015  10:19:00      -73.356      -47.211       -6.716       14.268       14.329       11.221      203.589      205.328      125.910        0.409        0.027       87.235        6.042        0.005      331.586       -0.303      866.641
01/03/2015  10:20:00      -38.484      -71.200       -8.100       26.890       42.723       17.245      723.046     1825.223      297.402        0.473        0.142       80.935       13.556        0.028      331.627       -0.236      866.640
01/03/2015  10:21:00      -42.516      -92.511       -6.655       29.214       19.563       18.275      853.472      382.730      333.988        0.599        0.079      101.813       13.953        0.019      331.597       -0.284      866.625
01/03/2015  10:22:00      -34.367      -73.178       -4.516       31.553       38.731       24.092      995.600     1500.123      580.447        0.482        0.154       80.846       20.849        0.067      331.687       -0.138      866.613
01/03/2015  10:23:00      -38.055      -77.687       -6.181       18.354       17.845       12.098      336.852      318.455      146.362        0.416        0.040       86.507       10.164        0.014      331.632       -0.227      866.597
01/03/2015  10:24:00      -58.345      -79.877       -1.977       23.829       27.068       19.967      567.845      732.684      398.678        0.574        0.085       98.917       15.173        0.024      331.740       -0.048      866.579
01/03/2015  10:25:00      -91.381      -77.335       -5.773       42.439       36.824       17.982     1801.038     1355.977      323.342        0.892        0.174      119.712       17.910        0.022      331.784        0.024      866.557
01/03/2015  10:26:00      -83.251      -55.983      -11.694       16.930       16.130       13.404      286.611      260.192      179.673        0.546        0.036      100.323       11.371        0.013      331.796        0.043      866.532
01/03/2015  10:27:00      -40.926      -35.548       -5.096       21.533       22.818       12.509      463.658      520.659      156.486        0.205        0.057       54.209       10.176        0.035      331.891        0.197      866.495
01/03/2015  10:28:00      -17.524       -5.243       -2.172       15.063        7.980       16.349      226.901       63.677      267.286        0.045        0.028       18.292       13.574        0.551      332.301        0.876      866.455
01/03/2015  10:29:00      -35.312        3.833       -9.557       16.471       13.796       13.695      271.298      190.331      187.564        0.100        0.032       35.520        7.554        0.045      332.190        0.692      866.404
01/03/2015  10:30:00      -34.584       -1.127       -4.780       24.234       16.311       13.585      587.285      266.046      184.558        0.113        0.052       34.602       10.040        0.084      332.113        0.566      866.393
01/03/2015  10:31:00       -3.303       -1.350        2.770       18.870       18.283       18.277      356.060      334.279      334.056        0.052        0.051        3.569        9.006        6.369      332.687        1.512      866.385
01/03/2015  10:32:00      -18.549      -10.290       10.703       30.527       41.932       23.350      931.899     1758.303      545.210        0.190        0.162       21.212       21.335        1.012      332.531        1.254      866.382
01/03/2015  10:33:00      -31.600      -53.160       -1.604       24.467       30.110       13.460      598.646      906.630      181.184        0.276        0.084       61.843       14.469        0.055      332.168        0.653      866.372
01/03/2015  10:34:00      -62.154      -24.339       -2.279       35.319       25.885       18.370     1247.436      670.049      337.453        0.336        0.113       66.750       20.921        0.098      332.294        0.863      866.366
01/03/2015  10:35:00      -36.046      -21.192        7.540       41.342       27.692       15.913     1709.136      766.870      253.227        0.227        0.136       41.814       12.645        0.091      332.581        1.336      866.354
01/03/2015  10:36:00      -15.307      -22.701        0.819       45.166       17.450       12.757     2039.983      304.509      162.735        0.163        0.125       27.380        4.097        0.022      332.526        1.247      866.343
01/03/2015  10:37:00       -1.562      -36.004       24.745       22.892       31.092       23.816      524.064      966.687      567.182        0.198        0.103       36.038       20.004        0.308      333.227        2.404      866.327
01/03/2015  10:38:00       -7.002       29.251       56.503       17.138       33.042       28.806      293.708     1091.765      829.799        0.316        0.111       30.077       25.273        0.706      333.087        2.172      866.312
01/03/2015  10:39:00        3.933       28.675       62.238       31.734       52.698       25.823     1007.015     2777.041      666.805        0.458        0.223       28.943       26.941        0.866      332.966        1.974      866.299
01/03/2015  10:40:00        5.040       44.043       73.966       43.401       71.810       37.000     1883.673     5156.740     1368.994        0.792        0.420       44.331       39.616        0.799      332.947        1.942      866.287
01/03/2015  10:41:00       54.485       92.213       70.585       51.012       33.545       33.372     2602.230     1125.285     1113.716        1.065        0.242      107.107       28.967        0.073      332.580        1.335      866.285
01/03/2015  10:42:00       60.984       36.396       34.165       42.206       33.520       38.117     1781.387     1123.563     1452.878        0.528        0.218       71.019       19.686        0.077      332.544        1.276      866.287
01/03/2015  10:43:00       52.281       80.945       74.111       42.078       42.339       32.944     1770.579     1792.600     1085.282        0.971        0.232       96.360       20.856        0.047      332.861        1.798      866.255
01/03/2015  10:44:00       -0.433       65.760       87.845       33.160       47.282       26.391     1099.580     2235.623      696.501        0.804        0.202       65.761       25.509        0.150      333.001        2.031      866.222
01/03/2015  10:45:00       67.876       80.958       74.254       55.379       37.041       34.590     3066.889     1372.013     1196.491        1.115        0.282      105.648       31.794        0.091      332.721        1.568      866.199
01/03/2015  10:46:00       46.676       70.516       67.753       57.020       53.258       38.505     3251.260     2836.455     1482.604        0.965        0.379       84.565       27.604        0.107      332.945        1.939      866.162
01/03/2015  10:47:00       71.778       78.150       55.512       60.774       61.290       44.016     3693.451     3756.500     1937.390        1.186        0.469      106.111       36.987        0.122      332.744        1.607      866.147
01/03/2015  10:48:00      142.410       79.567       60.905       70.586       56.052       44.716     4982.327     3141.870     1999.561        2.022        0.506      163.131       33.045        0.041      332.538        1.264      866.131
01/03/2015  10:49:00       56.350      118.786      106.080       77.249       58.611       62.145     5967.335     3435.197     3862.011        2.090        0.663      131.474       60.138        0.209      332.756        1.625      866.147
01/03/2015  10:50:00       51.947      100.903      103.306       67.234       62.337       50.646     4520.400     3885.898     2564.970        1.726        0.549      113.490       48.068        0.179      332.741        1.601      866.169
01/03/2015  10:51:00       29.175      102.120       89.441       40.073       35.588       28.759     1605.875     1266.535      827.104        1.149        0.185      106.206       22.274        0.044      332.911        1.881      866.171
01/03/2015  10:52:00      143.064      110.077       27.581       65.874       51.322       47.412     4339.418     2633.925     2247.907        2.128        0.461      180.511       31.960        0.031      332.678        1.496      866.190
01/03/2015  10:53:00      117.286       89.622       42.766       65.376       46.562       50.496     4273.963     2168.031     2549.871        1.630        0.450      147.608       38.229        0.067      332.764        1.640      866.194
01/03/2015  10:54:00      147.590       90.330       16.579       55.568       55.106       42.081     3087.822     3036.721     1770.773        1.905        0.395      173.039       20.231        0.014      332.676        1.492      866.197
01/03/2015  10:55:00       42.018       18.061       13.913       56.985       64.053       42.546     3247.329     4102.725     1810.182        0.572        0.458       45.735       25.776        0.318      332.814        1.722      866.205
01/03/2015  10:56:00       25.403       40.503       30.482       41.823       42.883       35.491     1749.150     1838.977     1259.612        0.403        0.242       47.810       24.075        0.254      333.306        2.535      866.204
01/03/2015  10:57:00       69.408       50.071       43.890       58.144       41.267       41.464     3380.692     1703.003     1719.300        0.803        0.340       85.584       29.975        0.123      332.945        1.939      866.192
01/03/2015  10:58:00       -7.467       23.651       63.141       19.607       52.897       31.600      384.415     2798.144      998.563        0.439        0.209       24.801       31.423        1.605      333.254        2.448      866.188
01/03/2015  10:59:00       16.137       41.313       66.386       27.723       60.315       35.138      768.562     3637.886     1234.657        0.601        0.282       44.352       37.123        0.701      333.229        2.407      866.189
01/03/2015  11:00:00        6.016       39.031       66.620       29.221       64.010       26.752      853.860     4097.247      715.671        0.583        0.283       39.492       25.734        0.425      333.289        2.507      866.198
01/03/2015  11:01:00       38.890      -53.183       12.485       42.107       56.929       49.627     1772.960     3240.957     2462.790        0.599        0.374       65.886       40.600        0.380      333.093        2.183      866.216
01/03/2015  11:02:00       16.152       29.027       56.184       35.124       59.500       45.276     1233.674     3540.227     2049.905        0.554        0.341       33.218       47.888        2.078      333.165        2.301      866.239
01/03/2015  11:03:00       32.040      -48.679        7.710       30.743       43.359       32.270      945.159     1880.028     1041.343        0.366        0.193       58.277       24.703        0.180      333.288        2.506      866.235
01/03/2015  11:04:00        1.413      -13.047       11.301       37.353       44.553       26.975     1395.268     1984.952      727.647        0.220        0.205       13.123       13.343        1.034      333.507        2.866      866.226
01/03/2015  11:05:00       -5.741       45.958       57.683       39.761       46.877       42.497     1580.972     2197.486     1806.024        0.553        0.279       46.315       40.834        0.777      333.593        3.009      866.203
01/03/2015  11:06:00       14.385       15.806       38.154       35.806       30.452       28.671     1282.102      927.315      822.012        0.247        0.152       21.372       23.374        1.196      333.498        2.854      866.182
01/03/2015  11:07:00       40.573       67.141       75.469       41.323       40.036       29.363     1707.586     1602.904      862.194        0.801        0.209       78.447       17.815        0.052      333.145        2.268      866.153
01/03/2015  11:08:00       76.596       69.390       32.693       46.319       30.952       23.877     2145.452      957.996      570.103        0.771        0.184      103.353       12.653        0.015      332.860        1.797      866.118
01/03/2015  11:09:00       14.974       -6.148       31.576       28.762       42.514       32.085      827.277     1807.403     1029.436        0.246        0.183       16.187       21.080        1.696      333.510        2.871      866.099
01/03/2015  11:10:00       27.751        1.477       29.140       27.813       59.736       35.245      773.575     3568.428     1242.208        0.360        0.279       27.790       34.415        1.534      333.710        3.204      866.071
01/03/2015  11:11:00       16.966       10.719       40.386       30.411       76.553       41.431      924.851     5860.379     1716.563        0.527        0.425       20.069       41.175        4.210      333.626        3.064      866.061
01/03/2015  11:12:00       16.032       29.050       68.174       49.158       42.640       32.062     2416.500     1818.166     1027.999        0.550        0.263       33.180       32.429        0.955      333.591        3.006      866.064
01/03/2015  11:13:00       30.017       76.824       76.286       51.180       46.889       43.915     2619.416     2198.563     1928.536        0.968        0.337       82.480       37.203        0.203      333.470        2.806      866.060
01/03/2015  11:14:00       61.834       48.682       41.792       28.341       43.670       48.485      803.214     1907.040     2350.798        0.650        0.253       78.698       40.422        0.264      333.121        2.229      866.068
01/03/2015  11:15:00       46.155       84.395       54.793       57.570       61.114       49.030     3314.263     3734.935     2403.929        1.085        0.473       96.192       39.313        0.167      333.343        2.596      866.057
01/03/2015  11:16:00      107.342       86.088       28.036       32.488       23.075       36.483     1055.470      532.476     1330.999        1.132        0.146      137.599       10.793        0.006      333.040        2.094      866.058
01/03/2015  11:17:00      101.604       80.089       25.813       35.365       32.275       36.858     1250.686     1041.683     1358.494        1.053        0.183      129.374       15.274        0.014      333.125        2.235      866.044
01/03/2015  11:18:00      133.957       95.417        9.669       31.485       30.438       28.590      991.288      926.449      817.413        1.494        0.137      164.465        9.592        0.003      332.971        1.982      866.019
01/03/2015  11:19:00       66.759       58.861        2.577       50.737       42.585       36.741     2574.193     1813.466     1349.879        0.683        0.287       89.002       24.385        0.075      333.175        2.319      865.992
01/03/2015  11:20:00       51.277       75.489       75.550       62.228       51.690       47.670     3872.335     2671.821     2272.442        1.142        0.441       91.258       42.551        0.217      333.622        3.057      865.946
01/03/2015  11:21:00       26.338       79.600       91.697       35.417       42.002       39.083     1254.355     1764.181     1527.443        0.999        0.227       83.844       29.358        0.123      333.502        2.858      865.926
01/03/2015  11:22:00       82.926       83.032       14.099       55.981       47.657       48.030     3133.889     2271.185     2306.899        1.084        0.386      117.350       26.578        0.051      333.438        2.754      865.908
01/03/2015  11:23:00       83.446       83.077       31.683       53.565       40.272       44.045     2869.221     1621.862     1940.002        1.065        0.322      117.750       21.669        0.034      333.396        2.685      865.893
01/03/2015  11:24:00       88.117       63.633       19.415       42.057       41.969       31.043     1768.809     1761.359      963.679        0.834        0.225      108.691       16.192        0.022      333.363        2.627      865.883
01/03/2015  11:25:00       99.586       51.168       42.211       72.029       53.402       39.078     5188.166     2851.807     1527.088        1.194        0.478      111.962       29.211        0.068      333.658        3.116      865.851
01/03/2015  11:26:00       78.617       70.221       27.812       61.127       43.883       40.578     3736.521     1925.710     1646.575        0.960        0.365      105.411       40.587        0.148      333.412        2.710      865.828
01/03/2015  11:27:00       53.087       89.250       91.592       51.228       42.111       25.995     2624.333     1773.335      675.729        1.212        0.254      103.845       16.181        0.024      333.625        3.062      865.794
01/03/2015  11:28:00      101.254       91.686       78.260       52.971       40.270       30.781     2805.901     1621.634      947.453        1.508        0.269      136.597       25.726        0.035      333.399        2.687      865.770
01/03/2015  11:29:00       72.370       70.272       78.068       76.274       56.974       53.332     5817.671     3246.075     2844.301        1.409        0.595      100.874       51.580        0.261      333.547        2.933      865.740
01/03/2015  11:30:00       97.474       80.623       27.397       50.382       28.999       39.107     2538.369      840.934     1529.336        1.083        0.245      126.496       32.061        0.064      333.364        2.631      865.714
01/03/2015  11:31:00       37.907       49.352       -0.087       33.545       35.259       20.397     1125.287     1243.220      416.050        0.333        0.139       62.230        8.063        0.017      333.745        3.261      865.674
01/03/2015  11:32:00       45.454       50.291       51.584       36.863       57.895       35.019     1358.858     3351.818     1226.317        0.660        0.297       67.788       21.471        0.100      333.978        3.647      865.666
01/03/2015  11:33:00       51.805       60.116       50.200       51.257       59.701       60.000     2627.288     3564.157     3599.941        0.930        0.490       79.358       39.589        0.249      333.909        3.533      865.653
01/03/2015  11:34:00       37.176       38.999       85.766       57.616       41.192       34.257     3319.551     1696.800     1173.541        0.822        0.309       53.879       34.482        0.410      333.891        3.503      865.658
01/03/2015  11:35:00       13.429       88.165      102.569       39.284       47.919       26.310     1543.258     2296.195      692.229        1.150        0.227       89.182       26.477        0.088      333.749        3.268      865.669
01/03/2015  11:36:00       83.309       81.004       68.792       52.600       43.983       34.131     2766.797     1934.473     1164.939        1.205        0.293      116.198       30.449        0.069      333.641        3.089      865.665
01/03/2015  11:37:00       29.562       -6.446       44.399       38.467       75.501       41.858     1479.693     5700.379     1752.109        0.591        0.447       30.257       48.283        2.547      333.886        3.495      865.661
01/03/2015  11:38:00       28.532       -2.491       18.204       41.140       62.909       43.935     1692.520     3957.514     1930.307        0.436        0.379       28.640       44.125        2.374      333.793        3.342      865.660
01/03/2015  11:39:00       -4.195       68.336       65.609       30.294       31.667       27.612      917.755     1002.814      762.424        0.584        0.134       68.465        8.327        0.015      334.155        3.941      865.644
01/03/2015  11:40:00       21.536       -6.647       14.396       37.342       66.400       40.752     1394.407     4408.905     1660.694        0.409        0.373       22.539       33.280        2.180      334.100        3.850      865.634
01/03/2015  11:41:00       35.271       52.411       62.412       41.347       55.168       44.722     1709.544     3043.457     2000.101        0.732        0.338       63.174       26.870        0.181      333.991        3.670      865.616
01/03/2015  11:42:00       57.665       25.939       38.697       28.699       45.939       32.043      823.621     2110.428     1026.772        0.473        0.198       63.231       28.036        0.197      333.724        3.226      865.595
01/03/2015  11:43:00       23.659       46.595       51.112       36.089       45.165       48.520     1302.451     2039.849     2354.167        0.552        0.285       52.257       40.803        0.610      334.032        3.738      865.577
01/03/2015  11:44:00       61.704       28.301       55.158       41.835       86.796       46.078     1750.151     7533.558     2123.170        0.953        0.570       67.885       55.877        0.678      334.001        3.686      865.547
01/03/2015  11:45:00       36.388       48.183       49.103       44.686       49.315       27.079     1996.853     2431.990      733.278        0.561        0.258       60.379       19.634        0.106      334.266        4.125      865.518
01/03/2015  11:46:00       22.697       50.994       67.227       57.943       55.796       43.852     3357.349     3113.174     1922.960        0.801        0.420       55.817       42.965        0.593      334.281        4.150      865.491
01/03/2015  11:47:00       45.575       48.759       44.246       43.481       47.838       31.502     1890.603     2288.444      992.366        0.579        0.259       66.742       24.872        0.139      334.197        4.011      865.453
01/03/2015  11:48:00      108.857       87.483       42.310       48.590       38.728       35.242     2360.941     1499.843     1242.027        1.320        0.255      139.654       24.440        0.031      333.859        3.451      865.428
01/03/2015  11:49:00       74.063       53.911       71.692       60.015       54.461       43.029     3601.788     2965.963     1851.520        1.097        0.421       91.606       41.584        0.206      334.060        3.783      865.401
01/03/2015  11:50:00       24.565       43.253       56.239       54.185       66.580       37.328     2935.998     4432.831     1393.387        0.720        0.438       49.742       36.725        0.545      334.343        4.253      865.372
01/03/2015  11:51:00       54.179     -128.626      -11.096       41.033       51.663       30.304     1683.721     2669.083      918.349        1.244        0.264      139.571       22.992        0.027      333.778        3.315      865.359
01/03/2015  11:52:00       99.361      -39.955       10.148       44.726       43.885       38.608     2000.447     1925.916     1490.560        0.849        0.271      107.094       31.502        0.087      333.739        3.251      865.344
01/03/2015  11:53:00       22.431      -21.152       -8.479       54.700       29.248       16.910     2992.117      855.472      285.958        0.258        0.207       30.831       18.424        0.357      333.865        3.460      865.323
01/03/2015  11:54:00       59.345      -30.670       -1.260       73.539       59.672       22.683     5407.990     3560.767      514.505        0.697        0.474       66.802       26.150        0.153      334.109        3.866      865.301
01/03/2015  11:55:00       53.667      -25.606       14.704       32.817       24.440       21.884     1076.961      597.306      478.916        0.295        0.108       59.463       15.483        0.068      333.890        3.502      865.292
01/03/2015  11:56:00       18.534      -67.419       -4.219       37.309       45.722       29.983     1391.973     2090.464      898.985        0.464        0.219       69.920       25.136        0.129      333.975        3.644      865.279
01/03/2015  11:57:00       13.420      -41.359       14.869       29.242       49.000       30.243      855.114     2401.047      914.647        0.314        0.209       43.482       31.795        0.535      334.431        4.399      865.280
01/03/2015  11:58:00       29.008       12.940       18.757       34.367       50.024       39.986     1181.072     2502.402     1598.895        0.332        0.264       31.763       33.766        1.130      334.234        4.074      865.283
01/03/2015  11:59:00        5.380       35.336       25.437       30.987       42.783       31.994      960.196     1830.379     1023.607        0.287        0.191       35.743       27.986        0.613      334.612        4.701      865.277
01/03/2015  12:00:00       31.338       -5.516        8.417       44.988       61.696       34.070     2023.959     3806.391     1160.754        0.404        0.350       31.820       29.503        0.860      334.589        4.661      865.275
01/03/2015  12:01:00       37.851     -126.225      -14.686       38.022       38.321       43.140     1445.684     1468.525     1861.048        1.118        0.239      131.778       31.780        0.058      334.250        4.099      865.245
01/03/2015  12:02:00       41.308      -73.333       -1.147       34.227       56.618       29.190     1171.495     3205.630      852.050        0.616        0.261       84.167       21.862        0.067      334.265        4.124      865.235
01/03/2015  12:03:00       17.738      -91.329      -18.360       39.418       42.077       32.152     1553.796     1770.505     1033.745        0.667        0.218       93.035       26.900        0.084      334.149        3.932      865.219
01/03/2015  12:04:00       45.756      -59.152      -20.362       43.124       31.623       18.516     1859.646     1000.013      342.847        0.460        0.160       74.784       15.257        0.042      333.992        3.673      865.215
01/03/2015  12:05:00       -6.232      -24.178      -13.024       17.049       17.930       20.081      290.653      321.482      403.241        0.090        0.051       24.968       10.819        0.188      334.255        4.108      865.202
01/03/2015  12:06:00       12.692      -14.364      -11.386       16.119       14.838       13.187      259.810      220.173      173.907        0.058        0.033       19.168       11.472        0.358      334.324        4.223      865.173
01/03/2015  12:07:00       18.067       -1.210       23.409       20.387       16.620       14.202      415.633      276.213      201.706        0.088        0.045       18.108       12.728        0.494      334.628        4.727      865.146
01/03/2015  12:08:00       -4.516        6.176       19.704        8.793       13.991        7.464       77.323      195.742       55.716        0.039        0.016        7.651        2.051        0.072      335.118        5.540      865.130
01/03/2015  12:09:00       -6.096        3.040       25.093       13.681       20.822       20.022      187.180      433.545      400.882        0.085        0.051        6.812       10.749        2.490      335.151        5.595      865.106
01/03/2015  12:10:00       43.416      -42.463       12.789       43.104       39.874       33.998     1857.912     1589.898     1155.831        0.423        0.230       60.729       31.684        0.272      334.748        4.927      865.092
01/03/2015  12:11:00      -12.267        2.878       44.773       25.922       56.274       39.237      671.930     3166.787     1539.564        0.377        0.269       12.600       40.657       10.411      335.036        5.405      865.081
01/03/2015  12:12:00       50.375       57.022       47.869       50.886       39.557       36.774     2589.373     1564.734     1352.337        0.679        0.275       76.086       30.311        0.159      334.573        4.635      865.045
01/03/2015  12:13:00       -2.415       34.015       70.725       21.620       46.372       27.988      467.422     2150.326      783.326        0.478        0.170       34.101       29.900        0.769      334.731        4.897      865.022
01/03/2015  12:14:00       20.494       50.832       41.630       38.384       38.950       33.580     1473.308     1517.077     1127.633        0.443        0.206       54.808       18.949        0.120      334.596        4.673      864.975
01/03/2015  12:15:00       20.759      -53.261        8.853       38.312       46.123       40.585     1467.780     2127.288     1647.159        0.429        0.262       57.164       37.937        0.440      334.530        4.564      864.956
01/03/2015  12:16:00       41.130      -51.437       36.335       42.036       71.002       44.350     1767.011     5041.285     1966.963        0.721        0.439       65.859       33.028        0.251      334.686        4.824      864.924
01/03/2015  12:17:00       80.362      -66.872        2.751       44.703       33.942       27.359     1998.334     1152.069      748.512        0.742        0.195      104.547       19.853        0.036      334.359        4.280      864.913
01/03/2015  12:18:00       41.824      -68.207      -13.576       34.629       26.359       21.045     1199.168      694.773      442.886        0.446        0.117       80.009       17.301        0.047      334.342        4.252      864.892
01/03/2015  12:19:00       33.267      -59.826        1.433       54.357       81.576       33.992     2954.665     6654.657     1155.423        0.772        0.538       68.453       40.041        0.342      334.816        5.037      864.854
01/03/2015  12:20:00       19.282      -23.943       48.316       43.178       68.356       39.887     1864.307     4672.543     1590.973        0.570        0.406       30.742       42.163        1.881      335.010        5.361      864.827
01/03/2015  12:21:00       80.425       92.286      104.981       88.915       51.601       46.688     7905.917     2662.674     2179.808        1.937        0.637      122.413       47.568        0.151      334.665        4.785      864.814
01/03/2015  12:22:00      133.350       57.367       46.170       66.792       52.733       51.172     4461.220     2780.818     2618.597        1.653        0.493      145.166       38.870        0.072      334.419        4.378      864.781
01/03/2015  12:23:00      107.042       86.352       37.366       58.086       50.410       47.583     3373.927     2541.179     2264.101        1.424        0.409      137.531       42.960        0.098      334.577        4.640      864.762
01/03/2015  12:24:00      123.735       82.574       22.523       50.615       31.276       41.582     2561.913      978.168     1729.033        1.395        0.263      148.758       20.479        0.019      334.409        4.363      864.733
01/03/2015  12:25:00      135.562       70.867        4.319       62.497       47.572       33.227     3905.887     2263.133     1104.030        1.534        0.364      152.967       14.150        0.009      334.670        4.796      864.723
01/03/2015  12:26:00      121.246       89.079       21.135       55.611       45.134       40.061     3092.567     2037.077     1604.848        1.491        0.337      150.452       33.947        0.051      334.599        4.678      864.707
01/03/2015  12:27:00      111.023       70.278       28.933       41.860       31.850       36.549     1752.263     1014.419     1335.840        1.110        0.205      131.397       11.857        0.008      334.643        4.749      864.701
01/03/2015  12:28:00       94.801       66.784       46.573       40.521       36.722       48.552     1641.966     1348.523     2357.337        1.048        0.267      115.963       28.133        0.059      334.713        4.868      864.687
01/03/2015  12:29:00       18.986       12.625       70.797       33.124       83.470       28.252     1097.203     6967.286      798.150        0.720        0.443       22.801       33.036        2.099      334.897        5.173      864.653
01/03/2015  12:30:00       47.250       72.090       80.859       31.782       35.192       19.287     1010.113     1238.452      371.985        0.829        0.131       86.194       13.838        0.026      334.667        4.789      864.649
01/03/2015  12:31:00       30.862       65.961       81.473       67.172       73.236       46.971     4512.117     5363.515     2206.245        1.201        0.604       72.823       43.960        0.364      334.877        5.140      864.633
01/03/2015  12:32:00       52.247       99.052      107.982       42.174       42.864       24.870     1778.615     1837.317      618.505        1.422        0.212      111.987       16.885        0.023      334.694        4.833      864.634
01/03/2015  12:33:00       35.106      101.531       87.079       33.154       33.022       28.922     1099.212     1090.454      836.473        1.107        0.151      107.429       21.265        0.039      334.683        4.816      864.640
01/03/2015  12:34:00       61.451       65.584       54.549       36.185       32.601       30.900     1309.337     1062.854      954.839        0.719        0.166       89.875       19.433        0.047      334.789        4.994      864.642
01/03/2015  12:35:00       82.654       67.039       62.588       46.664       44.165       32.927     2177.519     1950.550     1084.156        1.023        0.261      106.423       22.192        0.043      334.700        4.844      864.643
01/03/2015  12:36:00      118.699       76.116       55.681       74.512       52.462       49.374     5552.015     2752.289     2437.814        1.686        0.537      141.007       42.707        0.092      334.704        4.852      864.635
01/03/2015  12:37:00       95.900       19.910       28.897       43.980       53.547       28.045     1934.270     2867.292      786.529        0.801        0.279       97.945       25.650        0.069      334.622        4.716      864.651
01/03/2015  12:38:00       29.893       -7.572       24.367       43.177       42.458       36.479     1864.257     1802.689     1330.686        0.327        0.250       30.837       26.833        0.757      335.018        5.373      864.651
01/03/2015  12:39:00       72.296       85.139       94.179       65.227       56.344       41.721     4254.544     3174.632     1740.632        1.526        0.458      111.693       47.037        0.177      334.728        4.891      864.660
01/03/2015  12:40:00       22.357       82.841       99.876       31.057       41.763       22.040      964.510     1744.139      485.745        1.027        0.160       85.804       26.870        0.098      334.902        5.181      864.676
01/03/2015  12:41:00       64.121       80.334       68.987       49.003       39.692       39.355     2401.305     1575.435     1548.836        1.042        0.276      102.786       32.153        0.098      334.946        5.254      864.671
01/03/2015  12:42:00       57.982       55.295       59.916       38.750       38.638       33.302     1501.584     1492.869     1108.991        0.706        0.205       80.122       22.821        0.081      334.812        5.032      864.679
01/03/2015  12:43:00       27.170      -14.088       17.601       31.805       39.364       28.204     1011.581     1549.522      795.477        0.230        0.168       30.605       28.835        0.888      334.860        5.111      864.692
01/03/2015  12:44:00       -9.914      -30.576       18.630       16.481       23.146       20.006      271.633      535.733      400.228        0.129        0.060       32.143       16.914        0.277      335.101        5.511      864.697
01/03/2015  12:45:00       12.066        2.629       35.274       25.835       46.890       26.003      667.431     2198.635      676.138        0.247        0.177       12.349       27.359        4.909      335.256        5.770      864.694
01/03/2015  12:46:00       63.332       35.942       56.662       66.266       46.038       39.856     4391.122     2119.503     1588.486        0.830        0.405       72.820       32.679        0.201      335.059        5.442      864.701
01/03/2015  12:47:00       95.006       88.959       59.433       38.284       31.101       33.469     1465.686      967.294     1120.181        1.201        0.178      130.153       20.847        0.026      334.890        5.160      864.714
01/03/2015  12:48:00       67.545       45.525       26.731       55.690       75.895       31.435     3101.401     5760.103      988.185        0.860        0.492       81.455       36.925        0.205      334.865        5.121      864.721
01/03/2015  12:49:00       43.152        0.144       43.894       34.174       31.086       31.390     1167.841      966.353      985.342        0.345        0.156       43.152       22.037        0.261      335.038        5.407      864.730
01/03/2015  12:50:00        2.814       -7.963       12.034       35.578       55.851       24.879     1265.816     3119.327      618.950        0.261        0.250        8.445       27.131       10.321      335.023        5.382      864.724
01/03/2015  12:51:00        4.707       61.310        3.766       22.335       43.254       24.540      498.852     1870.929      602.203        0.338        0.149       61.490       26.306        0.183      335.216        5.702      864.717
01/03/2015  12:52:00        6.287       21.871        8.870       23.956       31.109       22.491      573.893      967.758      505.827        0.132        0.102       22.757       17.898        0.619      335.416        6.037      864.702
01/03/2015  12:53:00       51.399       57.510       46.670       48.978       46.718       41.752     2398.850     2182.526     1743.263        0.722        0.316       77.132       37.148        0.232      335.180        5.645      864.687
01/03/2015  12:54:00        9.492      -27.028       34.423       50.131       80.345       46.745     2513.119     6455.239     2185.105        0.658        0.558       28.646       39.921        1.942      335.380        5.976      864.669
01/03/2015  12:55:00       59.308      -74.046       -1.331       43.265       41.067       46.638     1871.896     1686.472     2175.105        0.737        0.287       94.870       36.576        0.149      335.336        5.901      864.664
01/03/2015  12:56:00       32.397      -92.285       -5.914       37.145       43.833       30.515     1379.744     1921.326      931.138        0.692        0.212       97.806       26.215        0.072      335.283        5.814      864.658
01/03/2015  12:57:00       50.325      -22.248       30.558       44.018       59.103       43.601     1937.563     3493.205     1901.033        0.565        0.367       55.024       40.856        0.551      335.280        5.809      864.669
01/03/2015  12:58:00       25.948       33.922       40.463       25.748       41.105       29.077      662.942     1689.583      845.464        0.333        0.160       42.709       20.786        0.237      335.335        5.899      864.652
01/03/2015  12:59:00        2.088       37.436       55.576       29.974       36.741       23.736      898.455     1349.878      563.377        0.365        0.141       37.495       19.837        0.280      335.566        6.286      864.635
01/03/2015  13:00:00       41.683       11.022       56.574       30.840       32.622       26.280      951.130     1064.221      690.627        0.388        0.135       43.116       26.592        0.380      335.328        5.889      864.635
01/03/2015  13:01:00       40.425       32.937       39.758       23.754       25.618       23.111      564.244      656.289      534.100        0.303        0.088       52.144        7.506        0.021      335.329        5.890      864.637
01/03/2015  13:02:00       54.037      -14.510      -16.394       23.907       17.724       32.946      571.548      314.157     1085.417        0.268        0.099       55.951       14.095        0.063      335.224        5.716      864.639
01/03/2015  13:03:00       12.204       24.635      -15.624       25.206       24.293       15.526      635.366      590.153      241.061        0.123        0.073       27.493       11.382        0.171      335.199        5.675      864.648
01/03/2015  13:04:00       23.873       36.297       28.257       19.639       13.215       14.004      385.673      174.638      196.107        0.172        0.038       43.444       10.744        0.061      335.483        6.146      864.649
01/03/2015  13:05:00       13.636       36.612       58.706       44.472       33.460       23.646     1977.795     1119.542      559.132        0.431        0.183       39.068       20.528        0.276      335.698        6.505      864.649
01/03/2015  13:06:00       91.344       60.337       45.195       68.999       52.387       38.484     4760.799     2744.390     1481.047        1.150        0.449      109.472       20.614        0.035      335.501        6.177      864.656
01/03/2015  13:07:00       84.582       54.926       32.352       45.399       60.703       52.536     2061.086     3684.870     2760.075        0.986        0.425      100.851       46.824        0.216      335.247        5.754      864.673
01/03/2015  13:08:00       29.244       -3.355        4.870       30.141       39.254       21.323      908.450     1540.887      454.665        0.190        0.145       29.436       20.309        0.476      335.392        5.994      864.676
01/03/2015  13:09:00       82.629       44.466        5.659       23.746       18.168       18.976      563.856      330.081      360.088        0.505        0.063       93.834        7.637        0.007      335.367        5.953      864.685
01/03/2015  13:10:00       83.702       60.625        4.823       51.857       31.071       38.496     2689.153      965.397     1481.906        0.792        0.257      103.351       15.148        0.021      335.488        6.155      864.683
01/03/2015  13:11:00       57.594       47.266       17.397       53.816       37.680       19.816     2896.130     1419.763      392.690        0.528        0.235       74.506       19.240        0.067      335.451        6.094      864.684
01/03/2015  13:12:00       17.071       14.281      -11.408       21.563       16.728       12.495      464.983      279.842      156.136        0.076        0.045       22.257        9.292        0.174      335.520        6.208      864.692
01/03/2015  13:13:00        9.853       40.384      -18.865       30.199       30.743       20.355      912.003      945.105      414.311        0.218        0.114       41.569       14.218        0.117      335.511        6.193      864.686
01/03/2015  13:14:00       -6.992       56.684        8.007       32.888       41.260       26.236     1081.596     1702.425      688.341        0.340        0.174       57.114       28.484        0.249      335.674        6.465      864.680
01/03/2015  13:15:00       12.155       46.715       15.060       26.666       50.466       30.364      711.065     2546.811      921.958        0.337        0.209       48.270       30.992        0.412      335.830        6.726      864.677
01/03/2015  13:16:00       50.713       53.141       -6.412       31.011       34.153       32.324      961.682     1166.444     1044.872        0.430        0.159       73.456       16.392        0.050      335.573        6.297      864.661
01/03/2015  13:17:00       -7.726       67.626      -18.033       15.164       18.688       12.822      229.961      349.239      164.391        0.285        0.037       68.066       12.271        0.033      335.488        6.154      864.646
01/03/2015  13:18:00       24.898        0.563       -0.713       28.967       23.685       24.741      839.100      560.987      612.124        0.132        0.101       24.904       10.317        0.172      335.591        6.327      864.641
01/03/2015  13:19:00       15.782        5.950       11.405       40.509       31.806       34.148     1641.014     1011.647     1166.057        0.212        0.191       16.867       30.934        3.364      335.814        6.698      864.624
01/03/2015  13:20:00       57.540       64.464       65.477       40.711       34.192       27.202     1657.349     1169.070      739.965        0.766        0.178       86.409       16.589        0.037      335.694        6.501      864.612
01/03/2015  13:21:00       50.514       60.352       14.949       28.496       14.702       18.785      812.021      216.152      352.867        0.390        0.069       78.702       10.902        0.019      335.564        6.281      864.607
01/03/2015  13:22:00        3.881      -27.635       -3.715       25.600       46.449       25.701      655.378     2157.512      660.566        0.213        0.174       27.906       23.147        0.688      336.017        7.037      864.584
01/03/2015  13:23:00        2.378       -6.266        8.794       27.339       25.296       20.330      747.432      639.905      413.313        0.096        0.090        6.702        7.183        1.148      336.143        7.248      864.572
01/03/2015  13:24:00       -5.860       39.157       57.592       20.419       36.309       28.019      416.949     1318.314      785.075        0.370        0.126       39.593       26.853        0.460      336.154        7.266      864.559
01/03/2015  13:25:00       19.571       52.731       73.157       35.547       28.481       19.372     1263.561      811.165      375.285        0.548        0.123       56.246       14.006        0.062      335.915        6.867      864.532
01/03/2015  13:26:00      -40.683      -29.819       29.770       30.572       42.371       29.822      934.641     1795.288      889.370        0.352        0.181       50.440       32.500        0.415      336.059        7.106      864.513
01/03/2015  13:27:00       55.733      -84.034      -10.879       38.263       23.955       20.852     1464.043      573.843      434.806        0.638        0.124      100.836       11.307        0.013      335.877        6.805      864.489
01/03/2015  13:28:00        3.351      -32.704        1.357       19.791       22.075       17.892      391.699      487.298      320.135        0.114        0.060       32.875       15.485        0.222      336.241        7.410      864.479
01/03/2015  13:29:00       -3.227      -62.385      -12.997       32.969       36.408       18.191     1086.970     1325.544      330.898        0.341        0.137       62.468       13.684        0.048      336.009        7.022      864.481
01/03/2015  13:30:00      -24.321       13.904        7.910       34.548       12.358       16.353     1193.556      152.727      267.419        0.123        0.081       28.015       17.287        0.381      336.151        7.260      864.485
01/03/2015  13:31:00      -35.628       16.986       10.057       25.451       21.155       18.591      647.741      447.532      345.619        0.155        0.072       39.470       16.705        0.179      336.306        7.518      864.483
01/03/2015  13:32:00       -7.745       -8.225        7.675        9.825       13.327        9.393       96.532      177.596       88.235        0.027        0.018       11.297        7.734        0.469      336.683        8.150      864.473
01/03/2015  13:33:00        2.505      -36.119      -10.211       23.517       19.121       15.887      553.029      365.626      252.383        0.129        0.059       36.206        8.092        0.050      336.253        7.431      864.447
01/03/2015  13:34:00       20.118       -8.787        3.128       21.653       21.320       16.681      468.834      454.557      278.252        0.085        0.060       21.953       10.838        0.244      336.134        7.231      864.428
01/03/2015  13:35:00       -8.774      -35.112        2.964       18.634       33.176       19.061      347.219     1100.653      363.318        0.156        0.091       36.192       19.842        0.301      336.206        7.353      864.413
01/03/2015  13:36:00      -29.960      -18.069       -4.317       38.607       31.254       21.678     1490.483      976.843      469.922        0.209        0.147       34.987       14.541        0.173      336.287        7.488      864.391
01/03/2015  13:37:00      -32.379       -1.000       12.037       37.648       32.771       18.247     1417.361     1073.915      332.954        0.201        0.141       32.394       22.733        0.492      336.324        7.549      864.387
01/03/2015  13:38:00      -11.068      -23.488       11.141       31.009       24.690       14.910      961.551      609.609      222.294        0.130        0.090       25.965       12.786        0.242      336.489        7.825      864.385
01/03/2015  13:39:00      -39.331      -22.510        7.255       37.710       33.089       21.652     1422.028     1094.867      468.796        0.255        0.149       45.317       19.730        0.190      336.260        7.443      864.393
01/03/2015  13:40:00      -29.639      -43.115        8.193       44.161       34.144       19.188     1950.198     1165.827      368.172        0.314        0.174       52.320       21.372        0.167      336.341        7.578      864.396
01/03/2015  13:41:00      -17.871      -23.965       15.037       28.575       23.451       23.164      816.527      549.942      536.561        0.151        0.095       29.895       17.882        0.358      336.432        7.729      864.382
01/03/2015  13:42:00      -25.401      -33.176        6.456       23.508       21.501       17.330      552.648      462.298      300.335        0.155        0.066       41.784       13.854        0.110      336.256        7.436      864.377
01/03/2015  13:43:00       12.455        1.439        0.824        9.337       13.213       18.444       87.184      174.574      340.189        0.038        0.030       12.537       10.351        0.682      336.437        7.737      864.358
01/03/2015  13:44:00        9.787       18.045        4.049       20.672       20.217       21.243      427.342      408.716      451.265        0.086        0.064       20.528       13.842        0.455      336.726        8.222      864.351
01/03/2015  13:45:00       15.731       16.608        4.156       30.032       18.423       17.670      901.934      339.395      312.229        0.105        0.078       22.875       14.565        0.405      336.522        7.880      864.358
01/03/2015  13:46:00       57.456       37.263       23.859       30.241       22.063       23.185      914.527      486.764      537.534        0.360        0.097       68.481       13.646        0.040      336.308        7.521      864.350
01/03/2015  13:47:00       39.627        7.293        2.042       42.637       31.294       23.525     1817.876      979.313      553.408        0.249        0.168       40.292       19.140        0.226      336.422        7.714      864.355
01/03/2015  13:48:00       -8.248       47.796        3.469       26.094       35.664       23.669      680.918     1271.933      560.224        0.244        0.126       48.503        6.189        0.016      336.604        8.018      864.355
01/03/2015  13:49:00       43.967       33.829       31.263       52.118       36.529       28.794     2716.272     1334.365      829.116        0.447        0.244       55.475       25.193        0.206      336.496        7.837      864.362
01/03/2015  13:50:00       51.464       49.848       40.512       51.326       37.521       34.052     2634.370     1407.823     1159.533        0.599        0.260       71.648       27.143        0.144      336.316        7.535      864.395
01/03/2015  13:51:00       85.679       53.148       30.524       33.232       21.002       27.769     1104.377      441.068      771.102        0.671        0.116      100.825       14.384        0.020      336.247        7.420      864.428
01/03/2015  13:52:00       23.712       18.869        7.958       30.976       26.068       22.912      959.512      679.549      524.976        0.157        0.108       30.303        9.590        0.100      336.564        7.951      864.458
01/03/2015  13:53:00       12.057       51.602        6.060       23.872       29.735       24.532      569.850      884.146      601.799        0.245        0.103       52.992       26.211        0.245      336.384        7.650      864.484
01/03/2015  13:54:00       19.275       12.570        8.932       18.971       12.541       13.912      359.880      157.289      193.546        0.066        0.036       23.012        8.136        0.125      336.635        8.069      864.497
01/03/2015  13:55:00       32.945       41.463       19.880       44.069       40.247       23.834     1942.103     1619.808      568.049        0.366        0.206       52.958       14.892        0.079      336.638        8.075      864.515
01/03/2015  13:56:00       34.550       10.216       28.523       32.299       50.261       35.577     1043.242     2526.158     1265.749        0.347        0.242       36.028       38.826        1.161      336.635        8.070      864.522
01/03/2015  13:57:00       97.038       69.053       32.367       37.548       26.468       33.690     1409.885      700.575     1135.012        0.924        0.162      119.099       26.501        0.050      336.299        7.509      864.533
01/03/2015  13:58:00       63.954       77.304       41.219       38.961       25.469       25.453     1517.972      648.660      647.868        0.729        0.141      100.330       17.525        0.031      336.436        7.736      864.547
01/03/2015  13:59:00       67.043       56.404        6.393       30.295       25.037       27.898      917.765      626.849      778.297        0.502        0.116       87.614       21.357        0.059      336.276        7.469      864.556
01/03/2015  14:00:00       42.443       37.223        1.366       32.364       28.139       21.927     1047.427      791.804      480.785        0.275        0.116       56.453       17.246        0.093      336.487        7.821      864.542
01/03/2015  14:01:00       34.104       56.388        2.967       41.769       33.379       25.845     1744.617     1114.159      667.964        0.394        0.176       65.899       21.475        0.106      336.589        7.992      864.540
01/03/2015  14:02:00       59.280       54.898        8.190       26.981       27.589       25.608      727.959      761.129      655.760        0.437        0.107       80.795        9.361        0.013      336.495        7.835      864.533
01/03/2015  14:03:00       57.122       68.529       -0.152       23.784       19.772       27.905      565.658      390.934      778.683        0.485        0.087       89.214        8.102        0.008      336.521        7.879      864.539
01/03/2015  14:04:00       58.055       36.470       15.792       41.371       30.176       28.687     1711.560      910.615      822.934        0.420        0.172       68.560       13.864        0.041      336.709        8.194      864.555
01/03/2015  14:05:00       26.411       63.301       25.635       28.749       29.951       37.388      826.490      897.089     1397.829        0.424        0.156       68.590       15.888        0.054      336.704        8.186      864.555
01/03/2015  14:06:00       73.040       48.536        7.773       40.677       25.524       26.838     1654.621      651.489      720.302        0.539        0.151       87.696       11.590        0.017      336.676        8.138      864.561
01/03/2015  14:07:00       42.992       33.910        5.215       31.498       20.040       25.329      992.137      401.603      641.566        0.253        0.102       54.756       20.239        0.137      336.680        8.146      864.572
01/03/2015  14:08:00       39.729       16.482        3.864       31.076       31.887       16.819      965.746     1016.749      282.876        0.206        0.113       43.012       13.445        0.098      336.788        8.326      864.573
01/03/2015  14:09:00       60.754       33.749        7.740       44.724       45.207       30.337     2000.210     2043.691      920.350        0.493        0.248       69.498       16.065        0.053      336.578        7.975      864.564
01/03/2015  14:10:00       48.391       45.856       -2.216       23.985       14.861       18.446      575.258      220.851      340.257        0.279        0.057       66.667       14.056        0.044      336.596        8.005      864.552
01/03/2015  14:11:00       74.475       28.508       11.485       24.799       25.960       22.107      614.996      673.947      488.734        0.413        0.089       79.745       12.384        0.024      336.683        8.151      864.538
01/03/2015  14:12:00       44.620       41.542       41.592       45.751       34.439       31.981     2093.192     1186.026     1022.768        0.487        0.215       60.965       30.154        0.245      336.695        8.170      864.520
01/03/2015  14:13:00       28.993       41.468       66.277       34.728       52.064       23.758     1206.035     2710.685      564.454        0.572        0.224       50.598       29.281        0.335      336.938        8.574      864.520
01/03/2015  14:14:00        1.017       19.788       32.910       15.904       22.638       33.127      252.950      512.502     1097.368        0.167        0.093       19.814       18.289        0.852      336.999        8.677      864.525
01/03/2015  14:15:00       16.349       29.934       34.166       28.769       33.061       21.466      827.653     1093.061      460.777        0.236        0.119       34.108       20.510        0.362      336.799        8.344      864.510
01/03/2015  14:16:00       43.462       32.277       39.996       29.970       35.765       17.185      898.204     1279.157      295.334        0.350        0.124       54.136       12.713        0.055      336.797        8.341      864.500
01/03/2015  14:17:00        6.045       15.437       35.736       34.629       34.485       32.909     1199.173     1189.197     1083.031        0.251        0.174       16.579       22.941        1.915      337.132        8.901      864.485
01/03/2015  14:18:00       85.021      -31.645        7.170       46.624       29.848       32.069     2173.794      890.925     1028.391        0.619        0.205       90.719       11.002        0.015      336.688        8.159      864.481
01/03/2015  14:19:00        4.151      -49.375       -1.582       26.475       35.806       20.849      700.943     1282.098      434.690        0.244        0.121       49.550       13.799        0.078      336.890        8.496      864.475
01/03/2015  14:20:00       41.764      -91.698       -9.480       40.051       41.279       29.291     1604.083     1703.930      857.986        0.720        0.208      100.761       20.359        0.041      336.792        8.331      864.480
01/03/2015  14:21:00       34.548      -75.241       -4.976       38.127       32.661       27.990     1453.644     1066.768      783.446        0.509        0.165       82.794       24.833        0.090      336.924        8.552      864.496
01/03/2015  14:22:00       33.002      -13.578        4.455       42.356       44.829       34.037     1794.037     2009.617     1158.520        0.313        0.248       35.686       31.270        0.768      336.969        8.627      864.490
01/03/2015  14:23:00       34.658       41.084       50.065       37.274       49.256       38.356     1389.344     2426.150     1471.204        0.534        0.264       53.750       32.773        0.372      336.921        8.547      864.483
01/03/2015  14:24:00       50.222       46.166       89.569       69.449       60.508       43.926     4823.099     3661.233     1929.511        1.154        0.521       68.216       50.231        0.542      336.828        8.393      864.470
01/03/2015  14:25:00       75.022       87.207       81.728       57.864       55.432       43.399     3348.272     3072.704     1883.493        1.411        0.415      115.036       30.534        0.070      336.853        8.433      864.459
01/03/2015  14:26:00      114.728       65.702       33.621       46.096       46.538       42.032     2124.818     2165.828     1766.706        1.233        0.303      132.209       34.814        0.069      336.693        8.167      864.458
01/03/2015  14:27:00       86.001       68.049       37.016       53.228       59.875       44.299     2833.270     3584.972     1962.435        1.089        0.419      109.667       27.475        0.063      336.807        8.357      864.457
01/03/2015  14:28:00       24.896       30.638       41.054       37.608       28.252       19.862     1414.339      798.184      394.507        0.292        0.130       39.477       14.544        0.136      337.070        8.796      864.468
01/03/2015  14:29:00       31.889       28.346       35.651       31.282       33.223       25.602      978.540     1103.765      655.459        0.291        0.137       42.666       23.006        0.291      337.044        8.752      864.470
01/03/2015  14:30:00       -0.722       21.477       55.461       29.062       38.167       25.464      844.617     1456.704      648.440        0.324        0.147       21.489       23.004        1.146      337.286        9.157      864.455
01/03/2015  14:31:00       58.434       63.146       39.874       39.320       41.935       48.612     1546.084     1758.543     2363.172        0.733        0.283       86.035       40.808        0.225      336.887        8.491      864.460
01/03/2015  14:32:00       53.753       50.736       66.600       50.206       43.181       37.391     2520.666     1864.618     1398.097        0.784        0.289       73.916       31.321        0.180      336.955        8.602      864.454
01/03/2015  14:33:00       98.538       71.743       27.950       52.179       63.613       46.502     2722.633     4046.611     2162.419        1.228        0.447      121.888       47.194        0.150      337.027        8.723      864.462
01/03/2015  14:34:00      -17.612      -50.559        8.681       25.660       32.348       27.738      658.458     1046.400      769.416        0.271        0.124       53.539       23.844        0.198      337.305        9.189      864.477
01/03/2015  14:35:00       20.233      -82.940       -2.600       36.931       57.974       31.038     1363.911     3360.981      963.365        0.649        0.284       85.373       33.583        0.155      337.153        8.935      864.495
01/03/2015  14:36:00       35.639       35.203       47.289       48.507       36.615       36.661     2352.952     1340.637     1344.054        0.489        0.252       50.094       31.527        0.396      337.033        8.733      864.511
01/03/2015  14:37:00       76.450       34.897       35.828       48.472       41.089       26.933     2349.521     1688.314      725.396        0.655        0.238       84.038       22.955        0.075      336.944        8.586      864.518
01/03/2015  14:38:00       59.421       -3.118       14.135       35.435       71.543       31.053     1255.635     5118.350      964.305        0.554        0.367       59.503       33.502        0.317      336.931        8.563      864.532
01/03/2015  14:39:00       65.084      -79.354       -9.735       53.276       80.639       38.027     2838.322     6502.725     1446.022        1.071        0.539      102.630       45.651        0.198      337.000        8.678      864.550
01/03/2015  14:40:00       42.816      -16.466       25.649       50.812       56.500       35.888     2581.894     3192.256     1287.971        0.491        0.353       45.873       37.844        0.681      337.168        8.961      864.568
01/03/2015  14:41:00       70.104      -53.255       10.260       33.748       43.190       32.521     1138.914     1865.379     1057.620        0.596        0.203       88.038       31.316        0.127      336.990        8.662      864.589
01/03/2015  14:42:00        3.282       64.952       78.107       39.928       38.485       30.150     1594.220     1481.130      909.027        0.716        0.199       65.035       28.771        0.196      337.173        8.970      864.605
01/03/2015  14:43:00       11.363       49.796       41.456       35.826       26.620       25.896     1283.472      708.619      670.593        0.349        0.133       51.076       24.539        0.231      337.202        9.018      864.630
01/03/2015  14:44:00       47.112       38.892        7.332       17.793       21.512       23.999      316.608      462.754      575.949        0.257        0.068       61.091       11.583        0.036      337.110        8.863      864.636
01/03/2015  14:45:00       58.180       44.411       33.278       34.239       29.059       29.289     1172.284      844.402      857.845        0.467        0.144       73.194       28.172        0.148      337.055        8.770      864.649
01/03/2015  14:46:00       50.798      -10.992       10.146       37.334       51.873       20.317     1393.831     2690.856      412.768        0.365        0.225       51.974       15.993        0.095      337.153        8.935      864.657
01/03/2015  14:47:00       36.023      -30.520       20.453       44.193       56.218       35.791     1953.006     3160.513     1281.018        0.452        0.320       47.214       31.023        0.432      337.280        9.148      864.656
01/03/2015  14:48:00       90.254     -113.401      -16.314       44.711       47.910       22.898     1999.046     2295.415      524.332        1.304        0.241      144.933       23.912        0.027      336.992        8.664      864.663
01/03/2015  14:49:00       83.439      -73.908       -5.084       48.962       70.012       35.857     2397.272     4901.645     1285.751        1.052        0.429      111.465       46.757        0.176      337.066        8.788      864.667
01/03/2015  14:50:00       26.890      -33.213       15.259       35.628       44.791       27.492     1269.346     2006.247      755.833        0.304        0.202       42.733       29.974        0.492      337.277        9.143      864.667
01/03/2015  14:51:00       67.972      -47.715       15.144       54.038       38.962       38.945     2920.127     1518.007     1516.714        0.654        0.298       83.048       27.274        0.108      337.252        9.100      864.672
01/03/2015  14:52:00      100.226      -63.841       -2.707       65.908       71.902       49.731     4343.894     5169.864     2473.193        1.306        0.599      118.832       46.158        0.151      337.151        8.931      864.672
01/03/2015  14:53:00       84.968      -77.699        6.286       56.671       55.336       34.770     3211.647     3062.108     1208.952        1.039        0.374      115.138       34.792        0.091      337.097        8.842      864.689
01/03/2015  14:54:00       96.748     -106.471      -10.172       33.366       37.022       24.806     1113.318     1370.637      615.322        1.195        0.155      143.862       19.133        0.018      337.089        8.827      864.703
01/03/2015  14:55:00       51.595      -74.269        7.449       40.189       42.531       35.995     1615.140     1808.911     1295.643        0.648        0.236       90.432       25.119        0.077      337.234        9.071      864.739
01/03/2015  14:56:00       79.944      -21.058       18.487       45.345       41.940       31.287     2056.141     1758.958      978.872        0.598        0.240       82.671       28.294        0.117      337.131        8.898      864.766
01/03/2015  14:57:00       29.827      -10.720       15.018       38.208       35.671       27.779     1459.861     1272.395      771.686        0.237        0.175       31.695       23.826        0.565      337.322        9.219      864.784
01/03/2015  14:58:00        6.358       27.821       42.283       23.699       23.810       19.369      561.640      566.900      375.147        0.205        0.075       28.538       10.803        0.143      337.356        9.275      864.776
01/03/2015  14:59:00       33.271      -65.593       -6.687       42.225       59.220       41.277     1782.980     3507.021     1703.786        0.622        0.350       73.549       30.845        0.176      337.304        9.186      864.774
01/03/2015  15:00:00       26.033       34.567       54.919       47.287       38.268       30.453     2236.050     1464.447      927.403        0.476        0.231       43.273       25.360        0.343      337.228        9.060      864.762
01/03/2015  15:01:00       60.844      -49.576       31.243       65.496       73.582       44.694     4289.688     5414.374     1997.550        0.942        0.585       78.484       53.853        0.471      337.251        9.099      864.753
01/03/2015  15:02:00       29.981       17.413       60.281       48.411       50.926       41.311     2343.599     2593.456     1706.621        0.574        0.332       34.671       29.083        0.704      337.349        9.264      864.736
01/03/2015  15:03:00       44.040      -60.259       33.953       58.272      108.865       68.211     3395.650    11851.526     4652.773        1.331        0.995       74.637       84.948        1.295      337.225        9.056      864.721
01/03/2015  15:04:00       36.269      -61.650       -4.731       41.464       68.163       33.415     1719.292     4646.227     1116.575        0.631        0.374       71.527       38.559        0.291      337.238        9.076      864.704
01/03/2015  15:05:00       -1.841       -1.537       33.601       21.890       35.576       26.423      479.187     1265.647      698.185        0.179        0.122        2.398       21.673       81.680      337.402        9.353      864.689
01/03/2015  15:06:00       -8.364       38.354       44.391       30.858       42.530       42.003      952.195     1808.763     1764.273        0.402        0.226       39.255       27.860        0.504      337.414        9.371      864.690
01/03/2015  15:07:00       51.583      -23.461       49.505       49.027       67.529       43.383     2403.684     4560.099     1882.060        0.725        0.442       56.668       47.877        0.714      337.362        9.284      864.703
01/03/2015  15:08:00       32.691        5.665       42.028       41.925       64.147       40.374     1757.689     4114.868     1630.038        0.518        0.375       33.178       44.876        1.830      337.328        9.227      864.716
01/03/2015  15:09:00       37.514       -7.871       24.064       44.846       50.851       37.765     2011.184     2585.795     1426.191        0.403        0.301       38.331       37.133        0.938      337.356        9.275      864.734
01/03/2015  15:10:00       58.311      -37.533       13.973       51.881       41.436       33.371     2691.599     1716.935     1113.642        0.526        0.276       69.346       32.995        0.226      337.338        9.245      864.741
01/03/2015  15:11:00       10.375        0.957       23.202       33.178       41.659       27.739     1100.804     1735.491      769.441        0.213        0.180       10.419       26.281        6.362      337.373        9.303      864.760
01/03/2015  15:12:00        2.489      -29.613        8.818       17.035       26.877       15.332      290.191      722.350      235.068        0.110        0.062       29.717       10.538        0.126      337.549        9.597      864.770
01/03/2015  15:13:00       34.395      -21.424       20.113       43.765       45.184       35.318     1915.338     2041.638     1247.388        0.362        0.260       40.522       35.854        0.783      337.471        9.468      864.771
01/03/2015  15:14:00        1.125       16.318       45.823       27.090       41.471       29.372      733.874     1719.803      862.700        0.284        0.166       16.357       26.771        2.679      337.496        9.509      864.766
01/03/2015  15:15:00       22.351       -1.883       50.128       48.707       61.461       42.303     2372.324     3777.468     1789.526        0.548        0.397       22.430       27.601        1.514      337.393        9.337      864.764
01/03/2015  15:16:00       20.997       62.526       74.347       39.274       47.445       40.593     1542.432     2251.062     1647.825        0.766        0.272       65.958       32.883        0.249      337.194        9.003      864.777
01/03/2015  15:17:00       51.859        0.839       22.083       29.519       57.588       30.162      871.386     3316.367      909.765        0.414        0.255       51.865       33.989        0.429      337.220        9.047      864.795
01/03/2015  15:18:00        7.212       23.180       35.644       26.375       25.787       20.783      695.618      664.948      431.925        0.183        0.090       24.276       17.984        0.549      337.394        9.339      864.810
01/03/2015  15:19:00       -9.365       -3.158       26.431       29.432       43.862       28.704      866.255     1923.877      823.933        0.220        0.181        9.883       27.659        7.833      337.408        9.362      864.835
01/03/2015  15:20:00       -3.686        3.983       34.983       30.660       42.071       21.739      940.017     1770.001      472.565        0.222        0.159        5.427       20.346       14.057      337.460        9.449      864.860
01/03/2015  15:21:00       -0.047       -4.844       26.950       28.108       30.261       26.793      790.072      915.716      717.843        0.159        0.121        4.844       20.399       17.736      337.488        9.495      864.867
01/03/2015  15:22:00        7.722      -27.490       15.029       33.581       38.322       31.062     1127.717     1468.585      964.869        0.230        0.178       28.554       29.084        1.037      337.505        9.525      864.878
01/03/2015  15:23:00       82.055      -71.809       -1.662       58.918       66.252       37.445     3471.284     4389.339     1402.149        1.058        0.463      109.039       43.431        0.159      337.203        9.018      864.893
01/03/2015  15:24:00       14.457      -71.130       -1.446       54.188       66.505       49.854     2936.388     4422.953     2485.453        0.756        0.492       72.584       44.667        0.379      337.333        9.237      864.903
01/03/2015  15:25:00       49.283      -46.709       16.099       63.184       49.449       33.029     3992.242     2445.206     1090.884        0.620        0.376       67.902       38.003        0.313      337.348        9.261      864.935
01/03/2015  15:26:00       18.379        2.152       52.113       39.469       58.525       37.469     1557.765     3425.230     1403.937        0.472        0.319       18.504       36.950        3.987      337.340        9.248      864.947
01/03/2015  15:27:00       32.441      -37.919        5.246       70.224       52.563       30.725     4931.423     2762.909      944.055        0.558        0.432       49.903       40.487        0.658      337.264        9.120      864.969
01/03/2015  15:28:00       42.552      -81.492       -4.467       25.708       47.887       18.437      660.927     2293.155      339.930        0.588        0.165       91.933       10.417        0.013      337.283        9.153      864.976
01/03/2015  15:29:00      -15.567        5.610       22.493       12.709       21.637       17.583      161.521      468.166      309.156        0.086        0.047       16.547       14.058        0.722      337.411        9.367      864.974
01/03/2015  15:30:00      -28.194       -8.657        0.160       36.537       24.016       15.127     1334.923      576.771      228.811        0.150        0.107       29.493       20.538        0.485      337.380        9.315      864.976
01/03/2015  15:31:00       -2.689       -5.269       30.095       17.299       26.889       19.281      299.257      723.045      371.760        0.117        0.070        5.915       17.044        8.301      337.404        9.355      864.974
01/03/2015  15:32:00       -0.910      -28.698       10.916       15.475       45.873       28.820      239.479     2104.349      830.565        0.206        0.159       28.712       32.266        1.263      337.473        9.471      864.974
01/03/2015  15:33:00       -9.325      -24.958        5.935       20.767       16.074       14.289      431.289      258.369      204.174        0.082        0.045       26.643        8.129        0.093      337.604        9.690      864.976
01/03/2015  15:34:00      -47.475      -51.833       -9.833       45.428       27.433       16.985     2063.665      752.561      288.480        0.407        0.155       70.289       13.622        0.038      337.395        9.339      864.975
01/03/2015  15:35:00      -11.727      -28.480       -6.192       34.946       33.223       19.392     1221.189     1103.753      376.056        0.184        0.135       30.800       13.554        0.194      337.334        9.240      864.973
01/03/2015  15:36:00       18.269      -16.017       22.933       32.951       31.618       24.119     1085.741      999.674      581.712        0.189        0.133       24.296       20.719        0.727      337.427        9.394      864.969
01/03/2015  15:37:00      -11.099      -29.240       11.430       20.120       37.450       28.989      404.802     1402.482      840.372        0.188        0.132       31.276       31.510        1.015      337.468        9.461      864.970
01/03/2015  15:38:00      -28.439      -18.914       -0.117       26.524       33.364       22.516      703.506     1113.173      506.981        0.174        0.116       34.154       13.601        0.159      337.434        9.406      864.962
01/03/2015  15:39:00       -8.101      -41.321      -11.931       36.849       55.859       24.222     1357.866     3120.281      586.698        0.349        0.253       42.108       28.044        0.444      337.378        9.313      864.959
01/03/2015  15:40:00      -22.339      -32.562        2.085       24.850       22.868       16.615      617.536      522.929      276.071        0.149        0.071       39.488       13.081        0.110      337.501        9.517      864.961
01/03/2015  15:41:00       34.481       -3.521       15.470       36.874       36.180       29.784     1359.684     1309.024      887.102        0.250        0.178       34.661       27.285        0.620      337.298        9.177      864.964
01/03/2015  15:42:00       35.601       26.584       30.748       25.466       19.248       26.046      648.520      370.483      678.417        0.231        0.085       44.431       16.477        0.138      337.147        8.924      864.971
01/03/2015  15:43:00      -16.552       21.142       40.081       17.542       20.775       22.123      307.734      431.596      489.445        0.178        0.061       26.851       16.960        0.399      337.381        9.317      864.982
01/03/2015  15:44:00       -9.883      -14.830        0.373       22.237       16.131       15.095      494.493      260.218      227.851        0.065        0.049       17.822       11.306        0.402      337.582        9.654      864.999
01/03/2015  15:45:00       15.546      -51.226        9.551       32.083       40.842       28.729     1029.292     1668.107      825.368        0.324        0.176       53.533       11.329        0.045      337.477        9.478      865.021
01/03/2015  15:46:00       45.157      -60.793        0.600       39.568       39.924       38.961     1565.608     1593.918     1517.988        0.521        0.234       75.729       29.768        0.155      337.334        9.238      865.031
01/03/2015  15:47:00      -23.459      -37.297        6.079       39.131       31.575       24.515     1531.210      996.999      600.998        0.255        0.156       44.062       25.001        0.322      337.427        9.393      865.045
01/03/2015  15:48:00      -30.420      -27.776        2.882       23.303       27.185       23.638      543.028      739.047      558.744        0.177        0.092       41.193       18.795        0.208      337.405        9.357      865.054
01/03/2015  15:49:00        3.641      -20.925       15.277       28.141       20.769       21.440      791.944      431.372      459.691        0.118        0.084       21.240       17.206        0.656      337.430        9.398      865.061
01/03/2015  15:50:00       34.366      -37.653        6.920       45.880       35.698       20.624     2104.964     1274.377      425.361        0.322        0.190       50.978       16.149        0.100      337.294        9.170      865.063
01/03/2015  15:51:00      -13.326      -20.511       -5.237       14.567       21.874       16.078      212.198      478.477      258.504        0.079        0.047       24.460       14.024        0.329      337.466        9.458      865.072
01/03/2015  15:52:00      -38.454      -18.057        5.816       14.818       23.675       13.555      219.575      560.494      183.741        0.140        0.048       42.483        6.700        0.025      337.314        9.204      865.074
01/03/2015  15:53:00      -51.831      -49.086        1.066       20.227       24.833       12.947      409.131      616.683      167.628        0.314        0.060       71.386       10.233        0.021      337.363        9.287      865.070
01/03/2015  15:54:00      -31.011      -20.855        8.144       24.870       26.659       15.779      618.496      710.709      248.965        0.152        0.079       37.372       13.717        0.135      337.394        9.337      865.062
01/03/2015  15:55:00      -12.597       -1.086        1.565       27.607       18.621       18.746      762.150      346.754      351.401        0.081        0.073       12.644       14.220        1.265      337.401        9.349      865.062
01/03/2015  15:56:00      -38.133      -29.032        7.005       22.259       17.572       12.798      495.455      308.771      163.786        0.166        0.048       47.927        8.753        0.033      337.491        9.500      865.059
01/03/2015  15:57:00       -5.430      -20.253       -0.625       18.022       12.355        9.454      324.801      152.649       89.386        0.050        0.028       20.968        8.535        0.166      337.501        9.517      865.059
01/03/2015  15:58:00       -6.044      -22.984        2.259       10.428       12.252        8.852      108.749      150.118       78.353        0.045        0.017       23.765        4.108        0.030      337.477        9.476      865.065
01/03/2015  15:59:00      -13.937       -3.021       11.990       19.615       39.980       17.880      384.747     1598.392      319.685        0.132        0.115       14.260       19.209        1.814      337.401        9.349      865.076
01/03/2015  16:00:00      -37.408      -25.963        1.140       26.274       33.630       14.203      690.322     1130.991      201.722        0.205        0.101       45.535       10.508        0.053      337.340        9.249      865.087
01/03/2015  16:01:00       -8.586       10.341       -6.552       29.416       24.840       15.908      865.306      617.005      253.073        0.098        0.087       13.441       11.945        0.790      337.350        9.265      865.096
01/03/2015  16:02:00      -42.278      -33.743        0.059       20.587       24.237       12.014      423.825      587.445      144.325        0.204        0.058       54.092        5.625        0.011      337.361        9.283      865.107
01/03/2015  16:03:00      -60.390      -31.536       -1.735       25.982       17.914       14.470      675.061      320.902      209.391        0.292        0.060       68.129        9.967        0.021      337.364        9.288      865.121
01/03/2015  16:04:00      -72.844      -26.865       -1.057       28.561       18.941       14.897      815.730      358.747      221.928        0.371        0.070       77.640       11.039        0.020      337.297        9.176      865.131
01/03/2015  16:05:00      -68.827      -18.674       -3.933       25.708       23.062       15.597      660.910      531.862      243.274        0.327        0.072       71.316       13.827        0.038      337.450        9.433      865.146
01/03/2015  16:06:00      -77.367      -15.959       -0.950       26.997       22.470       15.900      728.844      504.919      252.795        0.386        0.074       78.996       13.509        0.029      337.326        9.223      865.158
01/03/2015  16:07:00      -92.256      -20.554       -6.788       29.027       19.362       13.800      842.559      374.891      190.434        0.519        0.070       94.518       14.977        0.025      337.328        9.227      865.161
01/03/2015  16:08:00      -67.062        1.818       -2.818       31.898       14.648       11.964     1017.494      214.552      143.141        0.294        0.069       67.087       12.579        0.035      337.456        9.442      865.163
01/03/2015  16:09:00      -69.866       -5.739      -10.883       12.603       11.863       11.933      158.847      140.736      142.406        0.274        0.022       70.101        7.495        0.011      337.430        9.398      865.165
01/03/2015  16:10:00      -48.820        8.340       -7.828       15.950       20.556       11.815      254.387      422.546      139.595        0.167        0.041       49.527        9.791        0.039      337.385        9.324      865.171
01/03/2015  16:11:00      -15.683       43.711      -10.427       12.812        9.527        9.831      164.135       90.771       96.652        0.131        0.018       46.439        8.544        0.034      337.262        9.120      865.184
01/03/2015  16:12:00      -16.332       11.339       -2.618       10.035       10.990        8.729      100.694      120.784       76.194        0.035        0.015       19.882        7.921        0.159      337.314        9.202      865.197
01/03/2015  16:13:00      -35.112       15.393       -1.950        8.107       13.255        5.768       65.718      175.686       33.271        0.087        0.014       38.338        6.464        0.028      337.355        9.271      865.205
01/03/2015  16:14:00      -34.987       13.032       -6.331       24.447       14.315        7.566      597.661      204.912       57.242        0.115        0.043       37.335        4.125        0.012      337.393        9.336      865.212
01/03/2015  16:15:00      -53.248        3.903       -9.780       13.049        9.254        7.372      170.287       85.628       54.344        0.163        0.016       53.391        5.311        0.010      337.325        9.223      865.217
01/03/2015  16:16:00      -44.937       -8.058       -1.652       16.789       17.067       10.536      281.884      291.281      111.012        0.139        0.034       45.654        9.410        0.042      337.381        9.316      865.228
01/03/2015  16:17:00      -42.284      -11.573        0.736       20.870       13.673       10.733      435.576      186.964      115.194        0.133        0.037       43.839       11.716        0.071      337.333        9.236      865.239
01/03/2015  16:18:00      -45.714       -8.977        0.362       19.787       12.125       10.391      391.530      147.014      107.978        0.141        0.032       46.587       10.713        0.053      337.222        9.051      865.256
01/03/2015  16:19:00      -57.437      -24.966        1.766       16.576       16.725       12.536      274.762      279.720      157.152        0.232        0.036       62.628        9.508        0.023      337.120        8.879      865.277
01/03/2015  16:20:00      -70.981      -38.705       -0.391       17.680       18.790        9.918      312.590      353.070       98.372        0.365        0.038       80.848        8.108        0.010      337.273        9.135      865.296
01/03/2015  16:21:00      -67.023      -48.674       -0.258       27.149       20.051       13.305      737.092      402.055      177.033        0.409        0.066       82.832       13.462        0.026      337.228        9.060      865.323
01/03/2015  16:22:00      -34.403      -29.073        4.097       26.588       22.188       15.306      706.937      492.314      234.269        0.174        0.072       45.043        8.286        0.034      337.234        9.069      865.347
01/03/2015  16:23:00      -46.775      -35.214        2.787       26.175       19.208       16.318      685.140      368.937      266.282        0.238        0.066       58.549       10.030        0.029      337.210        9.031      865.362
01/03/2015  16:24:00      -71.813      -55.705       -4.491       30.282       21.473       12.986      917.003      461.106      168.640        0.491        0.077       90.885       11.310        0.015      337.170        8.963      865.379
01/03/2015  16:25:00      -82.807      -88.088       -2.545       31.714       25.938       21.140     1005.761      672.772      446.892        0.837        0.106      120.899       13.431        0.012      337.163        8.953      865.387
01/03/2015  16:26:00      -66.068      -80.594       -3.285       27.324       28.813       22.572      746.624      830.211      509.494        0.648        0.104      104.214       19.272        0.034      337.195        9.006      865.396
01/03/2015  16:27:00      -61.000      -55.565        0.307       28.726       26.567       14.691      825.190      705.811      215.834        0.428        0.087       82.514       15.857        0.037      337.137        8.908      865.397
01/03/2015  16:28:00      -56.475      -65.903        4.852       38.211       34.029       22.959     1460.114     1157.962      527.095        0.535        0.157       86.790       24.229        0.078      337.109        8.862      865.403
01/03/2015  16:29:00      -78.902      -79.911       -9.803       24.692       19.478       12.486      609.672      379.408      155.898        0.693        0.057      112.300       13.079        0.014      337.184        8.990      865.400
01/03/2015  16:30:00      -69.970      -81.109       -7.266       21.158       18.968       16.257      447.678      359.786      264.281        0.630        0.054      107.118       14.314        0.018      337.173        8.969      865.403
01/03/2015  16:31:00      -64.569      -67.193       -3.301       25.956       25.412       15.109      673.717      645.787      228.267        0.512        0.077       93.189       14.248        0.023      337.150        8.928      865.406
01/03/2015  16:32:00      -38.884      -43.574        0.492       17.215       18.406       13.377      296.352      338.795      178.944        0.211        0.041       58.401        9.958        0.029      337.165        8.953      865.415
01/03/2015  16:33:00      -48.749      -27.120       -3.780       20.118       19.107       11.097      404.729      365.078      123.147        0.201        0.045       55.785       11.902        0.046      337.182        8.983      865.424
01/03/2015  16:34:00      -53.141      -31.493       -1.630       11.310       12.835        8.608      127.908      164.728       74.093        0.209        0.018       61.772        5.949        0.009      337.109        8.861      865.429
01/03/2015  16:35:00      -21.259      -15.560        1.414       25.422       10.344        9.283      646.299      106.991       86.174        0.077        0.042       26.345       14.044        0.284      337.082        8.815      865.437
01/03/2015  16:36:00      -16.785      -15.947       -2.326       19.337       12.763        8.258      373.912      162.904       68.189        0.057        0.030       23.152        9.382        0.164      337.132        8.900      865.446
01/03/2015  16:37:00      -19.519      -19.907        4.775       22.952       15.103        9.577      526.782      228.106       91.718        0.082        0.042       27.879       12.561        0.203      337.147        8.926      865.449
01/03/2015  16:38:00      -40.638      -38.001        4.230       20.631       23.105        9.713      425.653      533.826       94.335        0.208        0.053       55.637       11.577        0.043      337.114        8.869      865.444
01/03/2015  16:39:00       12.170      -10.981       -0.499        8.578       11.273        5.941       73.590      127.074       35.300        0.025        0.012       16.392        2.510        0.023      337.056        8.772      865.445
01/03/2015  16:40:00       20.457       -1.704       -0.298       13.354       10.767       10.865      178.337      115.939      118.048        0.042        0.021       20.528        6.893        0.113      337.089        8.825      865.449
01/03/2015  16:41:00       10.186        0.777       12.113       10.971        8.845        7.766      120.359       78.228       60.318        0.025        0.013       10.215        6.852        0.450      337.030        8.728      865.464
01/03/2015  16:42:00        5.675        1.567       -0.635       10.554        5.837        5.268      111.379       34.072       27.748        0.010        0.009        5.887        5.451        0.857      336.893        8.498      865.483
01/03/2015  16:43:00        8.579        4.509        1.881        9.040        4.670        6.847       81.724       21.805       46.884        0.012        0.008        9.692        3.512        0.131      336.729        8.229      865.491
01/03/2015  16:44:00       10.237       21.107       -4.676        6.333        5.850        3.250       40.108       34.219       10.562        0.033        0.004       23.459        3.267        0.019      336.701        8.179      865.480
01/03/2015  16:45:00        5.388        9.610       -3.169        6.395        8.606        3.572       40.891       74.057       12.763        0.013        0.006       11.018        2.101        0.036      336.745        8.253      865.478
01/03/2015  16:46:00       -1.530        0.830        0.821        4.145        4.437        5.218       17.180       19.685       27.229        0.003        0.003        1.740        3.258        3.504      336.622        8.049      865.486
01/03/2015  16:47:00      -12.937      -11.620       -7.739        9.256        9.729        7.313       85.666       94.649       53.484        0.030        0.012       17.389        4.278        0.061      336.533        7.897      865.484
01/03/2015  16:48:00      -37.199       -9.902       -8.805        6.454       12.862        8.935       41.648      165.440       79.833        0.092        0.014       38.494        7.757        0.041      336.526        7.887      865.477
01/03/2015  16:49:00      -56.962      -23.830       -9.188       10.432        7.585        5.193      108.820       57.525       26.971        0.205        0.010       61.745        3.843        0.004      336.204        7.348      865.469
01/03/2015  16:50:00      -68.185      -12.432      -12.734       14.327       14.596        7.671      205.274      213.032       58.837        0.272        0.024       69.309        3.863        0.003      336.067        7.119      865.468
01/03/2015  16:51:00      -60.347       -2.822      -14.814        7.246        6.367        7.544       52.507       40.535       56.906        0.201        0.007       60.413        4.535        0.006      336.080        7.141      865.471
01/03/2015  16:52:00      -49.443       -3.319      -14.270        9.878        7.365        6.172       97.581       54.243       38.089        0.142        0.009       49.554        5.495        0.012      336.291        7.495      865.482
01/03/2015  16:53:00      -31.440      -22.627      -11.722       13.541       13.488       11.526      183.364      181.915      132.849        0.107        0.025       38.736        3.421        0.008      336.040        7.076      865.509
01/03/2015  16:54:00      -60.504      -10.996       -6.419       12.074       18.311        9.054      145.776      335.294       81.980        0.219        0.028       61.495        4.836        0.006      336.173        7.296      865.524
01/03/2015  16:55:00      -57.588      -19.748      -11.477       14.067       11.070        8.255      197.883      122.553       68.150        0.211        0.019       60.879        6.692        0.012      335.861        6.775      865.544
01/03/2015  16:56:00      -61.734      -10.118      -18.562       15.095       18.308       12.436      227.850      335.178      154.663        0.249        0.036       62.557       11.906        0.036      335.731        6.559      865.564
01/03/2015  16:57:00      -81.751        7.382      -22.558        7.443        8.372        7.096       55.395       70.098       50.360        0.371        0.009       82.083        1.008        0.000      335.741        6.578      865.565
01/03/2015  16:58:00      -65.520        5.912      -18.479       10.382        8.426        8.714      107.782       70.996       75.942        0.246        0.013       65.786        5.912        0.008      335.651        6.427      865.588
01/03/2015  16:59:00      -72.962        0.075      -18.480       11.878        9.442        6.732      141.077       89.154       45.317        0.297        0.014       72.962        5.406        0.005      335.732        6.561      865.606
01/03/2015  17:00:00      -66.141       -1.198      -13.438       16.079       11.510        7.914      258.538      132.486       62.636        0.251        0.023       66.152        5.783        0.008      335.610        6.359      865.612
01/03/2015  17:01:00      -63.898      -26.957      -14.360       12.128       14.405       10.815      147.091      207.498      116.966        0.274        0.024       69.351        7.817        0.013      335.563        6.279      865.622
01/03/2015  17:02:00      -95.292      -28.529      -14.960       17.449       20.531       15.283      304.453      421.541      233.557        0.554        0.048       99.470        8.116        0.007      335.384        5.982      865.630
01/03/2015  17:03:00      -96.235      -57.566      -16.466       22.674       28.373       15.793      514.094      805.022      249.416        0.721        0.078      112.138       16.985        0.023      335.291        5.827      865.632
01/03/2015  17:04:00      -92.247      -60.834       -4.341       28.111       24.522       18.073      790.232      601.324      326.632        0.697        0.086      110.500       17.045        0.024      335.279        5.806      865.631
01/03/2015  17:05:00     -138.227      -27.914      -22.325       22.466       21.447       12.950      504.699      459.965      167.714        1.076        0.057      141.018        7.981        0.003      335.283        5.813      865.625
01/03/2015  17:06:00     -112.973      -42.559       -8.287       34.305       20.700       19.202     1176.841      428.491      368.700        0.831        0.099      120.724       20.682        0.029      335.371        5.959      865.633
01/03/2015  17:07:00     -117.735      -15.532       -3.587       33.765       25.627       19.448     1140.043      656.768      378.243        0.814        0.109      118.755       18.973        0.026      335.243        5.748      865.636
01/03/2015  17:08:00      -42.737       -8.494       10.741       43.284       35.632       21.908     1873.479     1269.656      479.977        0.282        0.181       43.573       25.033        0.330      335.170        5.626      865.644
01/03/2015  17:09:00      -33.638      -16.720        3.364       34.315       26.601       15.093     1177.492      707.598      227.784        0.177        0.106       37.564       11.410        0.092      335.107        5.521      865.651
01/03/2015  17:10:00      -41.810       -5.431        7.852       35.323       34.763       26.033     1247.731     1208.436      677.714        0.249        0.157       42.162       21.964        0.271      335.264        5.781      865.657
01/03/2015  17:11:00      -39.707       -9.129        6.036       35.449       20.600       16.749     1256.650      424.347      280.522        0.183        0.098       40.743       13.903        0.116      335.127        5.555      865.670
01/03/2015  17:12:00      -61.596      -26.447       -7.772       26.233       26.814       17.671      688.162      718.986      312.259        0.314        0.086       67.034       15.650        0.055      335.131        5.563      865.675
01/03/2015  17:13:00      -77.494      -21.410       -4.628       34.751       23.134       19.802     1207.610      535.191      392.136        0.431        0.107       80.398       20.431        0.065      335.078        5.474      865.683
01/03/2015  17:14:00     -118.748       -9.469      -20.332       17.041       16.383       14.877      290.391      268.410      221.318        0.769        0.039      119.125       11.098        0.009      335.276        5.803      865.684
01/03/2015  17:15:00      -91.385      -16.439       -4.600       26.516       23.754       19.398      703.093      564.263      376.301        0.514        0.082       92.852       15.421        0.028      335.149        5.590      865.684
01/03/2015  17:16:00     -119.084      -19.824      -12.387       23.469       18.788       14.707      550.815      352.987      216.308        0.792        0.056      120.722        8.844        0.005      335.061        5.445      865.688
01/03/2015  17:17:00     -120.311      -11.436       -7.797       42.559       24.536       18.170     1811.240      602.006      330.167        0.870        0.137      120.853       20.455        0.029      335.006        5.355      865.708
01/03/2015  17:18:00      -81.523       -9.808       -4.120       42.673       18.970       22.836     1820.950      359.878      521.469        0.473        0.135       82.111       24.096        0.086      334.959        5.276      865.719
01/03/2015  17:19:00      -71.469       -0.810      -10.561       38.055       28.191       17.554     1448.194      794.716      308.160        0.389        0.128       71.474       19.486        0.074      334.895        5.169      865.740
01/03/2015  17:20:00      -43.194      -10.135       -3.742       53.309       27.977       18.350     2841.859      782.724      336.718        0.297        0.198       44.367       16.060        0.131      334.948        5.258      865.757
01/03/2015  17:21:00      -53.039       -6.584       -9.520       24.923       19.485       12.871      621.161      379.669      165.651        0.206        0.058       53.446       11.426        0.046      334.891        5.164      865.777
01/03/2015  17:22:00      -67.776       -0.800      -11.625       14.533       17.428       13.097      211.211      303.750      171.530        0.271        0.034       67.780        7.336        0.012      334.793        5.001      865.798
01/03/2015  17:23:00      -53.050      -20.006       -9.066       21.243       30.711       12.755      451.269      943.175      162.699        0.243        0.078       56.697       10.414        0.034      334.913        5.199      865.817
01/03/2015  17:24:00      -64.337      -32.078      -13.015       18.113       19.888       14.599      328.082      395.513      213.120        0.314        0.047       71.890       11.317        0.025      334.903        5.183      865.838
01/03/2015  17:25:00      -91.314      -17.754      -13.219       16.238       17.929       11.307      263.664      321.456      127.842        0.477        0.036       93.024       11.827        0.016      334.862        5.116      865.841
01/03/2015  17:26:00      -97.207       -4.102      -10.241       16.852       16.051       10.195      283.990      257.641      103.928        0.511        0.032       97.294        6.825        0.005      334.919        5.209      865.836
01/03/2015  17:27:00      -88.294      -13.631      -13.228       15.842       11.442       11.000      250.962      130.921      121.006        0.433        0.025       89.340        9.581        0.012      334.904        5.184      865.832
01/03/2015  17:28:00      -82.154      -17.133       -9.941        6.615       10.760        5.945       43.755      115.770       35.344        0.367        0.010       83.922        4.873        0.003      334.908        5.191      865.831
01/03/2015  17:29:00      -67.659      -26.586       -7.326       10.003       11.894        6.205      100.069      141.479       38.502        0.281        0.014       72.695        6.315        0.008      334.837        5.073      865.836
01/03/2015  17:30:00      -83.176      -21.288      -12.039       13.085       11.427        8.761      171.206      130.575       76.757        0.395        0.019       85.856        5.704        0.004      334.862        5.115      865.839
01/03/2015  17:31:00      -80.524        1.301       -9.395       27.841       17.652       17.753      775.119      311.608      315.173        0.399        0.070       80.534       14.521        0.033      334.841        5.080      865.840
01/03/2015  17:32:00      -72.202      -15.061       -9.891       14.415       16.468       11.105      207.797      271.204      123.311        0.307        0.030       73.756        9.358        0.016      334.666        4.790      865.835
01/03/2015  17:33:00      -76.264       -4.643      -11.354       16.856       12.967       12.284      284.110      168.144      150.893        0.328        0.030       76.406        8.306        0.012      334.608        4.692      865.827
01/03/2015  17:34:00      -97.381       -3.109      -10.437       18.566       10.216       10.132      344.713      104.368      102.652        0.508        0.028       97.431        8.484        0.008      334.759        4.945      865.818
01/03/2015  17:35:00      -92.174       -6.869      -17.623       10.266        8.776        7.718      105.397       77.021       59.574        0.455        0.012       92.430        2.801        0.001      334.993        5.332      865.802
01/03/2015  17:36:00      -99.563       -6.508      -17.826       11.527        7.673        6.985      132.865       58.875       48.792        0.526        0.012       99.775        3.846        0.001      334.907        5.190      865.788
01/03/2015  17:37:00      -68.088      -13.709      -11.956       21.060       10.242       13.584      443.542      104.901      184.532        0.285        0.037       69.454       10.209        0.022      334.717        4.874      865.788
01/03/2015  17:38:00      -59.082      -13.894      -12.166       12.847        9.995        6.647      165.053       99.896       44.184        0.207        0.015       60.693        3.088        0.003      335.019        5.377      865.794
01/03/2015  17:39:00      -65.447       -9.578      -14.189       11.808        9.329        4.947      139.424       87.035       24.473        0.241        0.013       66.144        2.651        0.002      335.125        5.552      865.794
01/03/2015  17:40:00      -79.583      -18.346      -16.835        9.401       10.887        9.834       88.374      118.531       96.708        0.363        0.015       81.670        7.410        0.008      334.802        5.015      865.811
01/03/2015  17:41:00      -77.676      -39.191       -9.316       10.167       11.030        7.983      103.372      121.665       63.735        0.397        0.014       87.003        3.167        0.001      334.511        4.531      865.835
01/03/2015  17:42:00      -54.621      -27.178       -4.241       12.147       11.049        8.342      147.544      122.091       69.597        0.204        0.017       61.009        3.882        0.004      334.324        4.221      865.861
01/03/2015  17:43:00      -56.558      -22.075       -4.052       10.095       14.797       10.095      101.902      218.938      101.911        0.206        0.021       60.713        8.544        0.020      334.224        4.055      865.894
01/03/2015  17:44:00      -66.155      -43.494      -11.676       14.121       15.451       10.603      199.400      238.740      112.433        0.348        0.028       79.172        6.218        0.006      334.031        3.736      865.913
01/03/2015  17:45:00      -66.593      -34.782      -16.445       13.433       12.153       11.850      180.442      147.705      140.427        0.319        0.023       75.130        7.278        0.009      334.090        3.834      865.922
01/03/2015  17:46:00      -66.998      -29.442      -13.666       11.989       12.368        7.838      143.739      152.973       61.429        0.295        0.018       73.182        3.573        0.002      334.121        3.885      865.923
01/03/2015  17:47:00      -85.330      -17.661      -17.930        8.917       11.900        8.081       79.515      141.621       65.297        0.410        0.014       87.138        5.140        0.003      334.157        3.945      865.923
01/03/2015  17:48:00      -72.528      -25.996      -13.685       10.307       12.422        7.392      106.244      154.301       54.635        0.322        0.016       77.046        4.707        0.004      334.219        4.048      865.929
01/03/2015  17:49:00      -89.997      -15.996      -13.728       10.759       12.975        7.824      115.754      168.349       61.221        0.444        0.017       91.408        6.354        0.005      334.405        4.357      865.938
01/03/2015  17:50:00      -86.247      -17.332      -17.216        8.363        7.723        7.197       69.945       59.640       51.796        0.411        0.009       87.971        4.656        0.003      334.315        4.206      865.967
01/03/2015  17:51:00      -89.586       -6.723      -13.854        8.943        7.628        6.111       79.969       58.188       37.346        0.422        0.009       89.837        4.188        0.002      334.424        4.389      865.980
01/03/2015  17:52:00      -92.579        4.622      -13.918        8.737        7.425        6.405       76.329       55.137       41.022        0.448        0.009       92.694        5.540        0.004      334.382        4.319      866.000
01/03/2015  17:53:00      -83.201       -4.351      -14.763       10.365        8.639        7.551      107.441       74.639       57.021        0.370        0.012       83.315        4.069        0.002      334.397        4.343      866.017
01/03/2015  17:54:00      -74.729      -19.012      -13.416        8.474        8.709        6.536       71.800       75.850       42.715        0.316        0.010       77.110        5.210        0.005      334.274        4.139      866.031
01/03/2015  17:55:00      -92.754      -31.501      -11.053        8.424        9.935        7.982       70.972       98.709       63.709        0.498        0.012       97.957        5.707        0.003      334.377        4.312      866.044
01/03/2015  17:56:00      -78.672      -18.194      -12.256       11.902       14.973        7.937      141.646      224.201       62.992        0.355        0.021       80.748        5.890        0.005      334.276        4.142      866.047
01/03/2015  17:57:00      -56.047      -14.371      -11.897       16.014       10.665       10.724      256.432      113.752      115.001        0.199        0.024       57.860       11.062        0.037      334.280        4.150      866.070
01/03/2015  17:58:00      -64.766      -15.575       -6.586        8.437        8.813        7.487       71.178       77.677       56.051        0.234        0.010       66.613        3.891        0.003      334.462        4.451      866.074
01/03/2015  17:59:00      -68.213      -29.483      -15.899        5.724        5.821        5.963       32.766       33.884       35.553        0.294        0.005       74.312        2.724        0.001      334.303        4.188      866.084
01/03/2015  18:00:00      -70.095      -28.390      -11.993        8.049       11.075        9.056       64.779      122.661       82.006        0.307        0.013       75.626        5.988        0.006      334.091        3.835      866.094
01/03/2015  18:01:00      -55.223       -9.575      -12.318       14.127       10.321        9.613      199.578      106.517       92.409        0.185        0.020       56.046        7.271        0.017      334.090        3.833      866.108
01/03/2015  18:02:00      -27.294       -9.709       -4.450       18.339        7.473       10.059      336.303       55.842      101.182        0.068        0.025       28.969        6.691        0.053      334.611        4.698      866.112
01/03/2015  18:03:00       -2.699        0.266       -1.360       10.533        5.809        5.116      110.951       33.747       26.174        0.009        0.009        2.712        4.776        3.100      334.692        4.832      866.104
01/03/2015  18:04:00       16.085        4.229        3.610       11.428       10.509        6.479      130.605      110.450       41.979        0.029        0.014       16.632        5.384        0.105      335.053        5.432      866.108
01/03/2015  18:05:00       18.999        4.849        9.988       12.919       11.018        7.115      166.910      121.406       50.626        0.041        0.017       19.608        3.232        0.027      335.056        5.436      866.100
01/03/2015  18:06:00      -13.751      -37.774        6.093       14.901       19.395       10.812      222.042      376.171      116.893        0.118        0.036       40.199        7.351        0.033      334.434        4.404      866.126
01/03/2015  18:07:00       -9.471      -29.262       -4.016       13.818       11.252        8.366      190.943      126.604       69.991        0.067        0.019       30.757        3.369        0.012      334.476        4.475      866.145
01/03/2015  18:08:00      -34.316      -19.752       -7.199       17.523       13.910        8.900      307.049      193.497       79.213        0.110        0.029       39.594        5.239        0.018      334.372        4.303      866.198
01/03/2015  18:09:00      -74.636      -17.378      -15.854       12.872       10.388        8.956      165.692      107.906       80.214        0.324        0.018       76.632        5.949        0.006      333.784        3.325      866.225
01/03/2015  18:10:00      -83.998       -1.041      -24.843       15.044       11.981       16.026      226.335      143.532      256.826        0.415        0.031       84.005       10.327        0.015      333.635        3.078      866.240
01/03/2015  18:11:00      -30.377       15.112       -6.667       41.611       14.326       10.511     1731.446      205.234      110.474        0.162        0.102       33.928        5.166        0.023      334.264        4.123      866.239
01/03/2015  18:12:00       21.941       17.335       10.013       16.886       14.032       12.557      285.133      196.895      157.685        0.076        0.032       27.963        8.792        0.099      334.953        5.265      866.231
01/03/2015  18:13:00       10.452        3.165        5.196       20.626        6.045        9.158      425.438       36.542       83.866        0.035        0.027       10.921       10.511        0.926      334.820        5.045      866.222
01/03/2015  18:14:00      -20.587      -13.837        0.193        7.594        7.087        5.576       57.668       50.227       31.097        0.038        0.007       24.805        3.303        0.018      334.208        4.030      866.223
01/03/2015  18:15:00      -22.054      -11.218       -1.548        9.529       10.870        5.124       90.808      118.164       26.252        0.042        0.012       24.743        4.616        0.035      334.283        4.156      866.228
01/03/2015  18:16:00      -12.062       -7.396       -4.082       13.485       11.530        8.863      181.848      132.930       78.558        0.031        0.020       14.149        5.423        0.147      334.392        4.334      866.231
01/03/2015  18:17:00      -47.140       -7.149      -12.752       12.260        6.150        6.405      150.310       37.828       41.019        0.133        0.011       47.679        6.736        0.020      333.868        3.466      866.249
01/03/2015  18:18:00      -45.185      -20.472      -13.006       12.096        9.831        6.370      146.324       96.642       40.573        0.146        0.014       49.606        4.755        0.009      333.789        3.335      866.256
01/03/2015  18:19:00       -6.408        4.066       -3.459       27.040       13.013        7.211      731.139      169.349       52.003        0.051        0.048        7.590       11.878        2.449      334.296        4.175      866.265
01/03/2015  18:20:00       28.241       23.004        2.897       10.819        6.167        4.732      117.047       38.034       22.391        0.076        0.009       36.424        2.702        0.006      334.721        4.880      866.271
01/03/2015  18:21:00       11.560       25.233        0.910        8.314        9.663        6.129       69.116       93.381       37.567        0.049        0.010       27.754        3.497        0.016      334.713        4.868      866.280
01/03/2015  18:22:00       -6.826       18.834       -0.454        9.775        6.859        5.452       95.550       47.046       29.724        0.029        0.009       20.033        3.523        0.031      334.823        5.049      866.308
01/03/2015  18:23:00      -24.219      -12.193       -3.851       13.844       13.345       10.359      191.670      178.078      107.308        0.061        0.024       27.115        8.450        0.097      333.910        3.536      866.313
01/03/2015  18:24:00       -3.156       35.234      -12.036       20.731       28.102       12.866      429.754      789.744      165.546        0.139        0.069       35.375       13.537        0.146      334.530        4.565      866.305
01/03/2015  18:25:00       10.838       14.043       -0.925       14.161       21.845       12.630      200.541      477.188      159.520        0.058        0.042       17.739        5.974        0.113      334.554        4.604      866.311
01/03/2015  18:26:00        7.449       -5.486        5.014       13.211       11.365       11.111      174.537      129.163      123.446        0.027        0.021        9.251        5.245        0.322      334.455        4.440      866.320
01/03/2015  18:27:00      -55.209       -8.935       -7.413       18.504        8.422        8.780      342.404       70.933       77.084        0.184        0.025       55.927        9.321        0.028      333.703        3.192      866.351
01/03/2015  18:28:00      -72.476      -10.051      -16.201        8.679        8.977        6.343       75.332       80.586       40.235        0.291        0.010       73.170        3.950        0.003      333.430        2.738      866.363
01/03/2015  18:29:00      -56.686      -13.547       -8.312        9.307        9.207        7.519       86.626       84.776       56.540        0.185        0.011       58.283        4.448        0.006      333.690        3.171      866.376
01/03/2015  18:30:00      -33.841      -16.788      -13.713       23.070       15.708        8.659      532.206      246.726       74.975        0.123        0.043       37.776       10.733        0.081      333.895        3.510      866.399
01/03/2015  18:31:00      -56.364      -19.001      -14.921        9.592       17.290        8.217       92.003      298.948       67.517        0.211        0.023       59.481        2.779        0.002      333.508        2.867      866.412
01/03/2015  18:32:00      -66.203      -22.143      -16.574       21.463       14.252       11.339      460.650      203.132      128.581        0.297        0.040       69.808       11.337        0.026      333.615        3.045      866.417
01/03/2015  18:33:00      -71.206      -24.818      -17.183       15.862       12.884        8.131      251.615      165.989       66.105        0.323        0.024       75.407        8.777        0.014      333.338        2.587      866.425
01/03/2015  18:34:00      -72.633      -11.145      -19.817       20.443       12.272        9.007      417.930      150.603       81.124        0.322        0.032       73.483        9.218        0.016      333.212        2.379      866.422
01/03/2015  18:35:00      -87.394       -4.063      -25.911       24.287       21.146       15.760      589.850      447.159      248.365        0.481        0.064       87.489       11.974        0.019      333.119        2.225      866.439
01/03/2015  18:36:00      -89.622        2.945      -21.996       16.759       18.015       13.531      280.881      324.529      183.092        0.466        0.039       89.670        9.321        0.011      333.161        2.295      866.458
01/03/2015  18:37:00      -72.901       10.066      -14.791       16.750       14.287        9.470      280.556      204.108       89.672        0.310        0.029       73.593        4.940        0.005      333.354        2.614      866.475
01/03/2015  18:38:00      -12.227       78.747      -14.233       22.076       41.339       13.915      487.360     1708.952      193.630        0.447        0.119       79.691       13.579        0.029      334.284        4.155      866.498
01/03/2015  18:39:00      -25.072       84.630      -10.078       25.487       65.748       17.043      649.570     4322.806      290.455        0.658        0.263       88.266       28.018        0.101      334.345        4.255      866.510
01/03/2015  18:40:00      -48.264      -43.771      -14.022       17.477       24.782       15.576      305.460      614.135      242.625        0.280        0.058       65.156       13.574        0.043      333.517        2.884      866.528
01/03/2015  18:41:00      -92.174      -39.021      -19.225       22.103       21.365       14.862      488.560      456.472      220.888        0.578        0.058      100.094        8.691        0.008      333.226        2.401      866.529
01/03/2015  18:42:00      -79.310       -5.572      -25.601       14.893       13.214       11.382      221.796      174.611      129.554        0.375        0.026       79.505        5.302        0.004      333.381        2.658      866.552
01/03/2015  18:43:00      -26.255        9.596       -3.843       29.165       11.382       10.879      850.624      129.551      118.348        0.095        0.055       27.954       13.730        0.241      334.093        3.839      866.555
01/03/2015  18:44:00       -2.374       21.351        1.897       12.571       13.074       10.379      158.034      170.937      107.724        0.045        0.022       21.482        9.321        0.188      334.558        4.609      866.566
01/03/2015  18:45:00      -50.190      -13.601       -8.210       17.709       15.454        9.817      313.605      238.835       96.381        0.171        0.032       52.000       10.383        0.040      334.024        3.722      866.574
01/03/2015  18:46:00      -93.352      -26.547      -14.148       13.557       14.755        9.441      183.789      217.702       89.137        0.505        0.025       97.054        6.008        0.004      333.289        2.506      866.587
01/03/2015  18:47:00     -104.291       -7.497      -23.728       12.038       16.941       11.671      144.923      287.001      136.221        0.603        0.028      104.560        6.022        0.003      333.191        2.343      866.602
01/03/2015  18:48:00     -102.149       15.452      -19.123       24.934       18.761       12.620      621.704      351.970      159.260        0.609        0.057      103.311        5.824        0.003      333.276        2.484      866.599
01/03/2015  18:49:00     -102.119       -3.811      -17.887       19.326       21.376       14.341      373.492      456.929      205.654        0.590        0.052      102.190       12.245        0.014      333.214        2.381      866.608
01/03/2015  18:50:00      -91.727      -33.668      -14.126       20.778       24.800       13.034      431.726      615.026      169.875        0.548        0.061       97.711       10.554        0.012      333.215        2.381      866.603
01/03/2015  18:51:00     -118.156      -32.449      -21.594       44.151       22.878       16.041     1949.296      523.404      257.322        0.910        0.137      122.530       14.384        0.014      333.166        2.303      866.612
01/03/2015  18:52:00     -120.612      -22.180      -11.667       36.319       37.201       21.907     1319.036     1383.911      479.922        0.918        0.159      122.635       14.033        0.013      333.061        2.128      866.617
01/03/2015  18:53:00      -82.240      -10.356      -11.972       36.976       17.751       18.197     1367.226      315.106      331.130        0.451        0.101       82.890       18.698        0.051      333.134        2.248      866.638
01/03/2015  18:54:00      -92.065      -23.561      -12.501       16.986       21.941       11.364      288.528      481.423      129.141        0.504        0.045       95.032        6.473        0.005      333.120        2.227      866.652
01/03/2015  18:55:00     -135.189      -36.626      -11.208       31.532       28.101       15.693      994.295      789.654      246.279        1.089        0.102      140.063       13.319        0.009      333.247        2.437      866.673
01/03/2015  18:56:00      -81.761      -23.766      -10.600       38.061       34.601       19.135     1448.640     1197.219      366.152        0.519        0.151       85.145       15.129        0.032      333.178        2.321      866.684
01/03/2015  18:57:00     -122.996       -2.048      -14.880       34.620       30.659       24.082     1198.520      939.977      579.921        0.904        0.136      123.013       19.136        0.024      333.241        2.427      866.678
01/03/2015  18:58:00     -113.672      -17.261       -4.909       43.236       32.985       20.222     1869.327     1088.027      408.941        0.830        0.168      114.975       17.238        0.022      333.156        2.286      866.686
01/03/2015  18:59:00     -116.095       -3.615       -4.717       44.679       33.303       24.766     1996.169     1109.106      613.364        0.862        0.186      116.152       22.410        0.037      333.197        2.353      866.676
01/03/2015  19:00:00      -75.853       15.039       -9.216       27.889       29.248       16.892      777.823      855.462      285.340        0.399        0.096       77.330       10.176        0.017      333.327        2.569      866.674
01/03/2015  19:01:00      -74.906       -7.926      -18.256       17.207       13.301       16.478      296.068      176.916      271.538        0.338        0.037       75.324       12.887        0.029      333.306        2.534      866.658
01/03/2015  19:02:00     -105.665      -29.663      -24.192       16.188       20.347       10.288      262.056      413.991      105.837        0.671        0.039      109.750       10.612        0.009      333.284        2.497      866.658
01/03/2015  19:03:00     -119.183      -31.122      -23.908       29.006       28.325       16.093      841.370      802.279      259.000        0.882        0.095      123.180       16.672        0.018      333.243        2.429      866.678
01/03/2015  19:04:00     -115.974       -1.066      -18.063       29.416       19.704       19.322      865.272      388.232      373.350        0.770        0.081      115.979       18.541        0.026      333.316        2.551      866.679
01/03/2015  19:05:00     -111.367      -13.262      -20.470       34.458       23.788       16.653     1187.339      565.851      277.321        0.751        0.102      112.154       16.102        0.021      333.255        2.450      866.678
01/03/2015  19:06:00      -95.984      -39.356      -12.523       16.296       22.822       16.085      265.555      520.860      258.725        0.598        0.052      103.739       14.206        0.019      333.218        2.389      866.676
01/03/2015  19:07:00      -91.674      -14.671      -12.711       19.763       25.781       14.252      390.558      664.654      203.129        0.502        0.063       92.840        7.413        0.006      333.186        2.336      866.677
01/03/2015  19:08:00      -68.025       24.722      -14.989       28.512       12.429       11.543      812.918      154.479      133.244        0.328        0.055       72.378       10.430        0.021      333.635        3.079      866.644
01/03/2015  19:09:00        8.925       39.643       -2.398       19.965       23.377        9.089      398.603      546.501       82.601        0.134        0.051       40.635       10.176        0.063      334.329        4.229      866.630
01/03/2015  19:10:00      -18.223        7.356       -6.042       27.362       22.102        8.166      748.661      488.517       66.686        0.086        0.065       19.652       10.448        0.283      333.880        3.485      866.622
01/03/2015  19:11:00     -100.889      -35.724      -19.019       36.534       11.204        9.923     1334.706      125.531       98.462        0.669        0.078      107.027       12.703        0.014      333.211        2.378      866.631
01/03/2015  19:12:00     -143.612      -14.047      -23.200       27.155       20.580       16.073      737.372      423.533      258.353        1.139        0.071      144.298        9.174        0.004      333.046        2.105      866.649
01/03/2015  19:13:00     -125.295      -10.357      -21.129       27.123       19.542       15.382      735.632      381.877      236.593        0.880        0.068      125.723       13.734        0.012      333.052        2.114      866.656
01/03/2015  19:14:00     -104.347        0.476      -22.581       15.680       11.446       10.738      245.849      131.016      115.312        0.595        0.025      104.348        4.408        0.002      333.183        2.331      866.657
01/03/2015  19:15:00     -106.439       -1.839      -21.873       10.743       11.861       10.415      115.416      140.690      108.469        0.609        0.018      106.455        4.794        0.002      333.191        2.345      866.660
01/03/2015  19:16:00      -97.151      -15.762      -19.716       14.724       11.283        9.913      216.810      127.297       98.275        0.526        0.022       98.421        2.934        0.001      333.134        2.251      866.685
01/03/2015  19:17:00      -42.441       -4.903      -10.542       38.496       14.685       12.877     1481.920      215.649      165.818        0.190        0.093       42.723       19.465        0.208      333.760        3.287      866.687
01/03/2015  19:18:00       -7.873       13.080        1.037       17.238       17.157       11.634      297.149      294.361      135.341        0.048        0.036       15.266        6.542        0.184      334.321        4.219      866.677
01/03/2015  19:19:00      -84.774      -39.771      -11.547       17.537       15.419       11.302      307.553      237.737      127.744        0.479        0.034       93.639       12.273        0.017      333.324        2.563      866.676
01/03/2015  19:20:00     -165.451      -12.378      -21.551       29.134       30.146       18.566      848.795      908.770      344.686        1.505        0.105      165.913       17.829        0.012      332.888        1.845      866.685
01/03/2015  19:21:00     -147.671      -12.529      -20.737       42.655       28.704       20.935     1819.466      823.913      438.268        1.274        0.154      148.202       22.882        0.024      332.810        1.715      866.704
01/03/2015  19:22:00     -100.474        1.458      -16.307       22.310       16.936       16.514      497.749      286.836      272.726        0.571        0.053      100.484       10.684        0.011      332.946        1.938      866.702
01/03/2015  19:23:00      -81.449      -13.151      -19.924       10.569       10.701        8.067      111.696      114.504       65.075        0.375        0.015       82.504        6.369        0.006      333.296        2.517      866.681
01/03/2015  19:24:00      -94.048      -21.740      -19.781       21.874       16.759       10.792      478.480      280.873      116.459        0.529        0.044       96.528        8.376        0.008      333.150        2.277      866.689
01/03/2015  19:25:00     -113.188      -21.375      -14.851       20.107       30.906       19.516      404.283      955.209      380.861        0.761        0.087      115.188       19.488        0.029      333.041        2.098      866.692
01/03/2015  19:26:00      -67.405      -32.622      -11.012       27.472       20.898       15.236      754.708      436.716      232.135        0.358        0.071       74.884       10.855        0.021      332.962        1.967      866.689
01/03/2015  19:27:00      -91.418      -23.958      -17.298       27.560       22.871       12.064      759.577      523.070      145.528        0.533        0.071       94.505        7.402        0.006      333.021        2.065      866.697
01/03/2015  19:28:00      -98.052      -24.484      -13.720       30.409       24.599       15.022      924.729      605.119      225.663        0.608        0.088      101.063       12.052        0.014      333.008        2.042      866.714
01/03/2015  19:29:00     -125.911      -13.176      -22.993       20.375       16.497       14.349      415.138      272.147      205.880        0.872        0.045      126.599       11.057        0.008      333.033        2.083      866.733
01/03/2015  19:30:00     -105.424      -15.835      -16.242       25.261       26.086       18.335      638.116      680.475      336.156        0.664        0.083      106.606       12.853        0.015      332.966        1.972      866.766
01/03/2015  19:31:00     -137.189      -14.097      -18.306       32.000       31.499       21.779     1024.014      992.194      474.314        1.092        0.125      137.911       16.669        0.015      332.991        2.014      866.790
01/03/2015  19:32:00     -103.709       -4.043      -13.404       37.797       24.703       17.545     1428.587      610.224      307.837        0.665        0.117      103.788       21.471        0.043      332.979        1.994      866.805
01/03/2015  19:33:00     -105.009      -12.002      -21.361       24.027       21.374       13.206      577.302      456.836      174.390        0.642        0.060      105.693       10.662        0.010      333.014        2.053      866.827
01/03/2015  19:34:00      -86.850      -18.854       -9.608       17.256       21.185       16.628      297.771      448.807      276.503        0.451        0.051       88.873       11.015        0.015      332.997        2.023      866.861
01/03/2015  19:35:00      -84.002      -16.136      -14.403       21.062       21.769       12.926      443.611      473.906      167.088        0.430        0.054       85.538        6.218        0.005      332.973        1.983      866.885
01/03/2015  19:36:00      -89.097      -10.097      -16.911       21.655       21.115       16.884      468.939      445.831      285.060        0.476        0.060       89.668       13.626        0.023      332.946        1.940      866.899
01/03/2015  19:37:00      -95.214      -13.720      -16.960       15.714       23.932       17.066      246.920      572.746      291.245        0.533        0.056       96.197       10.549        0.012      333.024        2.068      866.910
01/03/2015  19:38:00      -93.877      -17.727      -18.233       18.699       15.139       16.771      349.640      229.186      281.260        0.516        0.043       95.536        8.358        0.008      332.949        1.945      866.917
01/03/2015  19:39:00     -101.073      -10.999      -16.391       18.815       19.563       15.398      354.021      382.701      237.105        0.579        0.049      101.670       13.188        0.017      332.870        1.815      866.928
01/03/2015  19:40:00     -124.465       -0.556      -18.847       24.625       27.018       16.798      606.401      729.954      282.170        0.873        0.081      124.466       11.885        0.009      332.982        1.999      866.939
01/03/2015  19:41:00      -88.990       10.123      -18.519       18.271       16.503       10.587      333.843      272.364      112.088        0.454        0.036       89.564       11.023        0.015      333.067        2.140      866.928
01/03/2015  19:42:00      -64.864        5.557       -8.839        8.724       14.541        6.854       76.114      211.448       46.979        0.233        0.017       65.102        3.788        0.003      333.466        2.799      866.926
01/03/2015  19:43:00      -39.350        5.909       -7.409       15.486       13.376       12.349      239.828      178.911      152.500        0.110        0.029       39.791        4.920        0.015      333.811        3.372      866.930
01/03/2015  19:44:00      -70.238      -28.100      -12.324       20.652       11.742       11.328      426.494      137.878      128.334        0.328        0.035       75.650       10.483        0.019      333.098        2.192      866.932
01/03/2015  19:45:00     -115.069       -9.022      -23.931       24.404       23.703       19.287      595.561      561.840      371.980        0.771        0.076      115.422       10.892        0.009      332.762        1.636      866.955
01/03/2015  19:46:00      -99.571      -23.477      -16.929       20.957       21.925       13.221      439.178      480.698      174.803        0.592        0.055      102.302        7.706        0.006      332.677        1.495      866.989
01/03/2015  19:47:00     -106.783      -18.980      -20.792       14.625       14.293       11.471      213.889      204.278      131.579        0.637        0.027      108.457        6.671        0.004      332.745        1.607      867.011
01/03/2015  19:48:00     -113.926      -12.570      -19.573       21.926       13.175       15.410      480.740      173.581      237.456        0.721        0.045      114.617        8.479        0.005      332.726        1.577      867.031
01/03/2015  19:49:00     -126.860      -13.820      -22.383       17.932       20.422       13.261      321.562      417.061      175.853        0.885        0.046      127.610        6.716        0.003      332.783        1.672      867.042
01/03/2015  19:50:00     -104.732      -17.340      -26.969       14.353       18.225       10.179      206.004      332.145      103.604        0.632        0.032      106.158        6.111        0.003      332.788        1.679      867.037
01/03/2015  19:51:00     -113.694      -18.517      -24.517       21.209       13.449       11.780      449.812      180.885      138.775        0.732        0.038      115.192        8.179        0.005      332.703        1.538      867.024
01/03/2015  19:52:00     -108.978       -8.912      -23.612       10.664        8.990        8.385      113.729       80.815       70.315        0.639        0.013      109.342        5.194        0.002      332.745        1.607      867.022
01/03/2015  19:53:00     -104.130       -9.264      -18.527       13.500       15.909       11.691      182.248      253.097      136.676        0.592        0.029      104.542        8.350        0.006      332.779        1.664      867.028
01/03/2015  19:54:00      -99.963       -5.380      -18.098       10.280       16.346       10.012      105.670      267.188      100.249        0.541        0.024      100.108        5.919        0.003      332.911        1.883      867.008
01/03/2015  19:55:00      -81.643      -15.503      -18.761       12.877       15.464       12.242      165.830      239.133      149.872        0.391        0.028       83.102        5.969        0.005      332.759        1.631      866.998
01/03/2015  19:56:00      -86.064       -9.199      -21.057        8.592       10.284        8.708       73.823      105.756       75.836        0.410        0.013       86.554        4.401        0.003      332.790        1.682      867.001
01/03/2015  19:57:00      -84.318      -18.095      -20.117       12.759       12.501        8.597      162.797      156.287       73.909        0.412        0.020       86.238        6.445        0.006      332.743        1.603      866.997
01/03/2015  19:58:00      -82.925      -16.212      -18.776        9.268        8.647        9.659       85.899       74.768       93.297        0.387        0.013       84.495        4.737        0.003      332.812        1.718      866.998
01/03/2015  19:59:00      -75.304      -13.008      -17.238       13.203       11.109        9.333      174.325      123.399       87.112        0.326        0.019       76.419        8.522        0.012      332.892        1.851      867.003
01/03/2015  20:00:00      -35.981        5.916       -9.008       21.049       11.364       11.048      443.076      129.130      122.054        0.105        0.035       36.465        6.838        0.035      333.534        2.912      867.010
01/03/2015  20:01:00      -14.086       17.002       -2.970       17.601       19.222       12.234      309.798      369.492      149.672        0.066        0.041       22.079        8.466        0.147      333.896        3.511      867.004
01/03/2015  20:02:00      -26.868       14.880       -3.355       22.437       25.507       18.504      503.424      650.585      342.414        0.123        0.075       30.713       14.603        0.226      333.672        3.141      866.990
01/03/2015  20:03:00        1.191        2.656        3.026       24.955       21.078       14.850      622.766      444.273      220.524        0.065        0.064        2.910        7.231        6.172      333.510        2.872      866.979
01/03/2015  20:04:00      -11.723       10.907       -2.687       15.815       14.485        8.091      250.118      209.819       65.469        0.039        0.026       16.012        8.594        0.288      333.616        3.048      866.977
01/03/2015  20:05:00      -26.100        5.669        1.554       10.833       15.053        6.634      117.357      226.603       44.007        0.055        0.019       26.708        1.600        0.004      333.472        2.810      866.977
01/03/2015  20:06:00      -37.367      -13.989        3.149       10.626       11.541        8.531      112.915      133.185       72.782        0.096        0.016       39.899        4.872        0.015      333.312        2.543      866.968
01/03/2015  20:07:00      -38.293      -12.313       -6.092       13.993       14.959        7.084      195.797      223.783       50.184        0.106        0.023       40.224        5.276        0.017      333.089        2.176      866.964
01/03/2015  20:08:00      -56.463      -25.333      -11.907        5.714       10.305        6.323       32.645      106.191       39.976        0.208        0.009       61.886        2.926        0.002      332.963        1.969      866.960
01/03/2015  20:09:00      -55.092      -30.618       -6.771       11.563       15.057        9.869      133.705      226.715       97.395        0.224        0.023       63.028        3.670        0.003      332.749        1.614      866.960
01/03/2015  20:10:00      -46.045      -35.517      -13.581       13.289       15.620        7.525      176.587      243.980       56.628        0.202        0.024       58.151        6.985        0.014      332.864        1.805      866.967
01/03/2015  20:11:00      -61.625      -22.135      -12.077       10.005        9.310        8.187      100.102       86.673       67.027        0.234        0.013       65.480        4.759        0.005      332.970        1.979      866.968
01/03/2015  20:12:00      -65.713      -22.525      -12.237       11.104       14.333       12.558      123.293      205.434      157.714        0.273        0.024       69.467        9.074        0.017      332.755        1.623      866.954
01/03/2015  20:13:00      -74.978      -22.207      -18.744       20.446       15.602       11.476      418.032      243.408      131.690        0.363        0.040       78.198        9.203        0.014      332.643        1.439      866.941
01/03/2015  20:14:00      -70.627      -28.367      -11.959       17.347       19.299        9.153      300.921      372.465       83.773        0.335        0.038       76.111        5.474        0.005      332.588        1.349      866.933
01/03/2015  20:15:00      -66.017      -17.996      -17.568       14.022       17.263        8.762      196.609      298.023       76.777        0.278        0.029       68.426        8.481        0.015      332.570        1.317      866.923
01/03/2015  20:16:00      -87.399        1.458      -19.605       18.380       13.573        8.603      337.835      184.222       74.007        0.431        0.030       87.411        2.764        0.001      332.602        1.371      866.928
01/03/2015  20:17:00      -83.828      -19.106      -13.220       26.314       15.028       12.471      692.427      225.835      155.538        0.432        0.054       85.977       12.558        0.021      332.517        1.228      866.950
01/03/2015  20:18:00     -119.702      -23.105      -17.581       34.544       28.177       15.561     1193.287      793.965      242.139        0.870        0.111      121.911       11.748        0.009      332.450        1.122      866.977
01/03/2015  20:19:00     -109.909      -40.537      -15.198       27.333       20.879       16.547      747.098      435.932      273.801        0.771        0.073      117.146        9.780        0.007      332.370        0.988      866.989
01/03/2015  20:20:00     -133.750      -37.819      -21.113       21.781       27.099       15.489      474.421      734.339      239.906        1.061        0.072      138.994        4.265        0.001      332.341        0.941      866.996
01/03/2015  20:21:00     -115.018      -29.600      -16.626       26.608       24.937       17.791      707.995      621.877      316.508        0.801        0.082      118.766       12.757        0.012      332.325        0.913      867.007
01/03/2015  20:22:00     -127.000      -35.493      -28.725       28.856       23.057       18.147      832.677      531.645      329.317        0.995        0.085      131.866       14.355        0.012      332.293        0.861      867.019
01/03/2015  20:23:00     -157.953      -43.310      -14.859       34.814       41.017       28.446     1212.022     1682.391      809.157        1.537        0.185      163.783       22.921        0.020      332.237        0.770      867.025
01/03/2015  20:24:00     -169.844      -14.584      -18.326       36.739       28.281       23.117     1349.770      799.831      534.404        1.604        0.134      170.469       16.337        0.009      332.232        0.761      867.038
01/03/2015  20:25:00     -141.315      -28.711       -4.559       42.631       38.241       22.839     1817.401     1462.405      521.628        1.231        0.190      144.203       19.835        0.019      332.229        0.757      867.038
01/03/2015  20:26:00      -41.333       -3.179       10.748       65.337       35.747       19.940     4268.860     1277.824      397.607        0.389        0.297       41.456       19.092        0.212      332.243        0.779      867.033
01/03/2015  20:27:00      -97.600      -28.272       -1.889       65.350       52.134       24.764     4270.617     2717.910      613.261        0.896        0.380      101.612       26.208        0.067      332.230        0.758      867.040
01/03/2015  20:28:00     -119.331      -42.209       -0.705       46.946       44.530       22.621     2203.930     1982.888      511.719        1.036        0.235      126.576       16.899        0.018      332.214        0.732      867.050
01/03/2015  20:29:00      -92.615      -53.844       -3.506       44.740       34.081       27.780     2001.673     1161.510      771.754        0.771        0.197      107.129       20.731        0.037      332.169        0.658      867.069
01/03/2015  20:30:00     -130.289      -51.181       -9.483       41.301       52.394       26.513     1705.775     2745.100      702.932        1.242        0.258      139.981       16.622        0.014      332.222        0.745      867.084
01/03/2015  20:31:00      -47.880      -52.747       11.514       40.602       36.630       30.055     1648.502     1341.733      903.291        0.455        0.195       71.237       26.247        0.136      332.216        0.735      867.086
01/03/2015  20:32:00      -64.315      -49.882      -12.768       40.853       30.815       19.398     1668.969      949.580      376.299        0.489        0.150       81.392       12.617        0.024      332.258        0.803      867.083
01/03/2015  20:33:00     -111.438      -55.430      -16.338       23.541       28.603       19.220      554.173      818.123      369.428        0.875        0.087      124.463       14.346        0.013      332.241        0.776      867.088
01/03/2015  20:34:00     -130.206      -12.170      -15.564       33.286       19.870       19.976     1107.976      394.828      399.026        0.962        0.095      130.773       17.591        0.018      332.305        0.880      867.077
01/03/2015  20:35:00      -99.560      -27.085      -15.311       27.862       23.933       18.476      776.296      572.801      341.362        0.628        0.085      103.178       20.474        0.039      332.317        0.899      867.066
01/03/2015  20:36:00     -123.762      -27.390      -16.407       14.696       15.567       16.179      215.982      242.347      261.771        0.853        0.036      126.757        8.645        0.005      332.356        0.966      867.070
01/03/2015  20:37:00     -130.489      -17.386      -17.227       28.157       15.412       16.683      792.807      237.521      278.322        0.947        0.065      131.642       13.728        0.011      332.332        0.925      867.067
01/03/2015  20:38:00     -106.021      -45.141      -10.476       22.705       22.801       21.090      515.539      519.865      444.786        0.743        0.074      115.231       17.527        0.023      332.373        0.991      867.058
01/03/2015  20:39:00     -130.116       -5.425      -18.273       22.480       24.731       16.921      505.336      611.624      286.325        0.935        0.070      130.229       13.625        0.011      332.366        0.981      867.031
01/03/2015  20:40:00      -96.847      -26.458      -17.357       20.043       15.989        9.481      401.730      255.641       89.894        0.556        0.037      100.396        5.231        0.003      332.330        0.921      867.015
01/03/2015  20:41:00      -85.785      -22.774      -15.492        9.562       15.301        8.888       91.433      234.107       78.994        0.426        0.020       88.757        7.867        0.008      332.310        0.889      867.002
01/03/2015  20:42:00     -103.174      -29.401      -18.930       14.252       15.456       10.200      203.127      238.876      104.032        0.621        0.027      107.281        5.858        0.003      332.250        0.791      866.990
01/03/2015  20:43:00     -102.602      -29.269      -18.950       17.603       21.501       15.418      309.871      462.308      237.727        0.638        0.050      106.695       13.839        0.017      332.281        0.842      867.007
01/03/2015  20:44:00     -110.817      -31.259      -14.647       20.915       23.387       16.788      437.446      546.940      281.837        0.737        0.063      115.141       13.018        0.013      332.232        0.761      867.020
01/03/2015  20:45:00     -125.719      -15.041      -18.487       17.167       21.427       16.649      294.707      459.107      277.191        0.870        0.052      126.615       13.386        0.011      332.276        0.835      867.017
01/03/2015  20:46:00     -112.784      -29.453      -20.709       20.445       15.889       12.427      417.995      252.461      154.436        0.742        0.041      116.567        7.891        0.005      332.243        0.779      867.004
01/03/2015  20:47:00     -123.039      -29.091      -11.328       21.695       20.644       14.244      470.656      426.185      202.900        0.861        0.055      126.431       13.039        0.011      332.264        0.815      867.007
01/03/2015  20:48:00     -104.668      -42.611      -20.986       30.521       21.465       16.108      931.560      460.763      259.477        0.743        0.083      113.009       11.733        0.011      332.232        0.762      866.999
01/03/2015  20:49:00     -101.751      -25.385      -19.569       23.748       20.563       16.134      563.967      422.844      260.313        0.631        0.062      104.870       11.959        0.013      332.193        0.698      866.989
01/03/2015  20:50:00     -129.507      -22.991      -19.576       21.402       20.678       13.430      458.057      427.599      180.357        0.937        0.053      131.532        5.590        0.002      332.203        0.713      866.976
01/03/2015  20:51:00     -152.290      -19.846      -19.430       22.412       23.623       21.628      502.312      558.030      467.772        1.275        0.076      153.578       13.604        0.008      332.184        0.683      866.969
01/03/2015  20:52:00     -116.523      -32.053      -12.172       21.786       20.673       16.894      474.646      427.385      285.419        0.797        0.059      120.852       12.488        0.011      332.184        0.682      866.956
01/03/2015  20:53:00      -93.988      -38.962      -14.095       30.217       22.467       15.388      913.040      504.764      236.792        0.610        0.083      101.743        8.504        0.007      332.211        0.728      866.946
01/03/2015  20:54:00      -74.998      -32.238      -16.859       37.356       21.946       17.572     1395.439      481.646      308.774        0.457        0.109       81.633        7.248        0.008      332.174        0.664      866.940
01/03/2015  20:55:00     -108.657      -12.463      -20.100       17.642       20.447       14.517      311.236      418.070      210.749        0.665        0.047      109.369       10.977        0.010      332.120        0.575      866.941
01/03/2015  20:56:00      -92.115      -24.067      -17.657       18.838       23.674       17.988      354.884      560.447      323.580        0.531        0.062       95.207        4.181        0.002      332.131        0.594      866.962
01/03/2015  20:57:00     -101.594      -30.551      -21.614       17.679       30.682       15.799      312.551      941.385      249.621        0.661        0.075      106.088        9.168        0.007      332.153        0.631      866.976
01/03/2015  20:58:00     -125.731      -39.595      -14.464       35.369       31.272       15.560     1250.995      977.968      242.111        1.003        0.124      131.818       11.028        0.007      332.126        0.585      866.993
01/03/2015  20:59:00     -135.624      -41.096      -13.764       29.933       27.798       21.401      895.994      772.728      458.014        1.120        0.106      141.713       16.430        0.013      331.984        0.351      866.991
01/03/2015  21:00:00     -109.142      -25.726      -10.942       38.006       22.432       16.321     1444.476      503.199      266.369        0.745        0.111      112.133       12.764        0.013      332.033        0.433      866.991
01/03/2015  21:01:00     -113.908      -23.860      -13.332       20.425       28.602       17.673      417.183      818.094      312.329        0.763        0.077      116.381        9.958        0.007      331.977        0.342      866.983
01/03/2015  21:02:00      -93.092      -25.426      -18.484       26.328       28.287       15.508      693.159      800.145      240.512        0.569        0.087       96.502        9.054        0.009      332.015        0.403      866.969
01/03/2015  21:03:00     -107.734      -35.897      -11.020       45.485       30.365       24.044     2068.910      922.050      578.107        0.829        0.178      113.557       16.938        0.022      332.040        0.444      866.956
01/03/2015  21:04:00      -98.762      -10.220       -0.131       55.140       55.285       33.922     3040.436     3056.484     1150.706        0.855        0.362       99.289       30.530        0.095      332.017        0.405      866.953
01/03/2015  21:05:00     -105.949      -38.597       -8.538       44.095       36.912       21.400     1944.393     1362.488      457.973        0.828        0.188      112.760       13.002        0.013      331.998        0.374      866.946
01/03/2015  21:06:00      -86.583      -17.520       -8.064       36.234       31.308       19.184     1312.894      980.220      368.012        0.526        0.133       88.338        9.136        0.011      332.078        0.507      866.946
01/03/2015  21:07:00     -127.027      -52.149      -11.849       50.239       34.010       25.752     2523.909     1156.705      663.146        1.167        0.217      137.315       19.222        0.020      331.998        0.375      866.959
01/03/2015  21:08:00     -101.625      -18.310        0.851       81.909       46.017       34.375     6709.065     2117.600     1181.658        1.033        0.500      103.262       42.842        0.172      331.950        0.295      866.977
01/03/2015  21:09:00     -120.356       34.389      -10.028       63.981       54.082       32.501     4093.505     2924.879     1056.297        1.192        0.404      125.173       28.893        0.053      332.084        0.517      866.983
01/03/2015  21:10:00     -135.986       52.600       -8.646       52.782       34.197       36.880     2785.939     1169.468     1360.139        1.332        0.266      145.805       26.802        0.034      332.117        0.572      866.972
01/03/2015  21:11:00     -127.711       20.340      -12.752       46.531       41.724       23.569     2165.170     1740.875      555.486        1.067        0.223      129.320       20.892        0.026      332.199        0.707      866.959
01/03/2015  21:12:00      -72.236      -40.474        2.192       45.086       31.532       20.292     2032.782      994.262      411.766        0.515        0.172       82.802       19.163        0.054      332.086        0.519      866.936
01/03/2015  21:13:00      -58.207      -14.984       -8.389       31.720       24.139       17.230     1006.186      582.691      296.886        0.278        0.094       60.105       13.695        0.052      332.023        0.416      866.919
01/03/2015  21:14:00      -96.057       -0.293      -22.798       13.461       24.106       16.032      181.203      581.112      257.036        0.538        0.051       96.057       12.538        0.017      332.052        0.463      866.917
01/03/2015  21:15:00      -90.261       -5.542      -15.349        7.985       10.378       10.421       63.752      107.705      108.599        0.435        0.014       90.431        4.432        0.002      332.149        0.623      866.927
01/03/2015  21:16:00      -69.371      -10.919      -12.730       18.712       19.752       13.986      350.128      390.156      195.595        0.301        0.047       70.225       10.523        0.022      332.135        0.603      866.923
01/03/2015  21:17:00     -104.857      -21.880      -19.920       32.512       22.526       20.803     1057.058      507.442      432.753        0.693        0.100      107.116       11.442        0.011      332.073        0.498      866.921
01/03/2015  21:18:00      -90.897      -25.106       -7.484       26.752       29.174       20.473      715.689      851.135      419.127        0.547        0.099       94.301       18.514        0.039      331.990        0.361      866.921
01/03/2015  21:19:00      -80.415      -23.052      -11.732       33.732       28.326       17.166     1137.856      802.368      294.657        0.468        0.112       83.654        9.895        0.014      331.982        0.348      866.912
01/03/2015  21:20:00      -75.325      -21.039      -22.412       14.856       18.086       13.441      220.688      327.115      180.659        0.367        0.036       78.208       10.509        0.018      332.008        0.390      866.903
01/03/2015  21:21:00      -90.307      -15.341      -18.516       10.996       15.365       11.172      120.901      236.084      124.811        0.461        0.024       91.601        7.452        0.007      332.094        0.534      866.881
01/03/2015  21:22:00      -75.565      -15.387      -10.873       25.215       14.029       13.340      635.801      196.814      177.951        0.354        0.051       77.116       13.432        0.030      332.023        0.417      866.866
01/03/2015  21:23:00     -102.212      -23.122      -15.751       15.765       22.730       11.945      248.521      516.633      142.680        0.607        0.045      104.794        9.019        0.007      331.997        0.373      866.875
01/03/2015  21:24:00      -94.316      -16.115       -9.807       33.242       24.428       17.192     1105.060      596.725      295.548        0.562        0.100       95.682       15.961        0.028      331.998        0.375      866.891
01/03/2015  21:25:00     -123.888      -23.978      -20.146       26.048       26.267       16.819      678.522      689.933      282.864        0.899        0.083      126.187       12.958        0.011      331.933        0.268      866.904
01/03/2015  21:26:00     -137.048      -18.636      -18.718       25.959       24.635       21.054      673.867      606.908      443.256        1.060        0.086      138.310       15.294        0.012      331.920        0.246      866.915
01/03/2015  21:27:00     -108.598      -20.450      -12.714       34.122       39.227       19.655     1164.309     1538.786      386.300        0.773        0.154      110.506       19.117        0.030      331.907        0.225      866.919
01/03/2015  21:28:00      -68.578        4.304      -12.152       42.122       31.301       23.612     1774.244      979.769      557.518        0.409        0.166       68.713       25.575        0.139      331.904        0.219      866.921
01/03/2015  21:29:00      -73.397       -0.669       -4.388       42.445       21.026       18.757     1801.579      442.087      351.810        0.400        0.130       73.400       21.614        0.087      331.866        0.158      866.923
01/03/2015  21:30:00      -89.588       -0.955      -15.633       18.224       15.591       13.973      332.100      243.067      195.257        0.452        0.039       89.593       11.496        0.016      331.923        0.251      866.912
01/03/2015  21:31:00      -80.832      -15.570      -13.997       16.113       12.367       12.396      259.622      152.950      153.651        0.377        0.028       82.318        9.468        0.013      331.971        0.331      866.899
01/03/2015  21:32:00      -98.680      -27.880      -23.576       15.110       19.399       13.705      228.315      376.332      187.815        0.593        0.040      102.543        7.715        0.006      331.921        0.248      866.904
01/03/2015  21:33:00     -137.188      -23.138      -17.796       38.170       31.060       15.891     1456.921      964.707      252.528        1.117        0.134      139.125       10.024        0.005      331.854        0.139      866.921
01/03/2015  21:34:00     -133.917      -21.619      -20.032       28.038       20.025       15.652      786.114      400.994      244.992        1.012        0.072      135.650       11.719        0.007      331.827        0.095      866.922
01/03/2015  21:35:00     -103.549      -22.702      -20.172       20.839       21.149       15.144      434.272      447.292      229.339        0.638        0.056      106.008       10.335        0.010      331.893        0.201      866.929
01/03/2015  21:36:00     -114.848      -35.770      -21.487       17.420       21.410       12.207      303.460      458.392      149.013        0.792        0.046      120.289        6.928        0.003      331.928        0.260      866.935
01/03/2015  21:37:00     -126.785      -45.500      -16.251       16.979       15.280       13.487      288.296      233.481      181.910        0.956        0.035      134.702        7.519        0.003      331.943        0.283      866.930
01/03/2015  21:38:00     -140.880      -37.212      -18.411       14.862       11.498       10.348      220.886      132.197      107.088        1.102        0.023      145.712        7.176        0.002      331.896        0.206      866.923
01/03/2015  21:39:00     -140.051      -39.578      -13.400       19.433       13.478       11.728      377.641      181.651      137.545        1.103        0.035      145.536       10.183        0.005      331.926        0.255      866.912
01/03/2015  21:40:00     -128.236      -38.794       -8.386       27.738       15.538       14.523      769.376      241.430      210.914        0.962        0.061      133.976       14.086        0.011      331.984        0.351      866.900
01/03/2015  21:41:00     -111.074      -29.947       -2.407       20.139       17.410       15.810      405.574      303.120      249.951        0.710        0.048      115.040       12.785        0.012      331.963        0.317      866.901
01/03/2015  21:42:00     -126.926      -31.880      -21.320       10.995       17.019       13.092      120.885      289.645      171.388        0.908        0.029      130.869        9.050        0.005      332.046        0.454      866.904
01/03/2015  21:43:00     -102.605      -30.943      -16.907       11.959       16.978       11.374      143.028      288.260      129.364        0.617        0.028      107.169        7.102        0.004      332.008        0.389      866.905
01/03/2015  21:44:00      -89.423      -30.984      -17.360       16.528       18.800       11.223      273.182      353.424      125.948        0.501        0.038       94.639        7.028        0.006      332.025        0.420      866.907
01/03/2015  21:45:00      -91.534      -35.554      -10.886       11.201       14.062        9.755      125.460      197.729       95.152        0.509        0.021       98.197        3.432        0.001      332.062        0.481      866.910
01/03/2015  21:46:00     -103.210      -22.795      -17.993        9.994       12.549       10.255       99.879      157.484      105.171        0.593        0.018      105.697        5.543        0.003      332.005        0.386      866.909
01/03/2015  21:47:00      -93.956      -36.134      -17.614        8.375       14.396       10.381       70.145      207.234      107.762        0.541        0.019      100.664        3.065        0.001      332.029        0.426      866.901
01/03/2015  21:48:00     -115.833      -35.040      -13.289       22.918       14.946       12.847      525.254      223.370      165.048        0.787        0.046      121.017       11.608        0.009      331.981        0.345      866.890
01/03/2015  21:49:00     -124.605      -21.145      -21.148       21.889       12.763       12.336      479.114      162.893      152.184        0.861        0.040      126.386        9.933        0.006      331.946        0.289      866.892
01/03/2015  21:50:00     -146.421      -17.880      -21.912       14.951       17.856       14.973      223.527      318.836      224.204        1.150        0.038      147.508       10.200        0.005      331.886        0.191      866.900
01/03/2015  21:51:00     -139.852      -57.310      -10.874       30.851       30.728       21.811      951.769      944.208      475.729        1.267        0.119      151.139       17.542        0.013      331.770       -0.000      866.918
01/03/2015  21:52:00     -120.316      -24.622      -16.539       36.294       32.049       23.907     1317.241     1027.140      571.553        0.914        0.146      122.810       23.003        0.035      331.668       -0.168      866.935
01/03/2015  21:53:00      -97.604      -21.444      -11.309       38.492       26.597       20.665     1481.649      707.389      427.031        0.636        0.131       99.932       18.429        0.034      331.605       -0.272      866.945
01/03/2015  21:54:00      -95.101      -22.268      -18.241       22.964       16.053       11.670      527.348      257.689      136.197        0.540        0.046       97.673        7.288        0.006      331.759       -0.018      866.943
01/03/2015  21:55:00      -73.406      -10.015      -18.446       13.080        7.709        6.113      171.094       59.431       37.365        0.305        0.013       74.086        6.115        0.007      331.876        0.174      866.939
01/03/2015  21:56:00      -80.720       -3.791      -14.611        9.988       10.809        7.746       99.752      116.824       60.006        0.351        0.014       80.809        3.071        0.001      331.942        0.282      866.932
01/03/2015  21:57:00      -92.471      -17.053      -17.773       16.294       11.261        9.170      265.507      126.808       84.089        0.482        0.024       94.030        6.865        0.005      331.789        0.030      866.923
01/03/2015  21:58:00      -90.055      -10.204      -14.534       16.141       14.997       11.363      260.523      224.917      129.128        0.452        0.031       90.631        8.932        0.010      331.713       -0.094      866.911
01/03/2015  21:59:00      -96.345      -11.527      -15.636       13.116       13.138       11.602      172.031      172.600      134.598        0.507        0.024       97.032        7.634        0.006      331.746       -0.041      866.906
01/03/2015  22:00:00      -80.597      -21.685      -13.591       19.183       16.039       10.902      367.971      257.241      118.852        0.395        0.037       83.463        8.800        0.011      331.732       -0.063      866.905
01/03/2015  22:01:00      -69.793      -33.513       -9.504       20.441       16.649       14.241      417.825      277.178      202.807        0.349        0.045       77.422       13.423        0.030      331.772        0.001      866.908
01/03/2015  22:02:00      -80.050      -18.397      -15.724       19.838       18.664       10.536      393.534      348.347      111.015        0.392        0.043       82.137        9.603        0.014      331.744       -0.043      866.908
01/03/2015  22:03:00      -82.481      -17.220      -18.699       12.025       16.526       12.207      144.590      273.120      149.008        0.401        0.028       84.259        5.632        0.004      331.762       -0.014      866.911
01/03/2015  22:04:00      -89.779      -19.824      -12.461       15.186       14.621       13.705      230.626      213.766      187.814        0.462        0.032       91.942        7.412        0.006      331.729       -0.066      866.913
01/03/2015  22:05:00      -83.263      -29.313      -16.576       15.482       15.339       18.311      239.705      235.276      335.288        0.444        0.041       88.273       10.947        0.015      331.689       -0.132      866.924
01/03/2015  22:06:00      -70.886      -18.075      -15.388       16.604       14.282        9.402      275.691      203.966       88.390        0.308        0.028       73.154        6.773        0.009      331.722       -0.079      866.936
01/03/2015  22:07:00      -83.584       -7.427      -18.564       12.565        9.687        9.670      157.887       93.832       93.511        0.387        0.017       83.914        7.259        0.007      331.818        0.078      866.941
01/03/2015  22:08:00      -89.203      -13.334      -16.732       11.554       11.351        9.149      133.494      128.841       83.697        0.438        0.017       90.194        6.644        0.005      331.715       -0.091      866.947
01/03/2015  22:09:00      -75.280      -20.569      -14.166       13.572       12.225       10.400      184.198      149.446      108.163        0.337        0.022       78.040        5.913        0.006      331.707       -0.104      866.954
01/03/2015  22:10:00      -82.223      -17.917      -15.202        9.846       10.837        9.255       96.943      117.445       85.652        0.381        0.015       84.153        7.306        0.008      331.662       -0.177      866.956
01/03/2015  22:11:00      -65.936      -10.923      -14.662       14.161       15.123       11.546      200.540      228.698      133.300        0.262        0.028       66.835        7.835        0.014      331.673       -0.160      866.963
01/03/2015  22:12:00      -71.438      -21.299      -15.001       16.879       14.957       10.501      284.888      223.700      110.264        0.320        0.031       74.545        7.834        0.011      331.668       -0.167      866.961
01/03/2015  22:13:00      -87.181      -19.736      -13.925       11.214       10.191        7.033      125.754      103.856       49.458        0.423        0.014       89.387        6.033        0.005      331.644       -0.207      866.958
01/03/2015  22:14:00      -78.621      -29.909      -17.588       20.300       15.626        7.187      412.105      244.164       51.658        0.405        0.035       84.117        3.297        0.002      331.696       -0.121      866.957
01/03/2015  22:15:00      -70.998      -30.962      -18.401       16.587       15.307       10.385      275.116      234.297      107.841        0.348        0.031       77.455        7.565        0.010      331.678       -0.151      866.952
01/03/2015  22:16:00      -95.068      -14.759      -20.982        9.679       12.344        9.559       93.691      152.375       91.377        0.502        0.017       96.207        7.437        0.006      331.671       -0.162      866.931
01/03/2015  22:17:00     -112.855       -9.763      -21.477       12.034       12.477       11.275      144.814      155.676      127.121        0.686        0.021      113.276        8.004        0.005      331.586       -0.304      866.925
01/03/2015  22:18:00      -95.795      -26.888      -16.178       17.670       15.351       10.897      312.216      235.668      118.752        0.541        0.033       99.497        8.864        0.008      331.581       -0.312      866.927
01/03/2015  22:19:00      -87.690      -24.781      -17.299       13.394       13.017       12.025      179.402      169.436      144.602        0.455        0.025       91.124        7.477        0.007      331.550       -0.363      866.937
01/03/2015  22:20:00      -69.647      -35.230      -16.315       14.920       17.085        8.888      222.609      291.904       78.996        0.348        0.030       78.051        5.002        0.004      331.624       -0.240      866.943
01/03/2015  22:21:00      -68.801      -22.060      -15.576        8.381       17.062        8.130       70.237      291.105       66.099        0.295        0.021       72.251        6.706        0.009      331.621       -0.245      866.947
01/03/2015  22:22:00      -82.670       -2.864      -17.248       12.588        8.086        8.062      158.468       65.384       64.995        0.371        0.014       82.720        4.702        0.003      331.607       -0.269      866.950
01/03/2015  22:23:00     -101.688      -12.777      -14.944       15.209       13.768        9.158      231.314      189.549       83.860        0.562        0.025      102.488        2.208        0.000      331.547       -0.367      866.945
01/03/2015  22:24:00      -89.297      -19.175      -11.922       20.183       17.837       14.280      407.344      318.145      203.932        0.471        0.046       91.333       11.169        0.015      331.542       -0.377      866.948
01/03/2015  22:25:00      -99.664       -7.601      -14.641       20.742       22.343       10.594      430.229      499.217      112.227        0.562        0.052       99.953        5.988        0.004      331.571       -0.328      866.947
01/03/2015  22:26:00      -96.533        6.646      -18.494       11.930        9.178        6.879      142.332       84.243       47.319        0.499        0.014       96.762        2.762        0.001      331.598       -0.284      866.946
01/03/2015  22:27:00      -98.942        6.375      -21.140        9.241       11.782        8.586       85.401      138.826       73.727        0.529        0.015       99.147        3.102        0.001      331.621       -0.246      866.951
01/03/2015  22:28:00      -84.980      -11.219      -18.256        7.593       13.825        9.146       57.660      191.144       83.642        0.401        0.017       85.717        6.837        0.006      331.651       -0.198      866.962
01/03/2015  22:29:00      -86.873      -22.667      -19.014        8.363       14.589        7.885       69.936      212.839       62.180        0.438        0.017       89.782        6.067        0.005      331.578       -0.316      866.981
01/03/2015  22:30:00      -91.901       -6.680      -21.852       10.694       10.484        9.159      114.364      109.911       83.883        0.464        0.015       92.143        7.181        0.006      331.554       -0.356      867.000
01/03/2015  22:31:00     -102.514      -13.101      -18.523       13.315       15.973       12.009      177.294      255.148      144.214        0.580        0.029      103.348        4.874        0.002      331.592       -0.294      866.996
01/03/2015  22:32:00      -96.625      -16.825      -16.847       11.494       16.130       14.162      132.102      260.162      200.568        0.525        0.030       98.079        6.902        0.005      331.522       -0.410      866.988
01/03/2015  22:33:00      -83.423      -34.840      -26.988       22.634       22.640       10.633      512.308      512.588      113.068        0.502        0.057       90.406        7.085        0.006      331.531       -0.394      866.990
01/03/2015  22:34:00     -120.369      -22.767      -16.745       18.950       18.962       13.118      359.098      359.572      172.076        0.809        0.045      122.503        3.110        0.001      331.598       -0.282      866.993
01/03/2015  22:35:00     -125.859       -6.785      -24.658       27.271       12.661        9.403      743.728      160.297       88.423        0.874        0.050      126.042        6.006        0.002      331.655       -0.188      866.986
01/03/2015  22:36:00      -65.754       -5.535      -12.749       18.837       19.756       10.580      354.837      390.308      111.926        0.269        0.043       65.987        9.196        0.019      331.692       -0.128      866.967
01/03/2015  22:37:00      -61.312        7.280      -11.800       14.886       13.877       12.061      221.603      192.576      145.466        0.226        0.028       61.742       10.444        0.029      331.812        0.071      866.953
01/03/2015  22:38:00      -73.805      -23.983      -18.314        8.396       10.183        7.898       70.492      103.701       62.383        0.330        0.012       77.603        4.615        0.004      331.709       -0.099      866.958
01/03/2015  22:39:00      -96.225      -16.939      -23.767       13.499       11.404       10.996      182.235      130.048      120.903        0.527        0.022       97.705        7.897        0.007      331.570       -0.331      866.960
01/03/2015  22:40:00      -99.720      -11.284      -16.955       15.619       14.989       12.306      243.955      224.667      151.436        0.549        0.031      100.357        8.353        0.007      331.625       -0.239      866.949
01/03/2015  22:41:00      -97.626       -7.172      -15.343       13.248       18.941       16.530      175.517      358.755      273.237        0.531        0.040       97.890       12.482        0.016      331.635       -0.223      866.931
01/03/2015  22:42:00      -83.882      -10.282      -15.530       17.615       18.912       14.485      310.295      357.662      209.822        0.413        0.044       84.510       11.391        0.018      331.636       -0.222      866.916
01/03/2015  22:43:00      -85.433       -4.703      -19.231       10.156        7.149        7.047      103.138       51.104       49.660        0.395        0.010       85.563        4.817        0.003      331.813        0.071      866.904
01/03/2015  22:44:00      -71.096      -27.157      -12.589        8.280       14.590        8.483       68.563      212.855       71.964        0.315        0.018       76.106        4.168        0.003      331.735       -0.058      866.887
01/03/2015  22:45:00      -72.105      -36.964      -20.882       13.935       12.501        9.896      194.177      156.284       97.931        0.372        0.022       81.027        3.409        0.002      331.670       -0.165      866.882
01/03/2015  22:46:00      -82.249      -21.093      -19.034       12.602       16.907       13.516      158.799      285.863      182.678        0.410        0.031       84.911        4.887        0.003      331.604       -0.272      866.876
01/03/2015  22:47:00      -84.985      -15.203      -15.455       11.985       10.653        9.428      143.634      113.487       88.885        0.402        0.017       86.334        4.619        0.003      331.609       -0.265      866.890
01/03/2015  22:48:00     -101.835      -18.193      -20.544       23.633       11.715       10.373      558.506      137.244      107.593        0.596        0.040      103.447        7.499        0.005      331.578       -0.317      866.916
01/03/2015  22:49:00     -152.238      -11.335      -22.108       24.129       16.188       12.990      582.230      262.049      168.727        1.240        0.051      152.660        8.127        0.003      331.568       -0.331      866.948
01/03/2015  22:50:00     -128.212      -15.568      -14.438       22.693       20.392       16.366      514.992      415.824      267.856        0.904        0.060      129.154       10.344        0.006      331.535       -0.387      866.974
01/03/2015  22:51:00      -98.110      -25.733      -15.146       24.545       23.039       17.316      602.468      530.782      299.853        0.597        0.072      101.428       14.287        0.020      331.645       -0.205      866.989
01/03/2015  22:52:00     -101.912      -26.474      -16.823       14.323       19.431       13.321      205.137      377.562      177.441        0.606        0.038      105.294        6.844        0.004      331.713       -0.093      867.012
01/03/2015  22:53:00     -104.613      -42.053      -21.596       26.635       26.140       17.059      709.449      683.286      291.009        0.743        0.084      112.749       16.334        0.021      331.676       -0.155      867.025
01/03/2015  22:54:00     -105.319      -22.169       -8.422       27.248       24.647       19.382      742.455      607.483      375.645        0.669        0.086      107.627       19.089        0.031      331.662       -0.178      867.035
01/03/2015  22:55:00     -116.329      -14.553      -17.218        9.406        9.500        8.493       88.467       90.242       72.137        0.715        0.013      117.236        4.502        0.001      331.754       -0.026      867.036
01/03/2015  22:56:00      -88.104      -18.270      -11.358       17.242       14.395       12.114      297.286      207.210      146.743        0.444        0.033       89.979       10.806        0.014      331.714       -0.092      867.042
01/03/2015  22:57:00     -109.564      -23.667      -14.764       12.376       10.835        8.065      153.158      117.400       65.043        0.656        0.017      112.091        5.885        0.003      331.701       -0.114      867.051
01/03/2015  22:58:00     -103.240      -24.603      -15.044       11.698       13.267        8.293      136.854      176.013       68.777        0.594        0.019      106.131        3.352        0.001      331.727       -0.071      867.055
01/03/2015  22:59:00      -99.875      -26.349       -9.200       19.051       25.142       14.988      362.937      632.118      224.654        0.599        0.061      103.292       16.190        0.025      331.650       -0.197      867.049
01/03/2015  23:00:00      -72.414       -8.759      -14.667       26.375       24.786       15.855      695.628      614.331      251.386        0.355        0.078       72.942       12.483        0.029      331.683       -0.142      867.032
01/03/2015  23:01:00      -62.378       -5.417       -9.945       15.093       15.284        8.466      227.809      233.589       71.669        0.228        0.027       62.613        8.701        0.019      331.685       -0.139      867.022
01/03/2015  23:02:00      -44.345      -13.192      -13.370       17.691       16.459       12.478      312.984      270.902      155.712        0.153        0.037       46.266        7.148        0.024      331.828        0.096      867.030
01/03/2015  23:03:00      -25.291        0.893       -4.899       14.224       15.328        7.278      202.310      234.941       52.974        0.058        0.025       25.307        9.486        0.141      332.122        0.577      867.040
01/03/2015  23:04:00        3.895       24.550       -6.319       18.919       10.233       11.087      357.941      104.719      122.927        0.062        0.029       24.857        4.688        0.036      332.367        0.983      867.038
01/03/2015  23:05:00       15.509       44.242       -5.862       12.245       16.998        9.208      149.940      288.944       84.782        0.138        0.026       46.882        7.836        0.028      332.529        1.250      867.035
01/03/2015  23:06:00       19.477       19.018        3.797        8.745       15.587       11.646       76.469      242.943      135.625        0.061        0.023       27.222        8.909        0.107      332.332        0.926      867.034
01/03/2015  23:07:00       24.320       29.848       -1.204       13.757       15.323        8.980      189.253      234.801       80.648        0.099        0.025       38.502        5.593        0.021      332.240        0.772      867.042
01/03/2015  23:08:00        3.318       22.394        1.123        6.633       10.050        6.363       43.995      100.994       40.485        0.035        0.009       22.639        6.404        0.080      332.140        0.609      867.058
01/03/2015  23:09:00      -14.267      -23.000       -3.225       13.293       13.551        9.672      176.691      183.628       93.541        0.060        0.023       27.065        6.395        0.056      331.937        0.273      867.064
01/03/2015  23:10:00      -14.667      -17.884        5.208        9.234       13.484       10.720       85.266      181.806      114.911        0.047        0.019       23.129        6.791        0.086      331.863        0.152      867.067
01/03/2015  23:11:00       28.629        0.041        1.880       20.134        8.796        9.437      405.383       77.369       89.063        0.070        0.029       28.629        4.907        0.029      332.091        0.529      867.054
01/03/2015  23:12:00       36.653        6.121        5.142        9.506       11.347        9.844       90.371      128.764       96.904        0.086        0.016       37.161        8.964        0.058      331.837        0.111      867.044
01/03/2015  23:13:00       34.090       15.673       -2.129        5.771        8.489        5.520       33.306       72.056       30.474        0.077        0.007       37.521        4.341        0.013      332.260        0.806      867.050
01/03/2015  23:14:00       27.504       18.616        0.029        6.940        7.741        4.179       48.158       59.929       17.463        0.061        0.006       33.212        1.514        0.002      332.292        0.859      867.066
01/03/2015  23:15:00       23.841       16.498        0.485       15.905       10.971       10.679      252.966      120.372      114.048        0.066        0.024       28.992        8.154        0.079      332.298        0.870      867.080
01/03/2015  23:16:00      -23.423       19.321       -6.389       28.496       16.794        8.259      812.031      282.042       68.208        0.106        0.058       30.363        5.829        0.037      332.224        0.749      867.100
01/03/2015  23:17:00      -69.138      -11.080      -17.613       10.322        8.617        7.409      106.545       74.259       54.887        0.272        0.012       70.020        2.005        0.001      331.602       -0.278      867.124
01/03/2015  23:18:00      -87.047       -1.864      -18.412       14.592       12.183        8.996      212.915      148.424       80.930        0.418        0.022       87.067        4.229        0.002      331.750       -0.033      867.148
01/03/2015  23:19:00      -73.885      -11.204      -14.060       19.873        7.881        8.349      394.941       62.109       69.701        0.315        0.026       74.730        9.778        0.017      331.920        0.245      867.140
01/03/2015  23:20:00      -42.893       -9.996       -9.283       11.561        7.257        5.114      133.649       52.661       26.156        0.112        0.011       44.043        5.748        0.017      331.958        0.310      867.131
01/03/2015  23:21:00      -58.339      -19.332       -9.901       11.635       10.116        9.010      135.377      102.324       81.174        0.210        0.016       61.459        6.205        0.010      331.790        0.034      867.136
01/03/2015  23:22:00      -70.139      -17.973      -12.920        9.564       10.645        9.113       91.471      113.326       83.048        0.285        0.014       72.406        7.817        0.012      331.578       -0.317      867.148
01/03/2015  23:23:00      -60.940      -13.243      -15.459       11.198       11.159        7.307      125.390      124.521       53.394        0.222        0.015       62.362        5.318        0.007      331.593       -0.293      867.148
01/03/2015  23:24:00      -65.918       -6.081      -16.319       12.721        8.616        7.631      161.825       74.237       58.229        0.247        0.015       66.198        1.927        0.001      331.793        0.036      867.147
01/03/2015  23:25:00      -62.117      -24.263       -7.112       14.928        8.902        6.158      222.852       79.242       37.918        0.242        0.017       66.687        4.838        0.005      331.680       -0.147      867.155
01/03/2015  23:26:00      -40.816      -23.045       -5.090       10.689        6.426        6.173      114.261       41.291       38.103        0.121        0.010       46.872        3.526        0.006      331.704       -0.110      867.156
01/03/2015  23:27:00      -60.072       -5.506      -15.826       12.551        9.588        5.356      157.522       91.927       28.690        0.208        0.014       60.324        4.000        0.004      331.756       -0.023      867.156
01/03/2015  23:28:00      -78.281        1.372      -15.727        7.795        7.730        5.221       60.761       59.757       27.263        0.326        0.007       78.293        3.920        0.003      331.616       -0.254      867.150
01/03/2015  23:29:00      -52.821      -23.973       -8.228       11.033        9.063       10.799      121.736       82.142      116.627        0.188        0.016       58.007        9.783        0.028      331.958        0.309      867.133
01/03/2015  23:30:00        0.740      -34.403        5.041       17.580       26.869       13.059      309.047      721.944      170.543        0.121        0.060       34.411       16.250        0.223      332.072        0.497      867.111
01/03/2015  23:31:00      -26.792      -38.359       -3.953       20.488       19.207       16.116      419.741      368.904      259.722        0.163        0.052       46.789       15.430        0.109      332.162        0.646      867.097
01/03/2015  23:32:00      -23.370      -12.487       -1.856       16.532       11.667        7.331      273.311      136.127       53.744        0.058        0.023       26.497        6.766        0.065      331.873        0.170      867.081
01/03/2015  23:33:00       33.681       -0.431        4.171       19.046       22.496       13.942      362.750      506.058      194.387        0.111        0.053       33.683       13.459        0.160      332.302        0.877      867.036
01/03/2015  23:34:00       36.178       -2.730       10.345       15.595       22.862       15.108      243.205      522.689      228.248        0.121        0.050       36.281       10.451        0.083      332.178        0.672      867.010
01/03/2015  23:35:00        9.633       16.342       17.476       29.794       25.247       11.210      887.674      637.426      125.655        0.116        0.083       18.970        9.603        0.256      331.986        0.356      867.006
01/03/2015  23:36:00      -58.295      -30.980       -8.944       11.745        7.926        7.429      137.939       62.818       55.191        0.235        0.013       66.015        3.680        0.003      331.543       -0.374      867.006
01/03/2015  23:37:00      -43.762      -38.708       -6.527       22.485       10.213       11.424      505.582      104.310      130.514        0.210        0.037       58.424       10.702        0.034      331.388       -0.629      866.998
01/03/2015  23:38:00      -38.854      -24.884       -7.489       15.006        5.417        7.557      225.174       29.343       57.106        0.125        0.016       46.139        8.848        0.037      331.670       -0.165      866.989
01/03/2015  23:39:00       47.834      -33.981       -0.890       36.823       22.996       15.727     1355.940      528.795      247.324        0.279        0.107       58.675       12.085        0.042      332.430        1.087      866.967
01/03/2015  23:40:00       21.765      -13.120       13.393       26.492       17.747       15.050      701.806      314.946      226.501        0.103        0.062       25.414        8.623        0.115      332.235        0.767      866.969
01/03/2015  23:41:00      -11.139      -25.448       -2.594       46.042       23.284       15.478     2119.905      542.148      239.581        0.184        0.145       27.780       11.511        0.172      332.134        0.598      867.003
01/03/2015  23:42:00      -39.722      -27.452       -4.934       15.087        7.292        5.458      227.627       53.179       29.788        0.133        0.016       48.285        2.898        0.004      331.762       -0.013      867.027
01/03/2015  23:43:00      -47.023      -22.893       -2.381        9.489        7.955        8.280       90.044       63.284       68.564        0.148        0.011       52.299        3.468        0.004      331.739       -0.051      867.044
01/03/2015  23:44:00      -75.368      -15.866      -10.348       20.832       17.375        7.792      433.966      301.889       60.717        0.342        0.040       77.020        5.487        0.005      331.566       -0.337      867.065
01/03/2015  23:45:00      -57.539      -24.368       -5.706       19.707       16.031        9.397      388.374      256.979       88.299        0.234        0.037       62.487        7.711        0.015      331.580       -0.313      867.080
01/03/2015  23:46:00      -58.828       -9.496       -1.329       14.756       16.534        9.917      217.744      273.365       98.354        0.207        0.029       59.589        6.465        0.012      331.470       -0.495      867.098
01/03/2015  23:47:00      -81.811      -50.372        2.617       34.385       41.374       23.608     1182.349     1711.844      557.361        0.634        0.173       96.074       10.612        0.012      331.419       -0.577      867.114
01/03/2015  23:48:00     -108.989      -73.362       -0.270       41.021       34.255       22.247     1682.705     1173.429      494.940        1.031        0.168      131.380       18.625        0.020      331.541       -0.376      867.131
01/03/2015  23:49:00      -70.341      -26.647        1.029       43.135       24.837       15.145     1860.625      616.860      229.381        0.418        0.135       75.219       18.292        0.059      331.340       -0.709      867.146
01/03/2015  23:50:00        1.745       -5.771       -3.305       11.727        9.026       12.608      137.519       81.476      158.968        0.021        0.019        6.029        6.992        1.345      331.330       -0.724      867.132
01/03/2015  23:51:00      -54.656      -17.205      -14.789       15.578       11.634        5.425      242.665      135.348       29.432        0.195        0.020       57.300        4.617        0.006      331.484       -0.472      867.134
01/03/2015  23:52:00      -90.407      -26.969      -12.713       12.266        9.905        8.856      150.459       98.100       78.422        0.469        0.016       94.343        4.072        0.002      331.547       -0.369      867.149
01/03/2015  23:53:00     -109.482      -24.193      -11.017       16.452       16.339       15.045      270.660      266.956      226.339        0.673        0.038      112.123        9.686        0.007      331.454       -0.521      867.162
01/03/2015  23:54:00      -69.703       -8.603        0.885       38.387       18.826       15.836     1473.553      354.421      250.781        0.351        0.104       70.232       19.162        0.074      331.319       -0.742      867.161
01/03/2015  23:55:00      -36.313       -9.948        5.925       34.343       23.634       17.607     1179.409      558.562      309.998        0.175        0.102       37.651       15.689        0.174      331.273       -0.816      867.163
01/03/2015  23:56:00      -62.178      -31.389        4.915       31.729       22.201       16.215     1006.712      492.877      262.940        0.332        0.088       69.652       15.688        0.051      331.375       -0.651      867.166
01/03/2015  23:57:00      -31.195      -11.576       -2.368       25.332       17.794       15.041      641.693      316.621      226.221        0.115        0.059       33.274       13.967        0.176      331.380       -0.641      867.159
01/03/2015  23:58:00       -6.846        8.740        6.780       14.806       14.377        8.028      219.226      206.689       64.449        0.033        0.025       11.102        7.788        0.492      331.369       -0.660      867.134
01/03/2015  23:59:00        1.360        3.933       -0.184        6.266        6.147        7.063       39.261       37.781       49.880        0.007        0.006        4.162        4.075        0.959      331.427       -0.566      867.115
